[[{"header":{"parameterUnit":"m.s-1","parameterCategory":1,"la1":30.6,"la2":29.2853,"lo1":-89.7004,"lo2":-87.6739,"dy":0.0162,"dx":0.0183,"nx":112,"ny":82,"refTime":"2023-04-13T12:00:00:Z","depth":0,"parameterNumber":2,"parameterNumberName":"U-component_of_WINDS"},"data":[0.0,0.0,0.0,0.0,0.0,0.0,0.0,0.0,0.0,0.0,0.0,0.0,0.0,0.0,0.0,0.0,0.0,0.0,0.0,0.0,0.0,0.0,0.0,0.0,0.0,0.0,0.0,0.0,0.0,0.0,0.0,0.0,0.0,0.0,0.0,0.0,0.0,0.0,0.0,0.0,0.0,0.0,0.0,0.0,0.0,0.0,0.0,0.0,0.0,0.0,0.0,0.0,0.0,0.0,0.0,0.0,0.0,0.0,0.0,0.0,0.0,0.0,0.0,0.0,0.0,0.0,0.0,0.0,0.0,0.0,0.0,0.0,0.0,0.0,0.0,0.0,0.0,0.0,0.0,0.0,0.0,0.0,0.0,0.0,0.0,0.0,0.0,0.0,0.0,0.0,5.3551,5.3653,5.3788,5.3856,5.3856,5.3856,5.2994,5.1101,0.0,0.0,0.0,0.0,0.0,0.0,0.0,0.0,0.0,0.0,0.0,0.0,0.0,0.0,0.0,0.0,0.0,0.0,0.0,0.0,0.0,0.0,0.0,0.0,0.0,0.0,0.0,0.0,0.0,0.0,0.0,0.0,0.0,0.0,0.0,0.0,0.0,0.0,0.0,0.0,0.0,0.0,0.0,0.0,0.0,0.0,0.0,0.0,0.0,0.0,0.0,0.0,0.0,0.0,0.0,0.0,0.0,0.0,0.0,0.0,0.0,0.0,0.0,0.0,0.0,0.0,0.0,0.0,0.0,0.0,0.0,0.0,0.0,0.0,0.0,0.0,0.0,0.0,0.0,0.0,0.0,0.0,0.0,0.0,0.0,0.0,0.0,0.0,0.0,0.0,0.0,0.0,0.0,0.0,0.0,0.0,0.0,0.0,0.0,0.0,0.0,0.0,0.0,0.0,5.3754,5.4363,5.5006,5.5378,5.5378,5.5378,5.4816,5.3583,0.0,0.0,0.0,0.0,0.0,0.0,0.0,0.0,0.0,0.0,0.0,0.0,0.0,0.0,0.0,0.0,0.0,0.0,0.0,0.0,0.0,0.0,0.0,0.0,0.0,0.0,0.0,0.0,0.0,0.0,0.0,0.0,0.0,0.0,0.0,0.0,0.0,0.0,0.0,0.0,0.0,0.0,0.0,0.0,0.0,0.0,0.0,0.0,0.0,0.0,0.0,0.0,0.0,0.0,0.0,0.0,0.0,0.0,0.0,0.0,0.0,0.0,0.0,0.0,0.0,0.0,0.0,0.0,0.0,0.0,0.0,0.0,0.0,0.0,0.0,0.0,0.0,0.0,0.0,0.0,0.0,0.0,0.0,0.0,0.0,0.0,0.0,0.0,0.0,0.0,0.0,0.0,0.0,0.0,0.0,0.0,0.0,0.0,0.0,0.0,0.0,0.0,0.0,5.4465,5.4837,5.5175,5.5513,5.5716,5.5716,5.5716,5.4974,5.3343,5.2184,0.0,0.0,0.0,0.0,0.0,0.0,0.0,0.0,0.0,0.0,0.0,0.0,0.0,0.0,0.0,0.0,0.0,0.0,0.0,0.0,0.0,0.0,0.0,0.0,0.0,0.0,0.0,0.0,0.0,0.0,0.0,0.0,0.0,0.0,0.0,0.0,0.0,0.0,0.0,0.0,0.0,0.0,0.0,0.0,0.0,0.0,0.0,0.0,0.0,0.0,0.0,0.0,0.0,0.0,0.0,0.0,0.0,0.0,0.0,0.0,0.0,0.0,0.0,0.0,0.0,0.0,0.0,0.0,0.0,0.0,0.0,0.0,0.0,0.0,0.0,0.0,0.0,0.0,0.0,0.0,0.0,0.0,0.0,0.0,0.0,0.0,0.0,0.0,0.0,0.0,0.0,0.0,0.0,0.0,0.0,0.0,0.0,0.0,0.0,0.0,0.0,0.0,5.5513,5.5987,5.5987,5.6122,5.6224,5.6224,5.6224,5.5509,5.3864,5.3278,0.0,0.0,0.0,0.0,0.0,0.0,0.0,0.0,0.0,0.0,0.0,0.0,0.0,0.0,0.0,0.0,0.0,0.0,0.0,0.0,0.0,0.0,0.0,0.0,0.0,0.0,0.0,0.0,0.0,0.0,0.0,0.0,0.0,0.0,0.0,0.0,0.0,0.0,0.0,0.0,0.0,0.0,0.0,0.0,0.0,0.0,0.0,0.0,0.0,0.0,0.0,0.0,0.0,0.0,0.0,0.0,0.0,0.0,0.0,0.0,0.0,0.0,0.0,0.0,0.0,0.0,0.0,0.0,0.0,0.0,0.0,0.0,0.0,0.0,0.0,0.0,0.0,0.0,0.0,0.0,0.0,0.0,0.0,0.0,0.0,0.0,0.0,0.0,0.0,0.0,0.0,0.0,0.0,0.0,0.0,0.0,0.0,0.0,0.0,0.0,0.0,0.0,5.6292,5.6731,5.6731,5.734,5.7746,5.7746,5.7746,5.764,5.7566,5.56,0.0,0.0,0.0,0.0,0.0,0.0,0.0,0.0,0.0,0.0,0.0,0.0,0.0,0.0,0.0,0.0,0.0,0.0,0.0,0.0,0.0,0.0,0.0,0.0,0.0,0.0,0.0,0.0,0.0,0.0,0.0,0.0,0.0,0.0,0.0,0.0,0.0,0.0,0.0,0.0,0.0,0.0,0.0,0.0,0.0,0.0,0.0,0.0,0.0,0.0,0.0,0.0,0.0,0.0,0.0,0.0,0.0,0.0,0.0,0.0,0.0,0.0,0.0,0.0,0.0,0.0,0.0,0.0,0.0,0.0,0.0,0.0,0.0,0.0,0.0,0.0,0.0,0.0,0.0,0.0,0.0,0.0,0.0,0.0,0.0,0.0,0.0,0.0,0.0,0.0,0.0,0.0,0.0,0.0,0.0,0.0,0.0,0.0,0.0,0.0,0.0,0.0,5.7036,5.7476,0.0,5.7712,5.7881,5.7881,5.7881,5.7628,5.6854,0.0,0.0,0.0,0.0,0.0,0.0,0.0,0.0,0.0,0.0,0.0,0.0,0.0,0.0,0.0,0.0,0.0,0.0,0.0,0.0,0.0,0.0,0.0,0.0,0.0,0.0,0.0,0.0,0.0,0.0,0.0,0.0,0.0,0.0,0.0,0.0,0.0,0.0,0.0,0.0,0.0,0.0,0.0,0.0,0.0,0.0,0.0,0.0,0.0,0.0,0.0,0.0,0.0,0.0,0.0,0.0,0.0,0.0,0.0,0.0,0.0,0.0,0.0,0.0,0.0,0.0,0.0,0.0,0.0,0.0,0.0,0.0,0.0,0.0,0.0,0.0,0.0,0.0,0.0,0.0,0.0,0.0,0.0,0.0,0.0,0.0,0.0,0.0,0.0,0.0,0.0,0.0,0.0,0.0,0.0,0.0,0.0,0.0,0.0,0.0,0.0,0.0,5.7103,5.778,5.8254,0.0,5.8457,5.8592,5.8592,5.8592,5.8261,5.7476,0.0,0.0,0.0,0.0,0.0,0.0,0.0,0.0,0.0,0.0,0.0,0.0,0.0,0.0,0.0,0.0,0.0,0.0,0.0,0.0,0.0,0.0,0.0,0.0,0.0,0.0,0.0,0.0,0.0,0.0,0.0,0.0,0.0,0.0,0.0,0.0,0.0,0.0,0.0,0.0,0.0,0.0,0.0,0.0,0.0,0.0,0.0,0.0,0.0,0.0,0.0,0.0,0.0,0.0,0.0,0.0,0.0,0.0,0.0,0.0,0.0,0.0,0.0,0.0,0.0,0.0,0.0,0.0,0.0,0.0,0.0,0.0,0.0,0.0,0.0,0.0,0.0,0.0,0.0,0.0,0.0,0.0,0.0,0.0,0.0,0.0,0.0,0.0,0.0,0.0,0.0,0.0,0.0,0.0,0.0,0.0,0.0,0.0,0.0,0.0,0.0,0.0,5.7814,5.8558,5.9032,5.9032,5.9674,6.0114,6.0114,6.0114,6.0114,0.0,0.0,0.0,0.0,0.0,0.0,0.0,0.0,0.0,0.0,0.0,0.0,0.0,0.0,0.0,0.0,0.0,0.0,0.0,0.0,0.0,0.0,0.0,0.0,0.0,0.0,0.0,0.0,0.0,0.0,0.0,0.0,0.0,0.0,0.0,0.0,0.0,0.0,0.0,0.0,0.0,0.0,0.0,0.0,0.0,0.0,0.0,0.0,0.0,0.0,0.0,0.0,0.0,0.0,0.0,0.0,0.0,0.0,0.0,0.0,0.0,0.0,0.0,0.0,0.0,0.0,0.0,0.0,0.0,0.0,0.0,0.0,0.0,0.0,0.0,0.0,0.0,0.0,0.0,0.0,0.0,0.0,0.0,0.0,0.0,0.0,0.0,0.0,0.0,0.0,0.0,0.0,0.0,0.0,0.0,0.0,0.0,0.0,0.0,0.0,0.0,0.0,0.0,5.866,5.9336,5.9776,5.9776,5.9979,6.0114,6.0114,6.0114,6.0114,6.0114,0.0,0.0,0.0,0.0,0.0,0.0,0.0,0.0,0.0,0.0,0.0,0.0,0.0,0.0,0.0,0.0,0.0,0.0,0.0,0.0,0.0,0.0,0.0,0.0,0.0,0.0,0.0,0.0,0.0,0.0,0.0,0.0,0.0,0.0,0.0,0.0,0.0,0.0,0.0,0.0,0.0,0.0,0.0,0.0,0.0,0.0,0.0,0.0,0.0,0.0,0.0,0.0,0.0,0.0,0.0,0.0,0.0,0.0,0.0,0.0,0.0,0.0,0.0,0.0,0.0,0.0,0.0,0.0,0.0,0.0,0.0,0.0,0.0,0.0,0.0,0.0,0.0,0.0,0.0,0.0,0.0,0.0,0.0,0.0,0.0,0.0,0.0,0.0,0.0,0.0,0.0,0.0,0.0,0.0,0.0,0.0,0.0,0.0,0.0,0.0,0.0,0.0,5.9404,6.0114,6.0588,6.0588,6.0825,6.1028,6.1028,6.1028,6.1028,6.1028,0.0,0.0,0.0,0.0,0.0,0.0,0.0,0.0,0.0,0.0,0.0,0.0,0.0,0.0,0.0,0.0,0.0,0.0,0.0,0.0,0.0,0.0,0.0,0.0,0.0,0.0,0.0,0.0,0.0,0.0,0.0,0.0,0.0,0.0,0.0,0.0,0.0,0.0,0.0,0.0,0.0,0.0,0.0,0.0,0.0,0.0,0.0,0.0,0.0,0.0,0.0,0.0,0.0,0.0,0.0,0.0,0.0,0.0,0.0,0.0,0.0,0.0,0.0,0.0,0.0,0.0,0.0,0.0,0.0,0.0,0.0,0.0,0.0,0.0,0.0,0.0,0.0,0.0,0.0,0.0,0.0,0.0,0.0,0.0,0.0,0.0,0.0,0.0,0.0,0.0,0.0,0.0,0.0,0.0,0.0,0.0,0.0,0.0,0.0,0.0,0.0,0.0,6.0148,6.0926,6.14,6.14,6.2009,6.2381,6.2381,6.2381,6.2381,6.2381,0.0,0.0,0.0,0.0,0.0,0.0,0.0,0.0,0.0,0.0,0.0,0.0,0.0,0.0,0.0,0.0,0.0,0.0,0.0,0.0,0.0,0.0,0.0,0.0,0.0,0.0,0.0,0.0,0.0,0.0,0.0,0.0,0.0,0.0,0.0,0.0,0.0,0.0,0.0,0.0,0.0,0.0,0.0,0.0,0.0,0.0,0.0,0.0,0.0,0.0,0.0,0.0,0.0,0.0,0.0,0.0,0.0,0.0,0.0,0.0,4.7293,0.0,0.0,0.0,0.0,0.0,0.0,0.0,0.0,0.0,0.0,0.0,0.0,0.0,0.0,0.0,0.0,0.0,0.0,0.0,0.0,0.0,0.0,0.0,0.0,0.0,0.0,0.0,0.0,0.0,0.0,0.0,0.0,0.0,0.0,0.0,0.0,0.0,0.0,0.0,0.0,0.0,6.1028,6.1704,6.2144,6.2144,6.2313,6.2381,6.2381,6.2381,6.2381,6.2381,6.2381,0.0,0.0,0.0,0.0,0.0,0.0,0.0,0.0,0.0,0.0,0.0,0.0,0.0,0.0,0.0,0.0,0.0,0.0,0.0,0.0,0.0,0.0,0.0,0.0,0.0,0.0,0.0,0.0,0.0,0.0,0.0,0.0,0.0,0.0,0.0,0.0,0.0,0.0,0.0,0.0,0.0,0.0,0.0,0.0,0.0,0.0,0.0,0.0,0.0,0.0,0.0,0.0,0.0,0.0,0.0,0.0,0.0,0.0,0.0,0.0,4.7665,0.0,0.0,0.0,0.0,0.0,0.0,0.0,0.0,0.0,0.0,0.0,0.0,0.0,0.0,0.0,0.0,0.0,0.0,0.0,0.0,0.0,0.0,0.0,0.0,0.0,0.0,0.0,0.0,0.0,0.0,0.0,0.0,0.0,0.0,0.0,0.0,0.0,0.0,0.0,0.0,6.1772,6.2144,6.2381,6.2381,6.2381,6.2381,6.2381,6.2381,6.2381,6.2381,6.2381,0.0,0.0,0.0,0.0,0.0,0.0,0.0,0.0,0.0,0.0,0.0,0.0,0.0,0.0,0.0,0.0,0.0,0.0,0.0,0.0,0.0,0.0,0.0,0.0,0.0,0.0,0.0,0.0,0.0,0.0,0.0,0.0,0.0,0.0,0.0,0.0,0.0,0.0,0.0,0.0,0.0,0.0,0.0,0.0,0.0,0.0,0.0,0.0,0.0,0.0,0.0,0.0,0.0,5.027,5.0608,5.1217,5.1217,5.1217,5.115,4.9932,4.9052,4.8511,4.8511,0.0,0.0,0.0,0.0,0.0,0.0,0.0,0.0,0.0,0.0,0.0,0.0,0.0,0.0,0.0,0.0,0.0,0.0,0.0,0.0,0.0,0.0,0.0,0.0,5.6867,5.7205,0.0,0.0,0.0,0.0,0.0,0.0,0.0,0.0,0.0,0.0,0.0,0.0,6.2313,6.2381,6.2381,6.2381,6.2381,6.2381,6.2381,6.2381,6.2381,6.2381,6.2381,6.2381,0.0,0.0,0.0,0.0,0.0,0.0,0.0,0.0,0.0,0.0,0.0,0.0,0.0,0.0,0.0,0.0,0.0,0.0,0.0,0.0,0.0,0.0,0.0,0.0,0.0,0.0,0.0,0.0,0.0,0.0,0.0,0.0,4.5568,4.5568,0.0,0.0,0.0,0.0,0.0,0.0,0.0,0.0,0.0,0.0,0.0,0.0,0.0,5.0777,5.0777,5.0879,5.098,5.1082,5.1082,5.1116,5.1217,5.1217,5.1217,5.1217,5.1014,0.0,5.0777,5.0777,0.0,0.0,0.0,0.0,0.0,0.0,0.0,0.0,0.0,0.0,0.0,0.0,0.0,0.0,0.0,0.0,0.0,0.0,0.0,0.0,0.0,0.0,5.778,5.8423,5.9133,5.9641,0.0,5.9099,5.8896,5.9539,5.981,0.0,0.0,0.0,0.0,0.0,0.0,0.0,6.2381,6.2381,6.2381,6.2381,6.2381,6.2381,6.2381,6.2381,6.2381,6.2381,6.2381,6.2381,6.2381,6.2381,0.0,0.0,0.0,0.0,0.0,0.0,0.0,0.0,0.0,0.0,0.0,0.0,0.0,0.0,0.0,0.0,0.0,0.0,0.0,0.0,0.0,0.0,0.0,0.0,0.0,0.0,0.0,0.0,0.0,4.5838,4.6312,4.6312,4.6583,4.6955,0.0,0.0,0.0,0.0,0.0,0.0,0.0,0.0,0.0,5.071,5.1048,5.1217,5.1217,5.1217,5.142,5.1826,5.1826,5.2266,5.3112,5.3112,5.3348,5.3754,5.3754,5.3754,5.3619,5.1928,5.1217,5.1217,0.0,0.0,0.0,0.0,5.2367,5.3112,5.3112,5.3585,0.0,5.4228,0.0,0.0,0.0,0.0,0.0,0.0,0.0,0.0,0.0,0.0,5.9201,5.9539,5.9877,6.0216,6.0689,6.052,6.025,0.0,6.0452,6.0757,6.0757,0.0,0.0,0.0,0.0,6.2381,6.2381,6.2381,6.2381,6.2381,6.2753,6.3024,6.3024,6.3396,6.3463,6.3057,6.3024,6.2821,6.2415,6.2381,6.2381,0.0,0.0,0.0,0.0,0.0,0.0,0.0,0.0,0.0,0.0,0.0,0.0,0.0,0.0,0.0,0.0,0.0,0.0,0.0,0.0,0.0,0.0,0.0,0.0,0.0,0.0,0.0,0.0,4.6616,4.709,4.709,4.7394,4.7868,0.0,0.0,0.0,0.0,0.0,0.0,5.1183,5.1386,5.1488,5.1488,5.1691,5.1894,5.2097,5.2097,5.2435,5.3179,5.3382,5.4059,5.5175,5.5344,5.575,5.6258,5.6258,5.6258,5.6055,5.345,5.2367,5.2367,5.2367,5.2706,5.3179,5.3179,5.389,5.4871,5.4871,5.5243,5.5716,5.5716,5.5987,5.6325,5.6494,0.0,0.0,0.0,0.0,5.8727,5.981,6.025,6.0419,6.0419,6.0554,6.0858,6.1467,6.1569,6.14,0.0,6.1163,6.1569,6.1569,0.0,0.0,0.0,0.0,6.2448,6.2651,6.2685,6.2753,6.2922,6.3463,6.3802,6.3802,6.4275,6.4377,6.3835,6.3802,6.3531,6.299,6.2787,6.2685,6.2685,0.0,0.0,0.0,0.0,0.0,0.0,0.0,0.0,0.0,0.0,0.0,0.0,0.0,0.0,0.0,0.0,0.0,0.0,0.0,0.0,0.0,0.0,0.0,0.0,0.0,0.0,0.0,0.0,0.0,4.7868,4.9086,0.0,0.0,0.0,0.0,5.115,5.115,5.1183,5.1217,5.186,5.2232,5.2232,5.2976,5.3721,5.4397,5.4431,5.4803,5.5547,5.6258,5.6596,5.6697,5.7408,5.7746,5.778,5.778,5.778,5.7645,5.6122,5.548,5.548,5.548,5.5513,5.5547,5.5547,5.5581,5.5649,5.5649,5.5683,5.5716,5.5716,5.6664,5.7915,5.8626,5.9336,0.0,0.0,5.9979,6.0013,6.008,6.0655,6.1231,6.1231,6.1772,6.2279,6.2313,6.2347,6.2313,0.0,6.2313,6.2347,6.2347,0.0,6.2381,6.2381,6.2381,6.2651,6.3362,6.3463,6.3734,6.441,6.4512,6.4546,6.4546,6.458,6.458,6.4546,6.4546,6.4546,6.4478,6.3835,6.3463,6.3463,6.2753,0.0,0.0,0.0,0.0,0.0,0.0,0.0,0.0,0.0,0.0,0.0,0.0,0.0,0.0,0.0,0.0,0.0,0.0,0.0,0.0,0.0,0.0,0.0,0.0,0.0,0.0,0.0,0.0,4.9323,5.0202,0.0,5.0811,5.1048,5.142,5.1894,5.1928,5.2131,5.2672,5.3382,5.3788,5.3788,5.4972,5.575,5.6021,5.6494,5.6867,5.7103,5.7374,5.7746,5.822,5.849,5.8863,5.9302,5.9302,5.9302,5.9268,5.8761,5.7983,5.7103,5.7103,5.7103,5.7103,5.7103,5.7408,5.7848,5.7848,5.8152,5.8524,5.8524,5.8896,5.937,5.9641,5.9911,6.0216,6.0723,6.0858,6.0994,6.1467,6.1772,6.2009,6.2009,6.2212,6.2381,6.2381,6.2381,6.2381,6.2381,6.2381,6.2381,6.2381,6.2381,6.255,6.3057,6.3125,6.3362,6.4106,6.4208,6.4309,6.458,6.5019,6.5493,6.6,6.6034,6.6034,6.6034,6.5561,6.5087,6.4613,6.4343,6.4208,6.4208,6.3497,6.3125,0.0,0.0,0.0,0.0,0.0,0.0,0.0,0.0,0.0,0.0,0.0,0.0,0.0,0.0,0.0,0.0,0.0,0.0,0.0,0.0,0.0,0.0,0.0,0.0,0.0,0.0,5.0473,5.0473,5.1116,5.1589,5.1589,5.1826,5.2198,5.2672,5.2942,5.3315,5.3856,5.4803,5.5344,5.5344,5.6528,5.7306,5.7543,5.8017,5.8389,5.8626,5.8896,5.9302,5.9776,6.0047,6.0419,6.0892,6.0892,6.0892,6.0892,6.0892,6.0283,5.937,5.8829,5.8626,5.8626,5.8626,5.8964,5.937,5.937,5.9708,6.0114,6.0114,6.0283,6.052,6.052,6.0689,6.0994,6.1501,6.167,6.1772,6.2245,6.2381,6.2381,6.2381,6.2381,6.2448,6.2719,6.2753,6.2854,6.3091,6.2922,6.2753,6.2753,6.299,6.3294,6.3802,6.3869,6.4241,6.5222,6.5358,6.5561,6.6068,6.6542,6.7049,6.7523,6.759,6.759,6.759,6.7117,6.6609,6.6136,6.5628,6.5358,6.5358,6.4377,6.3869,6.3869,0.0,0.0,0.0,0.0,0.0,0.0,0.0,0.0,0.0,0.0,0.0,0.0,0.0,0.0,0.0,0.0,0.0,0.0,0.0,0.0,0.0,0.0,0.0,5.1217,5.1251,5.1251,5.1251,5.1894,5.2367,5.2367,5.3078,5.3551,5.3585,5.4262,5.4668,5.4668,5.6055,5.6867,5.6867,5.7611,5.8355,5.9066,5.9099,5.9471,6.0182,6.096,6.1332,6.1366,6.211,6.2415,6.2415,6.2448,6.2448,6.2448,6.2448,6.2448,6.2313,6.0757,6.0182,6.0182,6.0182,6.0182,6.0182,6.0182,6.0182,6.0182,6.0182,6.0689,6.1332,6.1332,6.1839,6.2381,6.2381,6.2415,6.2415,6.2415,6.2448,6.2448,6.2448,6.2448,6.2651,6.3396,6.3531,6.3768,6.4478,6.4072,6.3599,6.3565,6.414,6.4647,6.4681,6.4681,0.0,6.6677,6.688,6.7455,6.8944,6.9113,6.9113,6.9147,6.9113,6.9113,6.9147,6.9113,6.9113,6.9113,6.7692,6.688,6.6812,6.5392,6.4647,6.4613,0.0,0.0,0.0,0.0,0.0,0.0,0.0,0.0,0.0,0.0,0.0,0.0,0.0,0.0,0.0,0.0,0.0,0.0,0.0,0.0,0.0,0.0,5.1826,5.1285,5.1657,5.1995,5.1995,5.2706,5.3382,5.3923,5.416,5.4532,5.5074,5.5784,5.619,5.619,5.7611,5.8423,5.8423,5.9674,6.0452,6.0689,6.1197,6.1569,6.1772,6.1975,6.211,6.211,6.2854,6.3193,6.3226,6.3768,6.4005,6.4005,6.4005,6.4005,6.3835,6.2347,6.1772,6.1772,6.1772,6.1772,6.1772,6.1772,6.1772,6.1772,6.1772,6.1907,6.211,6.211,6.2245,6.2381,6.2381,6.2787,6.3193,6.3193,6.3599,6.4005,6.4005,6.4005,6.4038,6.4241,6.4309,6.4377,6.4546,6.5324,6.5561,6.4478,6.4918,6.5561,6.6136,6.6643,0.0,6.8335,6.847,6.8639,6.9045,6.9113,6.9316,6.9857,6.9417,6.9316,6.9857,6.9383,6.9113,6.9113,6.8707,6.7963,6.6846,6.6406,6.5662,0.0,0.0,0.0,0.0,0.0,0.0,0.0,0.0,0.0,0.0,0.0,0.0,0.0,0.0,0.0,0.0,0.0,0.0,0.0,0.0,0.0,0.0,5.3044,5.3112,5.2672,5.2739,5.2909,5.3213,5.3687,5.4363,5.5412,5.5513,5.5818,5.6562,5.7306,5.7712,5.7712,5.9167,5.9979,5.9979,6.1129,6.1772,6.1772,6.2482,6.2854,6.2854,6.3159,6.3328,6.3328,6.3768,6.3971,6.4005,6.441,6.4613,6.4613,6.4613,6.4613,0.0,0.0,0.0,0.0,0.0,6.3328,6.3328,6.3328,6.3328,6.3328,6.3328,6.3328,6.3328,6.3328,6.3328,6.3328,6.3328,6.3632,6.3971,6.3971,6.4275,6.4613,6.4613,6.485,6.5155,6.5459,6.5764,6.6068,6.6406,6.7184,0.0,6.6643,6.6846,6.7252,6.7692,6.8132,6.8673,6.9451,6.9823,7.0161,7.0466,7.077,7.1109,7.1548,7.1176,0.0,0.0,0.0,7.0669,7.006,7.0026,0.0,0.0,0.0,6.7354,6.6474,0.0,0.0,0.0,6.3599,6.2569,0.0,0.0,0.0,0.0,0.0,0.0,0.0,0.0,0.0,0.0,0.0,0.0,0.0,0.0,0.0,0.0,5.4296,5.4702,5.4702,5.4228,5.4126,5.4769,5.4837,5.5412,5.69,5.707,5.734,5.8084,5.8829,5.9268,5.9268,0.0,0.0,0.0,0.0,6.2516,6.2516,6.326,6.3632,6.3632,6.4309,6.4613,6.4613,6.4681,6.4715,6.4715,6.4884,6.4986,6.4986,6.5087,6.5121,6.5087,6.4749,6.4613,6.4613,6.4613,6.4613,6.4613,6.4613,0.0,0.0,6.4613,6.4613,6.4613,6.4613,6.4613,6.4613,6.4613,6.4715,6.485,6.485,6.4986,6.5121,6.5121,6.5595,6.6237,6.6914,6.759,6.8233,6.8977,6.9248,6.935,6.935,6.9282,6.9248,6.935,6.9417,6.9722,7.0466,7.1142,7.1819,7.2462,0.0,0.0,7.3477,7.3477,7.3477,7.3477,7.3477,7.2902,7.1616,7.1548,7.0906,6.9485,6.9485,6.9383,6.9214,6.8504,6.7793,6.7015,6.5459,6.4343,0.0,0.0,0.0,0.0,0.0,0.0,0.0,0.0,0.0,0.0,0.0,0.0,0.0,0.0,0.0,5.5159,5.5416,5.5513,5.5513,5.5886,5.6224,5.6359,5.6359,5.6968,5.8457,5.8592,5.8896,5.9607,6.0419,6.0858,6.0858,6.1704,6.2178,6.2178,6.2922,6.3294,6.3294,6.4038,6.4377,6.4377,0.0,0.0,6.4613,6.5222,6.5493,6.5527,6.6745,6.7252,6.732,6.7963,6.8233,6.7996,6.5561,6.4613,6.4613,6.4613,6.4613,6.4613,6.4613,6.4613,6.4613,6.4613,6.4613,6.4613,6.4613,6.4613,0.0,6.4613,6.5459,6.6373,6.6373,6.732,6.8233,6.8233,6.8335,6.847,6.8639,6.8774,6.891,6.9079,7.006,7.0872,7.0872,7.0364,7.0195,7.0804,7.1379,7.2022,7.2766,7.2969,7.3105,7.3274,7.3409,7.3477,7.3477,7.3477,7.3477,7.3477,7.3477,7.3341,7.3071,7.3071,7.2665,7.1785,7.1751,7.1176,6.9992,6.9823,6.9383,6.8605,6.6474,6.5087,0.0,0.0,0.0,0.0,0.0,0.0,0.0,0.0,0.0,0.0,0.0,5.4948,0.0,0.0,5.6016,5.6807,5.6847,5.6908,5.7329,5.8001,5.8186,5.7442,5.7679,5.849,6.0013,6.0148,6.0452,6.1197,6.1603,6.2009,6.2381,6.2753,6.3125,6.3497,6.3869,6.4072,6.4072,6.4783,6.5324,6.573,6.6068,6.6474,6.688,6.7218,6.7387,6.7421,6.8166,6.8504,6.8538,6.8944,6.9113,6.8944,6.7455,6.6846,6.6846,6.6846,6.6846,6.6846,6.6846,6.6846,6.6846,6.6846,6.6846,6.6846,6.6846,6.6846,6.6846,6.6846,6.7387,6.7963,6.7963,6.8538,6.9113,6.9113,6.9383,6.9755,7.0128,7.05,7.0872,7.121,7.1887,7.2394,7.2394,7.209,7.1954,7.236,7.2699,7.3071,7.3443,7.3815,7.4052,7.4052,7.439,7.4593,7.4593,7.4593,7.4593,7.4593,7.4593,7.4424,7.4052,7.4052,7.3713,7.2969,7.2935,7.2597,7.1819,7.1819,7.1447,7.0737,6.9586,6.803,0.0,0.0,0.0,0.0,0.0,0.0,0.0,0.0,5.5329,5.6162,5.6801,5.7277,5.756,5.7444,5.7611,5.8461,5.8585,5.8838,5.9493,6.0175,6.0217,5.9173,5.9253,6.0013,6.1366,6.1501,6.1806,6.255,6.2618,6.2956,6.3666,6.3734,6.4005,6.458,6.4884,6.5019,6.5019,6.5899,6.6643,6.7252,6.7861,6.847,6.9113,6.9113,6.9113,6.9113,6.9248,6.9417,6.9519,6.9519,6.9519,6.9519,6.9519,6.9519,6.9485,6.9214,6.9113,6.9113,6.9113,6.9113,6.9113,6.9113,6.9113,6.9113,6.9113,6.9113,6.9113,6.9113,6.9316,6.9519,6.9519,6.9755,6.9958,6.9958,7.0398,7.1007,7.1616,7.2191,7.28,7.3375,7.3612,7.3713,7.3713,7.3815,7.3883,7.3713,7.3713,7.3747,7.3883,7.4458,7.483,7.483,7.5337,7.5709,7.5709,7.5709,7.5709,7.5709,7.5709,7.5439,7.4864,7.483,7.4525,7.3916,7.3916,7.3849,7.3713,7.3713,7.3308,7.2597,7.2597,7.1075,5.442,5.4965,5.5476,5.5547,5.5525,5.5674,0.0,0.0,5.7056,5.8505,5.8412,5.8417,5.9757,5.9454,5.9274,5.9982,6.067,6.1225,6.1224,6.1847,6.2579,6.3185,6.1941,6.1366,6.2178,6.2279,6.2584,6.3328,6.3396,6.37,6.4444,6.4478,6.4512,6.4613,6.5865,6.6576,6.6576,6.7996,6.8774,6.8842,6.8944,6.9011,6.9113,6.9113,6.9113,6.9147,6.9789,7.0432,7.1075,7.1075,7.1075,7.1075,7.1075,7.1075,7.0906,6.9586,6.9113,6.9113,6.9113,6.9113,6.9113,6.9113,6.9113,6.9113,6.9113,6.9113,6.9113,6.9113,7.006,7.1075,7.1075,7.2022,7.3003,7.3003,7.3071,7.3138,7.324,7.3308,7.3375,7.3477,7.4018,7.4492,7.4492,7.5033,7.5236,7.4593,7.4492,7.4728,7.5371,7.554,7.5574,7.5574,7.5642,7.5709,7.5709,7.5709,7.5709,7.5709,7.5709,7.5676,7.5574,7.5574,7.554,7.5473,7.5439,7.5134,7.4492,7.4492,7.4086,7.3375,7.3375,7.2124,5.6441,5.6826,0.0,0.0,5.7097,5.7262,5.8042,5.828,5.861,5.9676,6.0012,6.0498,6.1605,6.1552,6.1789,0.0,6.3035,6.2952,6.281,6.3512,6.3936,6.3833,6.3505,6.3336,6.3199,6.4027,6.4295,6.3543,6.4904,6.5607,6.5271,6.6211,6.6621,6.6508,6.7557,6.8132,6.8132,6.8774,6.9316,6.9722,6.9722,7.0195,7.1007,7.1007,7.1244,7.1684,7.1988,7.2293,7.2563,7.2563,7.2563,7.2563,7.2563,7.2563,7.2462,7.1413,7.1007,7.1075,7.1515,7.165,7.165,7.165,7.165,7.165,7.165,7.165,7.165,7.165,7.209,7.2563,7.2563,7.3037,7.3477,7.3477,7.3477,7.3612,7.4052,7.4153,7.4255,7.4695,7.5033,7.5236,7.5236,7.5506,7.5608,7.5303,7.5236,7.5337,7.5676,7.5709,7.5709,7.5709,7.5709,7.5709,7.5709,7.5709,7.5709,7.5709,7.5709,7.5709,7.5709,7.5709,7.5709,7.5709,7.5709,7.554,7.5236,7.5236,7.5067,7.4762,7.4762,7.4052,5.7886,0.0,0.0,5.84,5.8543,5.8842,5.9443,5.9748,6.0165,6.0909,6.1704,6.2548,6.3356,6.3491,6.3838,6.504,6.4874,6.4608,6.4571,6.5006,6.5303,6.5117,6.5372,6.5444,6.5128,6.5758,6.5757,6.4992,6.688,6.7688,6.6779,6.8073,6.8682,6.8199,6.8977,6.9417,6.9417,6.9823,7.0263,7.0804,7.1007,7.165,7.2699,7.2699,7.2969,7.3477,7.3477,7.3477,7.3477,7.3477,7.3477,7.3477,7.3477,7.3477,7.3443,7.3138,7.2868,7.2766,7.3308,7.3477,7.3477,7.3477,7.3477,7.3477,7.3477,7.3477,7.3477,7.3477,7.3646,7.3781,7.3781,7.395,7.4086,7.4086,7.4086,7.4255,7.4796,7.4897,7.5067,7.5608,7.5709,7.5709,7.5709,7.5709,7.5777,7.598,7.6014,7.5946,7.5743,7.5879,7.6115,7.6318,7.6318,7.6318,7.6318,7.6318,7.6318,7.6318,7.6318,7.6318,7.6318,7.6318,7.6251,7.6048,7.6014,7.5912,7.5709,7.5709,7.5709,7.5709,7.5709,7.5405,0.0,0.0,6.0162,5.9391,5.9758,6.0334,6.0382,6.097,6.1777,6.2585,6.3429,6.4273,6.5081,6.5212,6.5184,6.5077,6.5879,6.6373,6.6319,6.6307,6.6931,6.8586,6.8014,6.7786,0.0,6.7024,6.6698,6.8328,6.9247,6.9631,6.9298,7.006,7.0058,6.9045,6.9755,7.0161,7.0161,7.1582,7.2326,7.2326,7.3037,7.3409,7.3443,7.3443,7.3477,7.3477,7.3477,7.3477,7.3477,7.3477,7.3477,7.3477,7.3477,7.3477,7.3578,7.4289,7.4086,7.3443,7.3477,7.3477,7.3477,7.3477,7.3477,7.3477,7.3477,7.3477,7.3477,7.3477,7.4018,7.4593,7.4593,7.51,7.5642,7.5642,7.5642,7.5642,7.5676,7.5676,7.5676,7.5709,7.5709,7.5709,7.5709,7.5709,7.5946,7.6758,7.686,7.6589,7.5811,7.6386,7.713,7.7841,7.7908,7.7908,7.7908,7.7908,7.7908,7.7908,7.7908,7.7908,7.7908,7.7908,7.757,7.6893,7.686,7.6487,7.5709,7.5709,7.5709,7.5709,7.5709,7.5676,0.0,0.0,6.0456,6.075,6.141,6.2144,6.2732,6.3466,6.4127,6.442,6.4714,6.5154,6.5962,6.6109,6.6276,6.6738,6.7085,6.7232,6.721,6.771,6.8268,6.8741,6.9007,0.0,0.0,0.0,0.0,6.9388,7.1225,7.1713,7.0253,7.214,7.243,7.0622,7.1935,7.2551,7.236,7.2868,7.3105,7.3138,7.3883,7.4221,7.4255,7.4728,7.4965,7.4965,7.4965,7.4965,7.4965,7.4965,7.4965,7.4965,7.4965,7.4965,7.4999,7.5236,7.5168,7.4965,7.4965,7.4965,7.4965,7.4965,7.4965,7.4965,7.4965,7.4965,7.4965,7.4965,7.5134,7.5337,7.5337,7.5506,7.5709,7.5709,7.5709,7.5709,7.5709,7.5709,7.5709,7.5709,7.6115,7.6487,7.6487,7.6893,7.7299,7.757,7.7638,7.7536,7.7232,7.7435,7.7705,7.7942,7.7976,7.7976,7.7976,7.7976,7.7976,7.7976,7.7976,7.7976,7.7976,7.7976,7.7874,7.7638,7.7638,7.7502,7.7232,7.7232,7.6961,7.6487,7.6487,7.6217,6.0823,6.1263,6.1851,6.2365,6.3099,6.3833,6.4383,6.4934,6.5375,6.5668,6.5742,6.5962,6.6769,6.6916,6.71,6.7614,6.7944,6.811,6.8095,6.8804,6.9538,7.0096,7.052,7.1466,0.0,0.0,0.0,7.1693,7.3458,7.397,7.2564,7.4009,7.4421,7.3291,7.3516,7.3856,7.4048,7.3898,7.4018,7.4289,7.4762,7.4999,7.4999,7.5473,7.5709,7.5709,7.5709,7.5709,7.5709,7.5709,7.5709,7.5709,7.5709,7.5709,7.5709,7.5709,7.5709,7.5709,7.5709,7.5709,7.5709,7.5709,7.5709,7.5709,7.5709,7.5709,7.5709,7.5709,7.5709,7.5709,7.5709,7.5709,7.5709,7.5709,7.5709,7.5709,7.5709,7.5912,7.6115,7.6115,7.6758,7.7299,7.7299,7.7908,7.8382,7.8382,7.8619,7.8686,7.8416,7.8382,7.8483,7.8754,7.8788,7.8788,7.8788,7.8788,7.8788,7.8788,7.8788,7.8788,7.8788,7.8788,7.8653,7.8382,7.8382,7.8247,7.7976,7.7976,7.7739,7.7299,7.7299,7.7029,6.1741,6.2915,6.4163,6.42,6.4787,6.5375,6.5411,6.5411,6.5632,6.6402,6.6549,6.6769,0.0,0.0,6.7687,6.7687,6.8385,6.8898,6.8972,6.9706,7.0807,0.0,0.0,0.0,0.0,0.0,0.0,7.5102,0.0,7.6053,7.5891,7.5688,7.5945,7.6724,7.4861,7.4261,7.5273,7.4957,7.5093,7.5771,7.5709,7.5709,7.5771,7.5709,7.5709,7.5709,7.5709,7.5709,7.5709,7.5709,7.5709,7.5709,7.5709,7.5709,7.5709,7.5709,7.5709,7.5709,7.5709,7.5709,7.5709,7.5709,7.5709,7.5709,7.5709,7.5709,7.5709,7.5709,7.5709,7.5709,7.5709,7.5743,7.5743,7.5743,7.5777,7.5811,7.5811,7.642,7.6961,7.6961,7.7536,7.8044,7.8077,7.8686,7.916,7.916,7.9769,7.9938,7.9261,7.916,7.9431,8.0141,8.0209,8.0209,8.0209,8.0209,8.0209,8.0209,8.0209,8.0209,8.0209,8.0209,7.987,7.9194,7.916,7.8822,7.8111,7.8111,7.8077,7.8044,7.8044,7.801,6.3466,6.42,6.5154,6.5742,6.6035,6.6366,6.6953,6.71,6.7136,6.7357,6.7393,6.7467,0.0,0.0,0.0,6.7687,6.8385,0.0,6.9706,7.0991,0.0,0.0,0.0,7.4698,7.5689,7.635,0.0,0.0,7.7268,7.6893,7.6686,7.8,7.8348,7.7539,7.7731,7.7937,7.7978,7.7129,7.6755,7.6927,7.6114,7.6114,7.6837,7.602,7.5709,7.5709,7.5709,7.5709,7.5709,7.5709,7.5709,7.5709,7.5709,7.5709,7.5709,7.5709,7.5709,7.5709,7.5709,7.5709,7.5709,7.5709,7.5709,7.5709,7.5709,7.5709,7.5709,7.5709,7.5709,7.5709,7.5709,7.6149,7.6589,7.6589,7.6995,7.7401,7.7401,7.757,7.7705,7.7705,7.8314,7.8991,7.9532,7.9803,7.9938,7.9938,8.0073,8.0141,7.9938,7.9938,8.0006,8.0175,8.0209,8.0209,8.0209,8.0209,8.0209,8.0209,8.0209,8.0209,8.0209,8.0209,8.0107,7.9938,7.9938,7.9837,7.9634,7.9634,7.9363,7.8822,7.8822,7.8517,6.4934,6.5485,6.6035,6.6843,6.7026,6.7136,6.7577,6.7687,6.7687,6.7687,6.7687,0.0,0.0,0.0,0.0,0.0,0.0,0.0,7.0991,7.2239,7.345,0.0,7.5469,0.0,7.7121,7.7928,7.8589,0.0,7.8662,7.851,7.8784,7.936,7.9634,7.972,7.9425,7.9186,7.8983,7.8411,7.8077,7.8077,7.6927,7.7016,7.7992,7.6927,7.6416,7.6416,0.0,7.6114,7.5709,7.5709,7.5926,7.6358,7.5865,7.602,7.6358,7.5865,7.5912,7.6217,7.6217,7.642,7.6589,7.5912,7.5709,7.5777,7.6115,7.6217,7.6284,7.6623,7.669,7.669,7.669,7.7029,7.7367,7.7367,7.7705,7.7976,7.7976,7.8247,7.8585,7.8889,7.9295,7.9735,8.0141,8.0209,8.0209,8.0209,8.0209,8.0209,8.0209,8.0209,8.0209,8.0209,8.0209,8.0209,8.0209,8.0209,8.0209,8.0209,8.0209,8.0209,8.0209,8.0209,8.0209,8.0209,8.0209,8.0209,8.0209,8.0209,8.0006,7.96,7.96,7.9363,6.6072,6.6586,6.6843,6.7504,6.7687,6.7687,6.7687,6.7687,6.7687,6.7687,0.0,6.7687,6.7687,6.7687,6.7944,6.8788,0.0,7.066,7.2275,7.3266,7.4441,7.6056,7.6974,7.7818,7.8662,7.947,7.9947,7.9947,8.0057,8.0388,8.0975,8.0208,8.0503,8.2186,8.044,7.938,7.9222,7.9222,7.9222,7.9222,7.8077,7.8161,7.9143,7.8077,7.7389,7.7336,7.7336,7.6747,7.596,7.6062,7.6587,7.7421,7.6539,7.6758,7.7292,7.6326,7.6454,7.7029,7.7222,7.7629,7.7773,7.642,7.6014,7.6149,7.6826,7.7063,7.7164,7.7807,7.7976,7.7976,7.7976,7.8044,7.8145,7.8145,7.8213,7.828,7.828,7.8788,7.9431,8.0073,8.0209,8.0209,8.0209,8.0209,8.0209,8.0209,8.0276,8.0344,8.0344,8.0242,8.0242,8.0344,8.0344,8.0378,8.0479,8.0479,8.0479,8.0479,8.0412,8.0344,8.0344,8.0242,8.0209,8.0209,8.0209,8.0209,8.0209,8.0209,8.0209,8.0209,8.0209,8.0209,6.6256,6.699,6.7504,6.765,6.7687,6.7687,6.7687,6.7687,0.0,0.0,6.7687,6.7687,6.7687,6.7687,0.0,6.8788,0.0,0.0,0.0,0.0,7.5285,0.0,0.0,0.0,0.0,0.0,0.0,0.0,0.0,8.1562,8.1048,8.1469,8.1872,8.2186,8.1849,8.123,8.0366,8.0366,8.0366,8.0292,7.9222,7.9302,8.0292,7.9222,7.8161,7.7336,7.7336,0.0,7.7051,7.7796,7.8128,7.8376,7.8854,7.8519,7.7827,7.7668,7.7671,7.7968,7.8878,7.8734,7.7942,7.7671,7.757,7.7604,7.7773,7.7807,7.7841,7.7942,7.7976,7.7976,7.7976,7.845,7.8923,7.8923,7.9363,7.9803,7.9803,7.9904,8.004,8.0175,8.0209,8.0209,8.0209,8.0209,8.0209,8.0209,8.0716,8.1088,8.1088,8.0581,8.0412,8.1021,8.1088,8.1359,8.1968,8.2035,8.2035,8.2035,8.1426,8.1088,8.1088,8.0513,8.0209,8.0209,8.0209,8.0209,8.0209,8.0209,8.0209,8.0209,8.0209,8.0209,6.6769,6.7393,6.7687,6.7687,6.7687,6.7687,6.7687,0.0,0.0,0.0,6.7687,6.7687,6.7687,0.0,0.0,0.0,0.0,0.0,0.0,0.0,0.0,0.0,0.0,0.0,0.0,0.0,0.0,0.0,0.0,8.2039,8.1636,8.2003,8.2186,8.2186,8.2186,8.1952,8.1405,8.1405,8.1405,8.1405,8.0366,8.0366,8.1405,8.0366,7.975,7.963,7.963,0.0,7.9472,7.9858,8.0338,8.0789,8.0019,8.007,8.0473,7.9327,7.9476,8.0393,8.0981,8.1085,8.0836,8.0218,7.9104,7.8044,7.845,7.8585,7.8653,7.9025,7.9126,7.9126,7.9126,7.9397,7.9667,7.9667,7.9938,8.0209,8.0209,8.0209,8.0209,8.0209,8.0209,8.0209,8.0209,8.0513,8.075,8.075,8.1393,8.1866,8.1866,8.1562,8.1494,8.1832,8.1866,8.2035,8.2374,8.2408,8.2408,8.2408,8.2069,8.1866,8.1866,8.1528,8.1359,8.1359,8.0953,8.075,8.075,8.0378,8.0209,8.0209,8.0209,8.0209,6.7247,6.7687,6.7687,6.7687,6.7687,6.7687,6.7687,6.7687,0.0,0.0,6.7687,6.7687,6.7687,0.0,0.0,0.0,0.0,0.0,0.0,0.0,0.0,0.0,0.0,0.0,0.0,0.0,0.0,0.0,0.0,0.0,8.2186,8.2186,8.2186,8.2186,8.2186,8.2186,8.2186,8.2186,8.2186,8.2186,8.1481,8.166,8.2443,8.1736,8.1672,8.203,8.203,8.1978,0.0,8.1906,8.2457,8.311,8.1493,8.178,8.2942,8.1137,8.1436,8.2784,8.3034,8.3174,8.3103,8.2481,8.0647,7.891,7.9259,7.9363,7.9464,8.004,8.0209,8.0209,8.0209,8.0209,8.0209,8.0209,8.0209,8.0209,8.0209,8.0209,8.0209,8.0209,8.031,8.0445,8.0445,8.1054,8.1528,8.1528,8.2171,8.2644,8.2644,8.278,8.2881,8.2881,8.2746,8.2712,8.2881,8.2881,8.2881,8.2881,8.2746,8.2644,8.2644,8.2509,8.2408,8.2408,8.1832,8.1528,8.1528,8.0784,8.0445,8.0412,8.0276,8.0209,6.7247,6.7687,6.7687,6.7687,6.7687,6.7687,6.7687,0.0,0.0,6.7687,6.7687,6.7687,6.7687,6.8348,0.0,0.0,0.0,7.2973,0.0,0.0,0.0,0.0,0.0,0.0,0.0,0.0,0.0,0.0,0.0,0.0,8.2186,8.2186,8.2186,8.2186,8.2186,8.2186,8.2186,8.2186,8.2186,8.2223,8.2854,8.3221,8.3324,8.3955,8.3767,8.2899,8.2899,8.286,0.0,8.3651,8.3939,8.4087,8.4541,8.4318,8.3577,8.3323,8.3359,8.3684,8.4665,8.3684,8.2244,8.3191,8.2556,8.1362,8.0406,8.0107,8.0107,8.0175,8.0209,8.0209,8.0209,8.0209,8.0209,8.0209,8.0209,8.0209,8.0209,8.0209,8.0209,8.0209,8.0716,8.119,8.119,8.1799,8.2306,8.2306,8.2915,8.3389,8.3389,8.3998,8.4437,8.4437,8.3795,8.3659,8.437,8.4437,8.4437,8.4437,8.3761,8.3389,8.3389,8.278,8.2408,8.2408,8.234,8.2306,8.2306,8.1562,8.119,8.1156,8.0513,8.0209,6.7247,6.7687,6.7687,6.7687,6.7687,6.7687,6.7687,0.0,6.7687,6.7687,6.7687,6.7687,6.7687,6.8752,6.9743,0.0,0.0,0.0,0.0,0.0,0.0,0.0,0.0,0.0,0.0,0.0,0.0,0.0,0.0,0.0,8.2186,8.2186,8.2186,8.2186,8.2186,8.2443,8.292,8.292,8.3177,8.3654,8.3985,8.4132,8.4132,8.4462,8.4625,8.4713,8.4713,8.4934,0.0,8.5736,8.5845,8.581,8.5435,8.5468,8.5544,8.4888,8.5045,8.5731,8.6174,8.5278,8.3922,8.3706,8.2839,8.1723,8.0542,8.0209,8.0209,8.0209,8.0209,8.0209,8.0209,8.0209,8.0209,8.0209,8.0209,8.0209,8.0209,8.0547,8.0851,8.0851,8.146,8.1968,8.1968,8.2577,8.305,8.305,8.3693,8.4167,8.4167,8.4437,8.464,8.464,8.437,8.4302,8.4606,8.464,8.464,8.464,8.4336,8.4167,8.4167,8.3896,8.3727,8.3727,8.3287,8.305,8.305,8.2306,8.1731,8.1291,8.0987,8.0615,6.6953,6.7504,6.7687,6.7687,6.7687,6.7687,0.0,0.0,6.7687,6.7687,6.7687,6.7687,6.7687,6.9009,7.011,7.011,7.2312,7.4258,7.4845,0.0,0.0,0.0,0.0,0.0,0.0,0.0,0.0,0.0,0.0,0.0,8.2186,8.2443,8.2553,8.2553,8.2553,8.2957,8.3765,8.3765,8.4058,8.4609,8.4829,8.4939,8.4976,8.5196,8.5637,8.6151,8.6151,8.6481,0.0,8.6995,8.6995,8.6925,8.6138,8.632,8.6925,8.6064,8.632,8.6995,8.6995,8.6064,8.4693,8.3874,8.2839,8.1723,8.0966,8.0442,8.0209,8.0209,8.0209,8.0209,8.0209,8.0344,8.0513,8.0513,8.0682,8.0851,8.0851,8.1257,8.1629,8.1629,8.2205,8.2746,8.2746,8.3355,8.3828,8.3828,8.4302,8.464,8.464,8.464,8.464,8.464,8.464,8.464,8.464,8.464,8.464,8.464,8.464,8.464,8.464,8.464,8.464,8.464,8.4099,8.3828,8.3828,8.3084,8.2475,8.1934,8.1731,8.1224,6.6292,6.71,6.7687,6.7687,6.7687,6.7687,0.0,0.0,6.7687,6.7687,6.7687,6.7687,6.7687,6.9009,7.011,7.011,7.2789,7.4918,7.4918,7.7708,0.0,0.0,0.0,0.0,0.0,0.0,0.0,0.0,0.0,0.0,8.2186,8.2957,8.3398,8.3398,8.3398,8.3765,8.4572,8.4609,8.4609,8.4609,8.5416,8.5783,8.582,8.6628,8.6995,8.6995,8.6995,8.6995,0.0,8.6995,8.6995,8.6995,8.6995,8.6995,8.6995,8.6995,8.6995,8.6995,8.6995,8.5504,8.3621,8.3585,8.2839,8.1875,8.1875,8.1125,8.0209,8.0209,8.0209,8.0209,8.0209,8.075,8.1257,8.1257,8.1832,8.2408,8.2408,8.2408,8.2408,8.2408,8.2983,8.349,8.349,8.4099,8.4606,8.4606,8.464,8.464,8.464,8.464,8.464,8.464,8.464,8.464,8.464,8.464,8.464,8.464,8.464,8.464,8.464,8.464,8.464,8.464,8.4606,8.4606,8.4606,8.3862,8.349,8.3456,8.2746,8.2002,6.6292,6.71,6.7687,6.7687,6.7687,6.7687,6.7687,0.0,6.7687,6.7687,6.7687,6.7687,6.7687,6.9009,7.011,7.011,7.2789,7.4918,7.4918,0.0,0.0,0.0,0.0,0.0,0.0,0.0,0.0,0.0,0.0,0.0,8.2994,8.3287,8.3398,8.3398,8.3948,8.4609,8.5416,8.5416,8.571,8.6261,8.6518,8.6628,8.6628,8.6885,8.6995,8.6995,8.6995,8.6995,8.6995,8.6995,8.6995,8.6995,8.6995,8.6995,8.6995,8.6995,8.6995,8.6995,8.6995,8.5991,8.4773,8.4773,8.4006,8.3103,8.3103,8.2839,8.2335,8.1569,8.1757,8.188,8.1122,8.1494,8.2069,8.2069,8.2238,8.2408,8.2408,8.2813,8.3152,8.3152,8.3761,8.4268,8.4268,8.4471,8.464,8.464,8.464,8.464,8.464,8.464,8.464,8.464,8.464,8.464,8.464,8.464,8.464,8.464,8.464,8.464,8.464,8.464,8.464,8.464,8.464,8.464,8.464,8.4403,8.3998,8.349,8.2746,8.2272,0.0,6.6843,6.7687,6.7687,6.7687,0.0,0.0,0.0,0.0,6.7687,6.7687,6.7797,6.8091,6.9229,7.0183,7.0513,7.301,7.4918,7.4918,0.0,0.0,0.0,0.0,0.0,0.0,0.0,0.0,0.0,0.0,0.0,8.3801,8.4132,8.4315,8.4315,8.4792,8.5453,8.6224,8.6261,8.6518,8.6995,8.6995,8.6995,8.6995,8.6995,8.6995,8.6995,8.6995,8.6995,0.0,8.6995,8.6995,8.6995,8.6995,8.6995,8.6995,8.6995,8.6995,8.6995,8.6995,8.6247,8.5278,8.5278,8.4773,8.4406,8.5132,8.4717,8.3874,8.3171,8.3218,8.3279,8.257,8.2616,8.2813,8.2813,8.305,8.3253,8.3253,8.3592,8.393,8.393,8.4302,8.464,8.464,8.464,8.464,8.464,8.464,8.464,8.464,8.464,8.464,8.464,8.464,8.464,8.464,8.464,8.464,8.464,8.464,8.464,8.464,8.464,8.464,8.464,8.464,8.464,8.464,8.464,8.437,8.3896,8.3152,8.2813,0.0,6.6476,0.0,0.0,0.0,0.0,0.0,0.0,0.0,0.0,0.0,0.0,6.8752,6.9559,7.0367,7.1248,7.3377,7.4955,7.5065,0.0,0.0,0.0,0.0,0.0,0.0,0.0,0.0,0.0,0.0,0.0,8.4646,8.538,8.582,8.5857,8.5894,8.6224,8.6995,8.6995,8.6995,8.6995,8.6995,8.6995,8.6995,8.6995,8.6995,0.0,8.6995,8.6995,0.0,8.6995,8.6995,8.6995,8.6995,8.6995,8.6995,8.6995,8.6995,8.6995,8.6995,8.632,8.5468,8.5468,8.5504,8.5837,8.763,8.6738,8.5011,8.4996,8.4683,8.4422,8.4327,8.3905,8.3592,8.3592,8.4099,8.464,8.464,8.464,8.464,8.464,8.464,8.464,8.464,8.464,8.464,8.464,8.464,8.464,8.464,8.464,8.464,8.464,8.464,8.464,8.464,8.464,8.464,8.464,8.464,8.464,8.464,8.464,8.464,8.464,8.464,8.464,8.464,8.464,8.464,8.4606,8.3896,8.3592,6.5301,0.0,6.7687,6.7687,6.7687,0.0,0.0,0.0,0.0,0.0,0.0,0.0,0.0,6.9559,7.055,7.1982,7.3744,7.5359,7.657,0.0,0.0,0.0,0.0,0.0,0.0,0.0,0.0,0.0,0.0,8.4022,8.5416,8.571,8.6077,8.6701,8.6738,8.6811,8.6995,8.6995,8.6995,8.6995,8.6995,8.6995,8.6995,8.6995,8.6995,8.6995,8.6995,8.6995,8.6995,8.6995,8.6995,8.6995,8.6995,8.6995,8.6995,8.6995,8.6995,8.6995,8.6995,8.6819,8.6571,8.6571,8.701,8.7593,8.8062,8.7849,8.7374,8.7112,8.6724,8.6179,8.5281,8.4693,8.437,8.437,8.4505,8.464,8.464,8.464,8.464,8.464,8.464,8.464,8.464,8.464,8.464,8.464,8.464,8.464,8.464,8.464,8.464,8.464,8.464,8.464,8.464,8.464,8.464,8.464,8.464,8.464,8.464,8.464,8.464,8.464,8.464,8.464,8.464,8.464,8.464,8.464,8.4437,8.437,6.5301,6.6476,6.7687,6.7687,6.7687,6.7687,0.0,0.0,0.0,0.0,0.0,0.0,0.0,0.0,0.0,7.2716,7.4111,7.5726,0.0,0.0,0.0,0.0,0.0,0.0,0.0,0.0,0.0,0.0,0.0,8.5049,8.6297,8.6334,8.6554,8.6995,8.6995,8.6995,8.6995,8.6995,8.6995,8.6995,8.6995,8.6995,8.6995,8.6995,8.6995,8.6995,8.6995,8.6995,8.6995,8.6995,8.6995,8.6995,8.6995,8.6995,8.6995,8.6995,8.6995,8.6995,8.6995,8.6995,8.7068,8.7435,8.7839,8.8353,8.9087,8.9307,8.9238,8.9053,8.8336,8.7442,8.6802,8.5577,8.464,8.464,8.464,8.464,8.464,8.464,8.464,8.464,8.464,8.464,8.464,8.464,8.464,8.464,8.464,8.464,8.464,8.464,8.464,8.464,8.464,8.464,8.464,8.464,8.464,8.464,8.464,8.464,8.464,8.464,8.464,8.464,8.464,8.464,8.464,8.464,8.464,8.464,8.464,8.464,6.5301,6.6476,6.7687,6.7687,6.7687,6.7687,0.0,0.0,0.0,0.0,0.0,0.0,0.0,0.0,0.0,0.0,0.0,0.0,0.0,0.0,0.0,0.0,0.0,0.0,0.0,0.0,0.0,0.0,0.0,8.6151,8.6958,8.6995,8.6995,8.6995,8.6995,8.6995,8.6995,8.6995,8.6995,8.6995,8.6995,8.6995,8.6995,8.6995,8.6995,8.6995,0.0,0.0,8.6995,8.6995,8.6995,8.6995,8.6995,8.6995,8.6995,8.6995,8.6995,8.6995,8.6995,8.7105,8.7325,8.7986,8.8353,8.883,9.0188,9.0702,9.0776,9.0776,8.9617,8.8259,8.8223,8.6414,8.464,8.464,8.464,8.464,8.464,8.464,8.464,8.464,8.464,8.464,8.464,8.464,8.464,8.464,8.464,8.464,8.464,8.464,8.464,8.464,8.464,8.464,8.464,8.464,8.464,8.464,8.464,8.464,8.464,8.464,8.464,8.464,8.464,8.464,8.464,8.464,8.464,8.464,8.464,8.464,6.5301,6.6476,6.7687,6.7687,6.7687,6.7687,0.0,0.0,0.0,0.0,0.0,0.0,0.0,0.0,0.0,0.0,0.0,0.0,0.0,0.0,0.0,0.0,0.0,0.0,0.0,0.0,0.0,0.0,0.0,8.6151,8.6958,8.6995,8.6995,8.6995,8.6995,8.6995,8.6995,8.6995,8.6995,8.6995,8.6995,8.6995,8.6995,8.6995,8.6995,8.6995,0.0,8.6995,8.6995,8.6995,8.6995,8.6995,8.6995,8.6995,8.6995,8.6995,8.6995,8.6995,8.6995,8.7472,8.8059,8.8169,8.9124,9.0298,9.0519,9.1069,9.162,9.162,9.0015,8.8223,8.8223,8.6414,8.464,8.464,8.464,8.464,8.464,8.464,8.464,8.464,8.464,8.464,8.464,8.464,8.464,8.464,8.464,8.464,8.464,8.464,8.464,8.464,8.464,8.464,8.464,8.464,8.464,8.464,8.464,8.464,8.464,8.464,8.464,8.464,8.464,8.464,8.464,8.464,8.464,8.464,8.464,8.464,6.5301,6.6476,6.7687,6.7687,6.7687,6.7687,0.0,0.0,0.0,0.0,0.0,0.0,0.0,0.0,0.0,0.0,0.0,0.0,0.0,0.0,0.0,0.0,0.0,0.0,0.0,0.0,0.0,0.0,0.0,0.0,8.6995,8.6995,8.6995,8.6995,8.6995,8.6995,8.6995,8.6995,8.6995,8.6995,8.6995,8.6995,8.6995,8.6995,8.6995,8.6995,0.0,8.6995,8.6995,8.6995,8.6995,8.6995,8.6995,8.6995,8.6995,8.6995,8.6995,8.7068,8.7509,8.7876,8.8353,8.9197,9.0005,9.0702,9.1106,9.151,9.1803,9.1803,9.0559,8.9014,8.8402,8.6865,8.5447,8.4819,8.464,8.464,8.464,8.464,8.464,8.464,8.464,8.464,8.464,8.464,8.464,8.464,8.464,8.464,8.464,8.464,8.464,8.464,8.464,8.464,8.464,8.464,8.464,8.464,8.464,8.464,8.464,8.464,8.464,8.464,8.464,8.464,8.464,8.464,8.464,8.464,8.464,8.464,6.5301,6.6476,6.7687,6.7687,0.0,0.0,0.0,0.0,0.0,0.0,0.0,0.0,0.0,0.0,0.0,0.0,0.0,0.0,0.0,0.0,0.0,0.0,0.0,0.0,0.0,0.0,0.0,0.0,0.0,0.0,8.6995,8.6995,8.6995,8.6995,8.6995,8.6995,8.6995,8.6995,8.6995,8.6995,8.6995,8.6995,8.6995,8.6995,8.6995,8.6995,8.6995,8.6995,8.6995,8.6995,8.6995,8.6995,8.6995,8.6995,8.6995,8.6995,8.6995,8.7142,8.7912,8.8316,8.872,9.0152,9.0739,9.0996,9.162,9.1803,9.1803,9.1803,9.1173,9.0168,8.8928,8.7769,8.661,8.5719,8.5447,8.5344,8.5066,8.4961,8.4995,8.4606,8.464,8.464,8.464,8.464,8.464,8.464,8.464,8.464,8.464,8.464,8.464,8.464,8.464,8.464,8.464,8.464,8.464,8.464,8.464,8.464,8.464,8.464,8.464,8.464,8.464,8.464,8.464,8.464,8.464,8.464,8.464,8.464,6.5301,6.6476,6.7687,0.0,0.0,0.0,0.0,0.0,0.0,0.0,0.0,0.0,0.0,0.0,0.0,0.0,0.0,0.0,0.0,0.0,0.0,0.0,0.0,0.0,0.0,0.0,0.0,0.0,0.0,0.0,8.6995,8.6995,8.6995,8.6995,8.6995,8.6995,8.6995,8.6995,8.6995,8.6995,8.6995,8.6995,8.6995,8.6995,8.6995,8.6995,8.6995,8.6995,8.6995,8.6995,8.6995,8.6995,8.6995,8.6995,8.6995,8.6995,8.6995,8.7142,8.7912,8.8683,8.9491,9.0335,9.1106,9.173,9.1767,9.1803,9.1803,9.1803,9.173,9.1435,9.0168,8.8928,8.8043,8.7952,8.7952,8.7585,8.6512,8.6217,8.5953,8.4785,8.464,8.464,8.464,8.464,8.464,8.464,8.464,8.464,8.464,8.464,8.464,8.464,8.464,8.464,8.464,8.464,8.464,8.464,8.464,8.464,8.464,8.464,8.464,8.464,8.464,8.464,8.464,8.464,8.464,8.464,8.464,8.464,6.5925,6.6843,0.0,0.0,0.0,0.0,0.0,0.0,0.0,0.0,0.0,0.0,0.0,0.0,0.0,0.0,0.0,0.0,0.0,0.0,0.0,0.0,0.0,0.0,0.0,0.0,0.0,0.0,0.0,0.0,8.6995,8.6995,8.6995,8.6995,8.6995,8.6995,8.6995,8.6995,8.6995,8.6995,8.6995,8.6995,8.6995,8.6995,8.6995,8.6995,8.6995,8.6995,8.6995,8.6995,8.6995,8.6995,8.6995,8.6995,8.6995,8.6995,8.7325,8.7876,8.8683,8.9491,9.0298,9.1069,9.1546,9.1803,9.1803,9.1803,9.1803,9.1803,9.1803,9.1509,9.0284,8.9641,8.91,8.8402,8.8223,8.8043,8.7585,8.6961,8.6217,8.5786,8.5066,8.464,8.464,8.464,8.464,8.464,8.464,8.464,8.464,8.464,8.464,8.464,8.464,8.464,8.464,8.464,8.464,8.464,8.464,8.464,8.464,8.464,8.464,8.464,8.464,8.464,8.464,8.464,8.464,8.464,8.464,8.464,6.6292,6.71,0.0,0.0,0.0,0.0,0.0,0.0,0.0,0.0,0.0,0.0,0.0,0.0,0.0,0.0,0.0,0.0,0.0,0.0,0.0,0.0,0.0,0.0,0.0,0.0,0.0,0.0,0.0,0.0,0.0,8.6995,8.6995,8.6995,8.6995,8.6995,8.6995,8.6995,8.6995,8.6995,8.6995,8.6995,8.6995,8.6995,8.6995,8.6995,8.6995,8.6995,8.6995,8.6995,8.6995,8.6995,8.6995,8.6995,8.7031,8.7288,8.7729,8.8353,8.9417,9.0152,9.0739,9.1546,9.1803,9.1803,9.1803,9.1803,9.1803,9.1803,9.1803,9.162,9.0793,9.0559,9.0364,8.9558,8.9306,8.9221,8.8841,8.7861,8.6865,8.6512,8.5412,8.464,8.464,8.464,8.464,8.464,8.464,8.464,8.464,8.464,8.464,8.464,8.464,8.464,8.464,8.464,8.464,8.464,8.464,8.464,8.464,8.464,8.464,8.464,8.464,8.464,8.464,8.464,8.464,8.464,8.464,8.464,6.6292,6.71,0.0,0.0,0.0,0.0,0.0,0.0,0.0,0.0,0.0,0.0,0.0,0.0,0.0,0.0,0.0,0.0,0.0,0.0,0.0,0.0,0.0,0.0,0.0,0.0,0.0,0.0,0.0,0.0,0.0,8.6995,8.6995,8.6995,8.6995,8.6995,8.6995,8.6995,8.6995,8.6995,8.6995,8.6995,8.6995,8.6995,8.6995,8.6995,8.6995,8.6995,8.6995,8.6995,8.6995,8.6995,8.6995,8.6995,8.7105,8.7912,8.8206,8.8426,9.0041,9.0629,9.0739,9.1546,9.1803,9.1803,9.1803,9.1803,9.1803,9.1803,9.1803,9.1803,9.1803,9.1803,9.1803,9.1803,9.1803,9.1435,9.0284,8.9135,8.7896,8.6672,8.5412,8.4606,8.464,8.464,8.464,8.464,8.464,8.464,8.464,8.464,8.464,8.464,8.464,8.464,8.464,8.464,8.464,8.464,8.464,8.464,8.464,8.464,8.464,8.464,8.464,8.464,8.464,8.464,8.464,8.464,8.464,8.464,6.6953,0.0,0.0,0.0,0.0,0.0,0.0,0.0,0.0,0.0,0.0,0.0,0.0,0.0,0.0,0.0,0.0,0.0,0.0,0.0,0.0,0.0,0.0,0.0,0.0,0.0,0.0,0.0,0.0,0.0,0.0,8.6995,8.6995,8.6995,8.6995,8.6995,8.6995,8.6995,8.6995,8.6995,8.6995,8.6995,8.6995,8.6995,8.6995,8.6995,8.6995,8.6995,8.6995,8.6995,8.6995,8.6995,8.6995,8.6995,8.7105,8.7912,8.8573,8.9197,9.0262,9.0959,9.1473,9.173,9.1803,9.1803,9.1803,9.1803,9.1803,9.1803,9.1803,9.1803,9.1803,9.1803,9.1803,9.1803,9.1803,9.1694,9.136,9.0364,8.9135,8.7861,8.6672,8.5617,8.4713,8.464,8.464,8.464,8.464,8.464,8.464,8.464,8.464,8.464,8.464,8.464,8.464,8.464,8.464,8.464,8.464,8.464,8.464,8.464,8.464,8.464,8.464,8.464,8.464,8.464,8.464,8.464,8.464,8.464,6.7357,0.0,0.0,0.0,0.0,0.0,0.0,0.0,0.0,0.0,0.0,0.0,0.0,0.0,0.0,0.0,0.0,0.0,0.0,0.0,0.0,0.0,0.0,0.0,0.0,0.0,0.0,0.0,0.0,0.0,0.0,8.6995,8.6995,8.6995,8.6995,8.6995,8.6995,8.6995,8.6995,8.6995,8.6995,8.6995,8.6995,8.6995,8.6995,8.6995,8.6995,8.6995,8.6995,8.6995,8.6995,8.6995,8.6995,8.7215,8.7582,8.839,8.9197,9.0005,9.0812,9.14,9.1803,9.1803,9.1803,9.1803,9.1803,9.1803,9.1803,9.1803,9.1803,9.1803,9.1803,9.1803,9.1803,9.1803,9.1803,9.1803,9.1803,9.083,8.9641,8.8402,8.7246,8.6053,8.4785,8.464,8.464,8.464,8.464,8.464,8.464,8.464,8.464,8.464,8.464,8.464,8.464,8.464,8.464,8.464,8.464,8.464,8.464,8.464,8.464,8.464,8.464,8.464,8.464,8.464,8.464,8.464,8.464,8.464,0.0,0.0,0.0,0.0,0.0,0.0,0.0,0.0,0.0,0.0,0.0,0.0,0.0,0.0,0.0,0.0,0.0,0.0,0.0,0.0,0.0,0.0,0.0,0.0,0.0,0.0,0.0,0.0,0.0,0.0,0.0,8.6995,8.6995,8.6995,8.6995,8.6995,8.6995,8.6995,8.6995,8.6995,8.6995,8.6995,8.6995,8.6995,8.6995,8.6995,8.6995,8.6995,8.6995,8.6995,8.6995,8.7031,8.7105,8.7582,8.8316,8.9197,8.9968,9.0739,9.151,9.1803,9.1803,9.1803,9.1803,9.1803,9.1803,9.1803,9.1803,9.1803,9.1803,9.1803,9.1803,9.1803,9.1803,9.1803,9.1803,9.1803,9.1803,9.0907,8.9842,8.8579,8.7398,8.6152,8.4995,8.4713,8.464,8.464,8.464,8.464,8.464,8.464,8.464,8.464,8.464,8.464,8.464,8.464,8.464,8.464,8.464,8.464,8.464,8.464,8.464,8.464,8.464,8.464,8.464,8.464,8.464,8.464,8.464,8.464,0.0,0.0,0.0,0.0,0.0,0.0,0.0,0.0,0.0,0.0,0.0,0.0,0.0,0.0,0.0,0.0,0.0,0.0,0.0,0.0,0.0,0.0,0.0,0.0,0.0,0.0,0.0,0.0,0.0,0.0,8.6995,8.6995,8.6995,8.6995,8.6995,8.6995,8.6995,8.6995,8.6995,0.0,8.6995,8.6995,8.6995,8.6995,8.6995,8.6995,8.6995,8.6995,8.6995,8.6995,8.6995,8.7068,8.7692,8.8059,8.839,8.9821,9.0445,9.0739,9.151,9.1803,9.1803,9.1803,9.1803,9.1803,9.1803,9.1803,9.1803,9.1803,9.1803,9.1803,9.1803,9.1803,9.1803,9.1803,9.1803,9.1803,9.1803,9.162,9.106,8.9842,8.8667,8.7398,8.6252,8.524,8.464,8.464,8.464,8.464,8.464,8.464,8.464,8.464,8.464,8.464,8.464,8.464,8.464,8.464,8.464,8.464,8.464,8.464,8.464,8.464,8.464,8.464,8.464,8.464,8.464,8.464,8.464,8.464,0.0,0.0,0.0,0.0,0.0,0.0,0.0,0.0,0.0,0.0,0.0,0.0,0.0,0.0,0.0,0.0,0.0,0.0,0.0,0.0,0.0,0.0,0.0,0.0,0.0,0.0,0.0,0.0,0.0,8.6995,8.6995,8.6995,8.6995,8.6995,8.6995,8.6995,8.6995,8.6995,8.6995,8.6995,8.7399,8.7802,8.8133,8.7362,8.7215,8.7545,8.7178,8.6995,8.6995,8.6995,8.7252,8.7619,8.8059,8.8683,8.9454,9.0298,9.0849,9.1216,9.1657,9.1803,9.1803,9.1803,9.1803,9.1803,9.1803,9.1803,9.1803,9.1803,9.1803,9.1803,9.1803,9.1803,9.1803,9.1803,9.1803,9.1803,9.1803,9.1803,9.1435,9.0284,8.9474,8.8491,8.6672,8.5447,8.464,8.464,8.464,8.464,8.464,8.464,8.464,8.464,8.464,8.464,8.464,8.464,8.464,8.464,8.464,8.464,8.464,8.464,8.464,8.464,8.464,8.464,8.464,8.464,8.464,8.464,8.464,8.464,0.0,0.0,0.0,0.0,0.0,0.0,0.0,0.0,0.0,0.0,0.0,0.0,0.0,0.0,0.0,0.0,0.0,0.0,0.0,0.0,0.0,0.0,0.0,0.0,0.0,0.0,0.0,0.0,0.0,8.6995,8.6995,8.6995,8.6995,8.6995,8.6995,8.6995,8.6995,8.6995,8.7068,8.7215,8.8023,8.883,8.9564,8.8096,8.7802,8.839,8.7692,8.7435,8.7435,8.7435,8.7802,8.8426,8.8573,8.9417,9.0629,9.0776,9.1216,9.1803,9.1803,9.1803,9.1803,9.1803,9.1803,9.1803,9.1803,9.1803,9.1803,9.1803,9.1803,9.1803,9.1803,9.1803,9.1803,9.1803,9.1803,9.1803,9.1803,9.1803,9.1509,9.0522,9.0006,8.9014,8.6769,8.5447,8.464,8.464,8.464,8.464,8.464,8.464,8.464,8.464,8.464,8.464,8.464,8.464,8.464,8.464,8.464,8.464,8.464,8.464,8.464,8.464,8.464,8.464,8.464,8.464,8.464,8.464,8.464,8.464,0.0,0.0,0.0,0.0,0.0,0.0,0.0,0.0,0.0,0.0,0.0,0.0,0.0,0.0,0.0,0.0,0.0,0.0,0.0,0.0,0.0,0.0,0.0,0.0,0.0,0.0,0.0,0.0,8.6995,8.6995,8.6995,8.6995,8.6995,8.6995,8.6995,8.6995,8.6995,8.6995,8.7362,8.8059,8.8867,8.9674,9.0408,8.9528,8.916,8.9234,8.916,8.9087,8.9087,8.9087,8.916,8.9344,9.0005,9.0408,9.0702,9.1363,9.1693,9.1803,9.1803,9.1803,9.1803,9.1803,9.1803,9.1803,9.1803,9.1803,9.1803,9.1803,9.1803,9.1803,9.1803,9.1803,9.1803,9.1803,9.1803,9.1803,9.1803,9.1803,9.1767,9.162,8.9842,8.8043,8.6672,8.5447,8.464,8.464,8.464,8.464,8.464,8.464,8.464,8.464,8.464,8.464,8.464,8.464,8.464,8.464,8.464,8.464,8.464,8.464,8.464,8.464,8.464,8.464,8.464,8.464,8.464,8.464,8.464,8.464,0.0,0.0,0.0,0.0,0.0,0.0,0.0,0.0,0.0,0.0,0.0,0.0,0.0,0.0,0.0,0.0,0.0,0.0,0.0,0.0,0.0,0.0,0.0,0.0,0.0,0.0,0.0,0.0,8.6995,8.6995,8.6995,8.6995,8.6995,8.6995,8.6995,8.6995,8.6995,8.6995,8.7655,8.8904,8.9711,9.0482,9.1253,9.0922,9.0519,9.0078,8.9601,8.9417,8.9417,8.9417,8.9674,9.0115,9.0482,9.0886,9.1326,9.1657,9.1803,9.1803,9.1803,9.1803,9.1803,9.1803,9.1803,9.1803,9.1803,9.1803,9.1803,9.1803,9.1803,9.1803,9.1803,9.1803,9.1803,9.1803,9.1803,9.1803,9.1803,9.1803,9.1803,9.1803,9.0364,8.8841,8.7585,8.6414,8.5344,8.4713,8.464,8.464,8.464,8.464,8.464,8.464,8.464,8.464,8.464,8.464,8.464,8.464,8.464,8.464,8.464,8.464,8.464,8.464,8.464,8.464,8.464,8.464,8.464,8.464,8.464,8.464,0.0,0.0,0.0,0.0,0.0,0.0,0.0,0.0,0.0,0.0,0.0,0.0,0.0,0.0,0.0,0.0,0.0,0.0,0.0,0.0,0.0,0.0,0.0,0.0,0.0,0.0,0.0,0.0,8.6995,8.6995,8.6995,8.6995,8.6995,8.6995,8.6995,8.6995,8.6995,8.7435,8.8206,8.9417,9.0445,9.1216,9.1803,9.1803,9.1473,9.0886,9.0298,9.0005,9.0005,9.0005,9.0372,9.0922,9.0922,9.1253,9.1803,9.1803,9.1803,9.1803,9.1803,9.1803,9.1803,9.1803,9.1803,9.1803,9.1803,9.1803,9.1803,9.1803,9.1803,9.1803,9.1803,9.1803,9.1803,9.1803,9.1803,9.1803,9.1803,9.1803,9.1803,9.1803,9.083,8.9724,8.8841,8.7398,8.6053,8.5136,8.4785,8.464,8.464,8.464,8.464,8.464,8.464,8.464,8.464,8.464,8.464,8.464,8.464,8.464,8.464,8.464,8.464,8.464,8.464,8.464,8.464,8.464,8.464,8.464,8.464,8.464,0.0,0.0,0.0,0.0,0.0,0.0,0.0,0.0,0.0,0.0,0.0,0.0,0.0,0.0,0.0,0.0,0.0,0.0,0.0,0.0,0.0,0.0,0.0,0.0,8.4609,8.6077,8.6995,8.6995,8.6995,8.6995,8.6995,8.6995,8.6995,8.6995,8.6995,8.6995,8.6995,8.8536,8.9344,8.9454,9.0996,9.1767,9.1803,9.1803,9.1767,9.173,9.1693,9.1693,9.1693,9.1693,9.1693,9.173,9.173,9.1767,9.1803,9.1803,9.1803,9.1803,9.1803,9.1803,9.1803,9.1803,9.1803,9.1803,9.1803,9.1803,9.1803,9.1803,9.1803,9.1803,9.1803,9.1803,9.1803,9.1803,9.1803,9.1803,9.1803,9.1803,9.1803,9.1803,9.083,9.0006,8.9924,8.7952,8.6414,8.6316,8.5344,8.464,8.464,8.464,8.464,8.464,8.464,8.464,8.464,8.464,8.464,8.464,8.464,8.464,8.464,8.464,8.464,8.464,8.464,8.464,8.464,8.464,8.464,8.464,8.464,8.464,0.0,0.0,0.0,0.0,0.0,0.0,0.0,0.0,0.0,0.0,0.0,0.0,0.0,0.0,0.0,0.0,0.0,0.0,0.0,0.0,8.2186,8.2186,8.3177,8.4022,8.4535,8.56,8.6444,8.6958,8.6995,8.6995,8.6995,8.6995,8.6995,8.6995,8.6995,8.6995,8.6995,8.8096,8.8904,8.9417,9.0519,9.1289,9.1803,9.1803,9.1803,9.1803,9.1803,9.1803,9.1803,9.1803,9.1803,9.1803,9.1803,9.1803,9.1803,9.1803,9.1803,9.1803,9.1803,9.1803,9.1803,9.1803,9.1803,9.1803,9.1803,9.1803,9.1803,9.1803,9.1803,9.1803,9.1803,9.1803,9.1803,9.1803,9.1803,9.1803,9.1803,9.1803,9.1803,9.1803,9.1435,9.0907,9.0087,8.9306,8.8259,8.6672,8.6053,8.5515,8.4713,8.464,8.464,8.464,8.464,8.464,8.464,8.464,8.464,8.464,8.464,8.464,8.464,8.464,8.464,8.464,8.464,8.464,8.464,8.464,8.464,8.464,8.464,8.464,0.0,0.0,0.0,0.0,0.0,0.0,0.0,0.0,0.0,0.0,0.0,0.0,0.0,0.0,0.0,0.0,0.0,8.2186,8.2186,8.2186,8.2186,8.2186,8.292,8.3728,8.4535,8.5306,8.6114,8.6958,8.6995,0.0,8.6995,8.6995,8.6995,8.6995,8.6995,8.6995,8.6995,8.7802,8.8463,8.9014,9.0115,9.0886,9.14,9.1693,9.1803,9.1803,9.1803,9.1803,9.1803,9.1803,9.1803,9.1803,9.1803,9.1803,9.1803,9.1803,9.1803,9.1803,9.1803,9.1803,9.1803,9.1803,9.1803,9.1803,9.1803,9.1803,9.1803,9.1803,9.1803,9.1803,9.1803,9.1803,9.1803,9.1803,9.1803,9.1803,9.1803,9.1803,9.1803,9.1803,9.1803,9.1546,9.0716,9.032,8.9342,8.7305,8.6672,8.5953,8.4819,8.464,8.464,8.464,8.464,8.464,8.464,8.464,8.464,8.464,8.464,8.464,8.464,8.464,8.464,8.464,8.464,8.464,8.464,8.464,8.464,8.464,8.464,8.464,0.0,0.0,0.0,0.0,0.0,0.0,0.0,0.0,0.0,0.0,0.0,0.0,0.0,0.0,8.1269,8.2039,8.2186,8.2186,8.2186,8.2186,8.2186,8.2186,8.2884,8.3691,8.4535,8.5306,8.6114,8.6958,8.6995,8.6995,8.6995,8.6995,8.6995,8.6995,8.6995,8.6995,8.6995,8.7766,8.8169,8.8206,8.9784,9.0555,9.0629,9.14,9.1767,9.1803,9.1803,9.1803,9.1803,9.1803,9.1803,9.1803,9.1803,9.1803,9.1803,9.1803,9.1803,9.1803,9.1803,9.1803,9.1803,9.1803,9.1803,9.1803,9.1803,9.1803,9.1803,9.1803,9.1803,9.1803,9.1803,9.1803,9.1803,9.1803,9.1803,9.1803,9.1803,9.1803,9.1803,9.1803,9.1803,9.1803,9.1803,9.083,8.9641,8.8402,8.7246,8.6053,8.4785,8.4606,8.464,8.464,8.464,8.464,8.464,8.464,8.464,8.464,8.464,8.464,8.464,8.464,8.464,8.464,8.464,8.464,8.464,8.464,8.464,8.464,8.464,8.464,6.7687,0.0,0.0,0.0,0.0,0.0,0.0,0.0,0.0,0.0,0.0,7.7928,7.8772,8.0057,8.1085,8.1305,8.1819,8.2186,8.2186,8.2186,8.2186,8.2186,8.2406,8.3067,8.4462,8.4792,8.5527,0.0,8.6995,8.6995,8.6995,8.6995,8.6995,8.6995,8.6995,8.6995,8.6995,8.7215,8.7619,8.8206,8.8647,8.9491,9.0629,9.0849,9.1253,9.1803,9.1803,9.1803,9.1803,9.1803,9.1803,9.1803,9.1803,9.1803,9.1803,9.1803,9.1803,9.1803,9.1803,9.1803,9.1803,9.1803,9.1803,9.1803,9.1803,9.1803,9.1803,9.1803,9.1803,9.1803,9.1803,9.1803,9.1803,9.1803,9.1803,9.1803,9.1803,9.1803,9.1803,9.1803,9.1803,9.1803,9.1803,9.1509,9.0907,8.9641,8.8491,8.7246,8.6053,8.517,8.464,8.464,8.464,8.464,8.464,8.464,8.464,8.464,8.464,8.464,8.464,8.464,8.464,8.464,8.464,8.464,8.464,8.464,8.464,8.464,8.464,8.464,0.0,0.0,0.0,0.0,0.0,0.0,7.1211,7.2532,7.3927,0.0,7.5909,7.7194,7.8369,7.936,8.0241,8.0901,8.1379,8.1819,8.215,8.2186,8.2186,8.2186,8.2186,8.27,8.3985,8.4389,8.5123,8.6407,8.6811,8.6995,8.6995,8.6995,8.6995,8.6995,8.6995,8.6995,8.6995,8.6995,8.7252,8.7692,8.8059,8.8683,8.9638,9.0298,9.0849,9.1326,9.1657,9.1803,9.1803,9.1803,9.1803,9.1803,9.1803,9.1803,9.1803,9.1803,9.1803,9.1803,9.1803,9.1803,9.1803,9.1803,9.1803,9.1803,9.1803,9.1803,9.1803,9.1803,9.1803,9.1803,9.1803,9.1803,9.1803,9.1803,9.1803,9.1803,9.1803,9.1803,9.1803,9.1803,9.1803,9.1803,9.1803,9.1803,9.136,9.0168,8.8928,8.7769,8.661,8.5344,8.464,8.464,8.464,8.464,8.464,8.464,8.464,8.464,8.464,8.464,8.464,8.464,8.464,8.464,8.464,8.464,8.464,8.464,8.464,8.464,8.464,8.464,0.0,0.0,0.0,0.0,0.0,0.0,7.1431,7.2532,7.378,7.4625,7.5432,7.646,7.8038,7.8479,7.9066,8.0498,8.0901,8.1269,8.2076,8.2186,8.2186,8.2186,8.2186,8.2517,8.3324,8.4058,8.4829,8.571,8.6554,8.6995,8.6995,8.6995,8.6995,8.6995,8.6995,8.6995,8.6995,8.6995,8.6995,8.7031,8.7729,8.8096,8.8243,8.9674,9.0445,9.0629,9.1363,9.173,9.1803,9.1803,9.1803,9.1803,9.1803,9.1803,9.1803,9.1803,9.1803,9.1803,9.1803,9.1803,9.1803,9.1803,9.1803,9.1803,9.1803,9.1803,9.1803,9.1803,9.1803,9.1803,9.1803,9.1803,9.1803,9.1803,9.1803,9.1803,9.1803,9.1803,9.1803,9.1803,9.1803,9.1803,9.1803,9.1803,9.136,9.0168,8.8928,8.7769,8.661,8.5344,8.464,8.464,8.464,8.464,8.464,8.464,8.464,8.464,8.464,8.464,8.464,8.464,8.464,8.464,8.464,8.464,8.464,8.464,8.464,8.464,8.464,8.464,0.0,0.0,0.0,0.0,0.0,0.0,7.2129,7.2496,7.2973,0.0,7.4588,7.5432,7.6423,7.7671,7.8699,7.9029,8.0167,8.1269,8.2076,8.2186,8.2186,8.2186,8.2186,8.2517,8.3324,8.3544,8.4242,8.5673,8.6554,8.6995,8.6995,8.6995,8.6995,8.6995,8.6995,8.6995,8.6995,8.6995,8.6995,8.6995,8.7178,8.7582,8.8206,8.8536,8.9381,9.0629,9.0776,9.1216,9.1803,9.1803,9.1803,9.1803,9.1803,9.1803,9.1803,9.1803,9.1803,9.1803,9.1803,9.1803,9.1803,9.1803,9.1803,9.1803,9.1803,9.1803,9.1803,9.1803,9.1803,9.1803,9.1803,9.1803,9.1803,9.1803,9.1803,9.1803,9.1803,9.1803,9.1803,9.1803,9.1803,9.1803,9.1803,9.1803,9.136,9.0168,8.905,8.7804,8.661,8.5344,8.464,8.464,8.464,8.464,8.464,8.464,8.464,8.464,8.464,8.464,8.464,8.464,8.464,8.464,8.464,8.464,8.464,8.464,8.464,8.464,8.464,8.464,0.0,0.0,0.0,7.1101,0.0,0.0,0.0,7.2496,7.2716,7.3523,7.4001,7.4661,7.5873,7.679,7.7635,7.8442,7.9286,8.0204,8.1415,8.1929,8.2186,8.2186,8.2186,8.237,8.2774,8.3177,8.4058,8.5673,8.6151,8.6591,8.6995,8.6995,8.6995,8.6995,8.6995,8.6995,8.6995,8.6995,8.6995,8.6995,8.6995,8.7215,8.7619,8.8023,8.8647,8.9417,8.9858,9.0482,9.1216,9.1216,9.1436,9.1803,9.1803,9.1803,9.1803,9.1803,9.1803,9.1803,9.1803,9.1803,9.1803,9.1803,9.1803,9.1803,9.1803,9.1803,9.1803,9.1803,9.1803,9.1803,9.1803,9.1803,9.1803,9.1803,9.1803,9.1803,9.1803,9.1803,9.1803,9.1803,9.1803,9.1803,9.1803,9.136,9.0943,9.0907,8.8877,8.7375,8.734,8.5719,8.464,8.464,8.464,8.464,8.464,8.464,8.464,8.464,8.464,8.464,8.464,8.464,8.464,8.464,8.464,8.464,8.464,8.464,8.464,8.464,8.464,8.464,0.0,0.0,0.0,0.0,0.0,7.2496,0.0,0.0,0.0,7.334,7.3597,0.0,0.0,0.0,0.0,7.8112,0.0,0.0,0.0,8.1232,0.0,8.215,8.2186,8.2186,8.2186,8.292,8.3948,8.5233,8.56,8.6077,8.6738,8.6921,8.6995,8.6995,8.6995,8.6995,8.6995,8.6995,8.6995,8.6995,8.6995,8.6995,8.7031,8.7655,8.8059,8.8243,8.8904,8.9638,9.0372,9.0372,9.0739,9.1363,9.1693,9.1803,9.1803,9.1803,9.1803,9.1803,9.1803,9.1803,9.1803,9.1803,9.1803,9.1803,9.1803,9.1803,9.1803,9.1803,9.1803,9.1803,9.1803,9.1803,9.1803,9.1803,9.1803,9.1803,9.1803,9.1803,9.1803,9.1803,9.1803,9.1803,9.1803,9.102,9.0674,9.136,8.905,8.7375,8.7769,8.6152,8.489,8.4606,8.464,8.464,8.464,8.464,8.464,8.464,8.464,8.464,8.464,8.464,8.464,8.464,8.464,8.464,8.464,8.464,8.464,8.464,8.464,8.464,0.0,0.0,0.0,0.0,7.2422,0.0,0.0,0.0,7.2532,7.2606,0.0,7.3964,0.0,0.0,0.0,0.0,0.0,0.0,7.8846,7.9543,8.0571,8.2039,8.2186,8.2186,8.2186,8.292,8.3508,8.3654,8.4976,8.582,8.593,8.6628,8.6995,8.6995,8.6995,8.6995,8.6995,8.6995,8.6995,8.6995,8.6995,8.6995,8.6995,8.7105,8.7545,8.8206,8.8316,8.8793,8.9564,8.9564,8.9601,8.9821,9.1253,9.1803,9.1803,9.1803,9.1803,9.1803,9.1803,9.1803,9.1803,9.1803,9.1803,9.1803,9.1803,9.1803,9.1803,9.1803,9.1803,9.1803,9.1803,9.1803,9.1803,9.1803,9.1803,9.1803,9.1803,9.1803,9.1803,9.1803,9.1803,9.1803,9.1803,9.1694,9.1285,9.0364,8.9842,8.8841,8.6865,8.6414,8.5786,8.4713,8.464,8.464,8.464,8.464,8.464,8.464,8.464,8.464,8.464,8.464,8.464,8.464,8.464,8.464,8.464,8.464,8.464,8.464,8.464,8.464,0.0,0.0,0.0,0.0,0.0,0.0,7.2496,0.0,7.2496,0.0,0.0,0.0,0.0,0.0,0.0,0.0,7.7635,7.8038,7.8516,7.8883,7.969,8.1305,8.1489,0.0,8.215,8.2517,8.292,8.3361,8.4022,8.4792,8.5747,8.6114,8.6518,8.6995,8.6995,8.6995,8.6995,8.6995,8.6995,8.6995,8.6995,8.6995,8.6995,8.6995,8.7178,8.7509,8.7509,8.7986,8.872,8.872,8.8977,8.9491,9.0152,9.0702,9.1179,9.162,9.1803,9.1803,9.1803,9.1803,9.1803,9.1803,9.1803,9.1803,9.1803,9.1803,9.1803,9.1803,9.1803,9.1803,9.1803,9.1803,9.1803,9.1803,9.1803,9.1803,9.1803,9.1803,9.1803,9.1803,9.1803,9.1803,9.1803,9.1285,9.0866,9.0984,8.9842,8.8579,8.7585,8.6865,8.5953,8.4713,8.464,8.464,8.464,8.464,8.464,8.464,8.464,8.464,8.464,8.464,8.464,8.464,8.464,8.464,8.464,8.464,8.464,8.464,8.464,8.464,7.301,0.0,0.0,0.0,0.0,0.0,0.0,0.0,0.0,0.0,0.0,0.0,0.0,0.0,0.0,0.0,0.0,7.7524,7.8148,7.8259,7.8846,8.0461,8.0865,0.0,0.0,8.2186,8.2443,8.303,8.3287,8.3911,8.5086,8.5563,8.6077,8.6664,8.6885,8.6995,8.6995,8.6995,8.6995,8.6995,8.6995,8.6995,8.6995,8.6995,8.6995,8.6995,8.6995,8.7325,8.7876,8.7876,8.8243,8.8793,8.8977,8.9454,9.0078,9.1106,9.162,9.1803,9.1803,9.1803,9.1803,9.1803,9.1803,9.1803,9.1803,9.1803,9.1803,9.1803,9.1803,9.1803,9.1803,9.1803,9.1803,9.1803,9.1803,9.1803,9.1803,9.1803,9.1803,9.1803,9.1803,9.1803,9.1803,9.1097,9.0866,9.1694,9.0284,8.9014,8.8754,8.7677,8.6414,8.524,8.4785,8.464,8.464,8.464,8.464,8.464,8.464,8.464,8.464,8.464,8.464,8.464,8.464,8.464,8.464,8.464,8.464,8.464,8.464,8.464,0.0,0.0,0.0,7.4845,0.0,0.0,0.0,0.0,7.3891,0.0,0.0,0.0,0.0,0.0,0.0,0.0,0.0,0.0,0.0,7.7378,7.7965,7.9617,8.0534,8.1342,0.0,8.2186,8.2186,8.2223,8.2957,8.3434,8.3471,8.4939,8.5783,8.582,8.6591,8.6995,8.6995,8.6995,8.6995,8.6995,8.6995,8.6995,8.6995,8.6995,8.6995,8.6995,8.6995,8.7031,8.7031,8.7031,8.7068,8.7142,8.7949,8.8243,8.8463,9.0041,9.1143,9.1803,9.1803,9.1803,9.1803,9.1803,9.1803,9.1803,9.1803,9.1803,9.1803,9.1803,9.1803,9.1803,9.1803,9.1803,9.1803,9.1803,9.1803,9.1803,9.1803,9.1803,9.1803,9.1803,9.1803,9.1803,9.1803,9.1803,9.1803,9.1803,9.1694,9.1249,9.0087,8.8841,8.7677,8.6512,8.5344,8.464,8.464,8.464,8.464,8.464,8.464,8.464,8.464,8.464,8.464,8.464,8.464,8.464,8.464,8.464,8.464,8.464,8.464,8.464,0.0,0.0,7.4918,7.4918,0.0,0.0,0.0,0.0,0.0,0.0,0.0,0.0,0.0,0.0,0.0,0.0,0.0,0.0,0.0,7.7304,7.7745,7.8883,8.0204,8.1122,8.1379,8.1893,8.2186,8.2186,8.2443,8.2847,8.3398,8.3911,8.4682,8.5747,8.604,8.6481,8.6995,8.6995,8.6995,8.6995,8.6995,8.6995,8.6995,8.6995,8.6995,8.6995,8.6995,8.6995,8.6995,8.6995,8.6995,8.7031,8.7325,8.7729,8.8316,8.9417,9.0005,9.0298,9.0812,9.1363,9.1803,9.1803,9.1803,9.1803,9.1803,9.1803,9.1803,9.1803,9.1803,9.1803,9.1803,9.1803,9.1803,9.1803,9.1803,9.1803,9.1803,9.1803,9.1803,9.1803,9.1803,9.1803,9.1803,9.1803,9.1803,9.1803,9.1803,9.136,9.0204,8.9641,8.8667,8.6575,8.6053,8.5412,8.4713,8.464,8.464,8.464,8.464,8.464,8.464,8.464,8.464,8.464,8.464,8.464,8.464,8.464,8.464,8.464,8.464,8.464,7.5763,7.5763,0.0,7.5763,7.5763,0.0,7.5763,0.0,0.0,0.0,0.0,0.0,0.0,0.0,0.0,0.0,0.0,0.0,0.0,7.7304,7.7524,7.8075,7.9323,8.0388,8.0938,8.1489,8.1893,8.2186,8.2186,8.2443,8.2957,8.3251,8.4022,8.5306,8.5637,8.6187,8.6995,8.6995,8.6995,8.6995,8.6995,8.6995,8.6995,8.6995,8.6995,8.6995,8.6995,8.6995,8.6995,8.6995,8.6995,8.6995,8.6995,8.7325,8.7876,8.8683,8.916,8.9491,9.0005,9.0519,9.0996,9.1289,9.1363,9.1436,9.1693,9.1803,9.1913,9.2501,9.2244,9.195,9.2537,9.2244,9.173,9.1436,9.1363,9.1289,9.1033,9.0959,9.0959,9.0959,9.0959,9.0959,9.0959,9.1179,9.1473,9.1767,9.1803,9.1509,9.0716,8.9924,8.8754,8.7246,8.6217,8.5412,8.4713,8.464,8.464,8.464,8.464,8.464,8.464,8.464,8.464,8.464,8.464,8.464,8.464,8.464,8.464,8.464,8.464,8.464]},{"header":{"parameterUnit":"m.s-1","parameterCategory":1,"la1":30.6,"la2":29.2853,"lo1":-89.7004,"lo2":-87.6739,"dy":0.0162,"dx":0.0183,"nx":112,"ny":82,"refTime":"2023-04-13T12:00:00:Z","depth":0,"parameterNumber":3,"parameterNumberName":"V-component_of_WINDS"},"data":[0.0,0.0,0.0,0.0,0.0,0.0,0.0,0.0,0.0,0.0,0.0,0.0,0.0,0.0,0.0,0.0,0.0,0.0,0.0,0.0,0.0,0.0,0.0,0.0,0.0,0.0,0.0,0.0,0.0,0.0,0.0,0.0,0.0,0.0,0.0,0.0,0.0,0.0,0.0,0.0,0.0,0.0,0.0,0.0,0.0,0.0,0.0,0.0,0.0,0.0,0.0,0.0,0.0,0.0,0.0,0.0,0.0,0.0,0.0,0.0,0.0,0.0,0.0,0.0,0.0,0.0,0.0,0.0,0.0,0.0,0.0,0.0,0.0,0.0,0.0,0.0,0.0,0.0,0.0,0.0,0.0,0.0,0.0,0.0,0.0,0.0,0.0,0.0,0.0,0.0,-3.0918,-3.0976,-3.1055,-3.1094,-3.1094,-3.1094,-3.2316,-3.4957,0.0,0.0,0.0,0.0,0.0,0.0,0.0,0.0,0.0,0.0,0.0,0.0,0.0,0.0,0.0,0.0,0.0,0.0,0.0,0.0,0.0,0.0,0.0,0.0,0.0,0.0,0.0,0.0,0.0,0.0,0.0,0.0,0.0,0.0,0.0,0.0,0.0,0.0,0.0,0.0,0.0,0.0,0.0,0.0,0.0,0.0,0.0,0.0,0.0,0.0,0.0,0.0,0.0,0.0,0.0,0.0,0.0,0.0,0.0,0.0,0.0,0.0,0.0,0.0,0.0,0.0,0.0,0.0,0.0,0.0,0.0,0.0,0.0,0.0,0.0,0.0,0.0,0.0,0.0,0.0,0.0,0.0,0.0,0.0,0.0,0.0,0.0,0.0,0.0,0.0,0.0,0.0,0.0,0.0,0.0,0.0,0.0,0.0,0.0,0.0,0.0,0.0,0.0,0.0,-3.1035,-3.1387,-3.1758,-3.1973,-3.1973,-3.1973,-3.2774,-3.4466,0.0,0.0,0.0,0.0,0.0,0.0,0.0,0.0,0.0,0.0,0.0,0.0,0.0,0.0,0.0,0.0,0.0,0.0,0.0,0.0,0.0,0.0,0.0,0.0,0.0,0.0,0.0,0.0,0.0,0.0,0.0,0.0,0.0,0.0,0.0,0.0,0.0,0.0,0.0,0.0,0.0,0.0,0.0,0.0,0.0,0.0,0.0,0.0,0.0,0.0,0.0,0.0,0.0,0.0,0.0,0.0,0.0,0.0,0.0,0.0,0.0,0.0,0.0,0.0,0.0,0.0,0.0,0.0,0.0,0.0,0.0,0.0,0.0,0.0,0.0,0.0,0.0,0.0,0.0,0.0,0.0,0.0,0.0,0.0,0.0,0.0,0.0,0.0,0.0,0.0,0.0,0.0,0.0,0.0,0.0,0.0,0.0,0.0,0.0,0.0,0.0,0.0,0.0,-3.1445,-3.166,-3.1855,-3.2051,-3.2168,-3.2168,-3.2168,-3.3195,-3.5475,-3.5865,0.0,0.0,0.0,0.0,0.0,0.0,0.0,0.0,0.0,0.0,0.0,0.0,0.0,0.0,0.0,0.0,0.0,0.0,0.0,0.0,0.0,0.0,0.0,0.0,0.0,0.0,0.0,0.0,0.0,0.0,0.0,0.0,0.0,0.0,0.0,0.0,0.0,0.0,0.0,0.0,0.0,0.0,0.0,0.0,0.0,0.0,0.0,0.0,0.0,0.0,0.0,0.0,0.0,0.0,0.0,0.0,0.0,0.0,0.0,0.0,0.0,0.0,0.0,0.0,0.0,0.0,0.0,0.0,0.0,0.0,0.0,0.0,0.0,0.0,0.0,0.0,0.0,0.0,0.0,0.0,0.0,0.0,0.0,0.0,0.0,0.0,0.0,0.0,0.0,0.0,0.0,0.0,0.0,0.0,0.0,0.0,0.0,0.0,0.0,0.0,0.0,0.0,-3.2051,-3.2324,-3.2324,-3.2402,-3.2461,-3.2461,-3.2461,-3.3518,-3.5821,-3.6617,0.0,0.0,0.0,0.0,0.0,0.0,0.0,0.0,0.0,0.0,0.0,0.0,0.0,0.0,0.0,0.0,0.0,0.0,0.0,0.0,0.0,0.0,0.0,0.0,0.0,0.0,0.0,0.0,0.0,0.0,0.0,0.0,0.0,0.0,0.0,0.0,0.0,0.0,0.0,0.0,0.0,0.0,0.0,0.0,0.0,0.0,0.0,0.0,0.0,0.0,0.0,0.0,0.0,0.0,0.0,0.0,0.0,0.0,0.0,0.0,0.0,0.0,0.0,0.0,0.0,0.0,0.0,0.0,0.0,0.0,0.0,0.0,0.0,0.0,0.0,0.0,0.0,0.0,0.0,0.0,0.0,0.0,0.0,0.0,0.0,0.0,0.0,0.0,0.0,0.0,0.0,0.0,0.0,0.0,0.0,0.0,0.0,0.0,0.0,0.0,0.0,0.0,-3.25,-3.2754,-3.2754,-3.3105,-3.334,-3.334,-3.334,-3.3446,-3.3572,-3.6453,0.0,0.0,0.0,0.0,0.0,0.0,0.0,0.0,0.0,0.0,0.0,0.0,0.0,0.0,0.0,0.0,0.0,0.0,0.0,0.0,0.0,0.0,0.0,0.0,0.0,0.0,0.0,0.0,0.0,0.0,0.0,0.0,0.0,0.0,0.0,0.0,0.0,0.0,0.0,0.0,0.0,0.0,0.0,0.0,0.0,0.0,0.0,0.0,0.0,0.0,0.0,0.0,0.0,0.0,0.0,0.0,0.0,0.0,0.0,0.0,0.0,0.0,0.0,0.0,0.0,0.0,0.0,0.0,0.0,0.0,0.0,0.0,0.0,0.0,0.0,0.0,0.0,0.0,0.0,0.0,0.0,0.0,0.0,0.0,0.0,0.0,0.0,0.0,0.0,0.0,0.0,0.0,0.0,0.0,0.0,0.0,0.0,0.0,0.0,0.0,0.0,0.0,-3.293,-3.3184,0.0,-3.332,-3.3418,-3.3418,-3.3418,-3.3776,-3.484,0.0,0.0,0.0,0.0,0.0,0.0,0.0,0.0,0.0,0.0,0.0,0.0,0.0,0.0,0.0,0.0,0.0,0.0,0.0,0.0,0.0,0.0,0.0,0.0,0.0,0.0,0.0,0.0,0.0,0.0,0.0,0.0,0.0,0.0,0.0,0.0,0.0,0.0,0.0,0.0,0.0,0.0,0.0,0.0,0.0,0.0,0.0,0.0,0.0,0.0,0.0,0.0,0.0,0.0,0.0,0.0,0.0,0.0,0.0,0.0,0.0,0.0,0.0,0.0,0.0,0.0,0.0,0.0,0.0,0.0,0.0,0.0,0.0,0.0,0.0,0.0,0.0,0.0,0.0,0.0,0.0,0.0,0.0,0.0,0.0,0.0,0.0,0.0,0.0,0.0,0.0,0.0,0.0,0.0,0.0,0.0,0.0,0.0,0.0,0.0,0.0,0.0,-3.2969,-3.3359,-3.3633,0.0,-3.375,-3.3828,-3.3828,-3.3828,-3.4318,-3.5394,0.0,0.0,0.0,0.0,0.0,0.0,0.0,0.0,0.0,0.0,0.0,0.0,0.0,0.0,0.0,0.0,0.0,0.0,0.0,0.0,0.0,0.0,0.0,0.0,0.0,0.0,0.0,0.0,0.0,0.0,0.0,0.0,0.0,0.0,0.0,0.0,0.0,0.0,0.0,0.0,0.0,0.0,0.0,0.0,0.0,0.0,0.0,0.0,0.0,0.0,0.0,0.0,0.0,0.0,0.0,0.0,0.0,0.0,0.0,0.0,0.0,0.0,0.0,0.0,0.0,0.0,0.0,0.0,0.0,0.0,0.0,0.0,0.0,0.0,0.0,0.0,0.0,0.0,0.0,0.0,0.0,0.0,0.0,0.0,0.0,0.0,0.0,0.0,0.0,0.0,0.0,0.0,0.0,0.0,0.0,0.0,0.0,0.0,0.0,0.0,0.0,0.0,-3.3379,-3.3809,-3.4082,-3.4082,-3.4453,-3.4707,-3.4707,-3.4707,-3.4707,0.0,0.0,0.0,0.0,0.0,0.0,0.0,0.0,0.0,0.0,0.0,0.0,0.0,0.0,0.0,0.0,0.0,0.0,0.0,0.0,0.0,0.0,0.0,0.0,0.0,0.0,0.0,0.0,0.0,0.0,0.0,0.0,0.0,0.0,0.0,0.0,0.0,0.0,0.0,0.0,0.0,0.0,0.0,0.0,0.0,0.0,0.0,0.0,0.0,0.0,0.0,0.0,0.0,0.0,0.0,0.0,0.0,0.0,0.0,0.0,0.0,0.0,0.0,0.0,0.0,0.0,0.0,0.0,0.0,0.0,0.0,0.0,0.0,0.0,0.0,0.0,0.0,0.0,0.0,0.0,0.0,0.0,0.0,0.0,0.0,0.0,0.0,0.0,0.0,0.0,0.0,0.0,0.0,0.0,0.0,0.0,0.0,0.0,0.0,0.0,0.0,0.0,0.0,-3.3867,-3.4258,-3.4512,-3.4512,-3.4629,-3.4707,-3.4707,-3.4707,-3.4707,-3.4707,0.0,0.0,0.0,0.0,0.0,0.0,0.0,0.0,0.0,0.0,0.0,0.0,0.0,0.0,0.0,0.0,0.0,0.0,0.0,0.0,0.0,0.0,0.0,0.0,0.0,0.0,0.0,0.0,0.0,0.0,0.0,0.0,0.0,0.0,0.0,0.0,0.0,0.0,0.0,0.0,0.0,0.0,0.0,0.0,0.0,0.0,0.0,0.0,0.0,0.0,0.0,0.0,0.0,0.0,0.0,0.0,0.0,0.0,0.0,0.0,0.0,0.0,0.0,0.0,0.0,0.0,0.0,0.0,0.0,0.0,0.0,0.0,0.0,0.0,0.0,0.0,0.0,0.0,0.0,0.0,0.0,0.0,0.0,0.0,0.0,0.0,0.0,0.0,0.0,0.0,0.0,0.0,0.0,0.0,0.0,0.0,0.0,0.0,0.0,0.0,0.0,0.0,-3.4297,-3.4707,-3.498,-3.498,-3.5117,-3.5234,-3.5234,-3.5234,-3.5234,-3.5234,0.0,0.0,0.0,0.0,0.0,0.0,0.0,0.0,0.0,0.0,0.0,0.0,0.0,0.0,0.0,0.0,0.0,0.0,0.0,0.0,0.0,0.0,0.0,0.0,0.0,0.0,0.0,0.0,0.0,0.0,0.0,0.0,0.0,0.0,0.0,0.0,0.0,0.0,0.0,0.0,0.0,0.0,0.0,0.0,0.0,0.0,0.0,0.0,0.0,0.0,0.0,0.0,0.0,0.0,0.0,0.0,0.0,0.0,0.0,0.0,0.0,0.0,0.0,0.0,0.0,0.0,0.0,0.0,0.0,0.0,0.0,0.0,0.0,0.0,0.0,0.0,0.0,0.0,0.0,0.0,0.0,0.0,0.0,0.0,0.0,0.0,0.0,0.0,0.0,0.0,0.0,0.0,0.0,0.0,0.0,0.0,0.0,0.0,0.0,0.0,0.0,0.0,-3.4726,-3.5176,-3.5449,-3.5449,-3.5801,-3.6016,-3.6016,-3.6016,-3.6016,-3.6016,0.0,0.0,0.0,0.0,0.0,0.0,0.0,0.0,0.0,0.0,0.0,0.0,0.0,0.0,0.0,0.0,0.0,0.0,0.0,0.0,0.0,0.0,0.0,0.0,0.0,0.0,0.0,0.0,0.0,0.0,0.0,0.0,0.0,0.0,0.0,0.0,0.0,0.0,0.0,0.0,0.0,0.0,0.0,0.0,0.0,0.0,0.0,0.0,0.0,0.0,0.0,0.0,0.0,0.0,0.0,0.0,0.0,0.0,0.0,0.0,-2.7305,0.0,0.0,0.0,0.0,0.0,0.0,0.0,0.0,0.0,0.0,0.0,0.0,0.0,0.0,0.0,0.0,0.0,0.0,0.0,0.0,0.0,0.0,0.0,0.0,0.0,0.0,0.0,0.0,0.0,0.0,0.0,0.0,0.0,0.0,0.0,0.0,0.0,0.0,0.0,0.0,0.0,-3.5234,-3.5625,-3.5879,-3.5879,-3.5976,-3.6016,-3.6016,-3.6016,-3.6016,-3.6016,-3.6016,0.0,0.0,0.0,0.0,0.0,0.0,0.0,0.0,0.0,0.0,0.0,0.0,0.0,0.0,0.0,0.0,0.0,0.0,0.0,0.0,0.0,0.0,0.0,0.0,0.0,0.0,0.0,0.0,0.0,0.0,0.0,0.0,0.0,0.0,0.0,0.0,0.0,0.0,0.0,0.0,0.0,0.0,0.0,0.0,0.0,0.0,0.0,0.0,0.0,0.0,0.0,0.0,0.0,0.0,0.0,0.0,0.0,0.0,0.0,0.0,-2.7519,0.0,0.0,0.0,0.0,0.0,0.0,0.0,0.0,0.0,0.0,0.0,0.0,0.0,0.0,0.0,0.0,0.0,0.0,0.0,0.0,0.0,0.0,0.0,0.0,0.0,0.0,0.0,0.0,0.0,0.0,0.0,0.0,0.0,0.0,0.0,0.0,0.0,0.0,0.0,0.0,-3.5664,-3.5879,-3.6016,-3.6016,-3.6016,-3.6016,-3.6016,-3.6016,-3.6016,-3.6016,-3.6016,0.0,0.0,0.0,0.0,0.0,0.0,0.0,0.0,0.0,0.0,0.0,0.0,0.0,0.0,0.0,0.0,0.0,0.0,0.0,0.0,0.0,0.0,0.0,0.0,0.0,0.0,0.0,0.0,0.0,0.0,0.0,0.0,0.0,0.0,0.0,0.0,0.0,0.0,0.0,0.0,0.0,0.0,0.0,0.0,0.0,0.0,0.0,0.0,0.0,0.0,0.0,0.0,0.0,-2.9023,-2.9219,-2.957,-2.957,-2.957,-2.9531,-2.8828,-2.832,-2.8008,-2.8008,0.0,0.0,0.0,0.0,0.0,0.0,0.0,0.0,0.0,0.0,0.0,0.0,0.0,0.0,0.0,0.0,0.0,0.0,0.0,0.0,0.0,0.0,0.0,0.0,-3.2832,-3.3027,0.0,0.0,0.0,0.0,0.0,0.0,0.0,0.0,0.0,0.0,0.0,0.0,-3.5976,-3.6016,-3.6016,-3.6016,-3.6016,-3.6016,-3.6016,-3.6016,-3.6016,-3.6016,-3.6016,-3.6016,0.0,0.0,0.0,0.0,0.0,0.0,0.0,0.0,0.0,0.0,0.0,0.0,0.0,0.0,0.0,0.0,0.0,0.0,0.0,0.0,0.0,0.0,0.0,0.0,0.0,0.0,0.0,0.0,0.0,0.0,0.0,0.0,-2.6309,-2.6309,0.0,0.0,0.0,0.0,0.0,0.0,0.0,0.0,0.0,0.0,0.0,0.0,0.0,-2.9316,-2.9316,-2.9375,-2.9434,-2.9492,-2.9492,-2.9512,-2.957,-2.957,-2.957,-2.957,-2.9453,0.0,-2.9316,-2.9316,0.0,0.0,0.0,0.0,0.0,0.0,0.0,0.0,0.0,0.0,0.0,0.0,0.0,0.0,0.0,0.0,0.0,0.0,0.0,0.0,0.0,0.0,-3.3359,-3.373,-3.4141,-3.4434,0.0,-3.4121,-3.4004,-3.4375,-3.4531,0.0,0.0,0.0,0.0,0.0,0.0,0.0,-3.6016,-3.6016,-3.6016,-3.6016,-3.6016,-3.6016,-3.6016,-3.6016,-3.6016,-3.6016,-3.6016,-3.6016,-3.6016,-3.6016,0.0,0.0,0.0,0.0,0.0,0.0,0.0,0.0,0.0,0.0,0.0,0.0,0.0,0.0,0.0,0.0,0.0,0.0,0.0,0.0,0.0,0.0,0.0,0.0,0.0,0.0,0.0,0.0,0.0,-2.6465,-2.6738,-2.6738,-2.6894,-2.7109,0.0,0.0,0.0,0.0,0.0,0.0,0.0,0.0,0.0,-2.9277,-2.9473,-2.957,-2.957,-2.957,-2.9687,-2.9922,-2.9922,-3.0176,-3.0664,-3.0664,-3.0801,-3.1035,-3.1035,-3.1035,-3.0957,-2.998,-2.957,-2.957,0.0,0.0,0.0,0.0,-3.0234,-3.0664,-3.0664,-3.0937,0.0,-3.1309,0.0,0.0,0.0,0.0,0.0,0.0,0.0,0.0,0.0,0.0,-3.418,-3.4375,-3.457,-3.4766,-3.5039,-3.4941,-3.4785,0.0,-3.4902,-3.5078,-3.5078,0.0,0.0,0.0,0.0,-3.6016,-3.6016,-3.6016,-3.6016,-3.6016,-3.623,-3.6387,-3.6387,-3.6601,-3.6641,-3.6406,-3.6387,-3.6269,-3.6035,-3.6016,-3.6016,0.0,0.0,0.0,0.0,0.0,0.0,0.0,0.0,0.0,0.0,0.0,0.0,0.0,0.0,0.0,0.0,0.0,0.0,0.0,0.0,0.0,0.0,0.0,0.0,0.0,0.0,0.0,0.0,-2.6914,-2.7187,-2.7187,-2.7363,-2.7637,0.0,0.0,0.0,0.0,0.0,0.0,-2.9551,-2.9668,-2.9726,-2.9726,-2.9844,-2.9961,-3.0078,-3.0078,-3.0273,-3.0703,-3.082,-3.1211,-3.1855,-3.1953,-3.2187,-3.248,-3.248,-3.248,-3.2363,-3.0859,-3.0234,-3.0234,-3.0234,-3.043,-3.0703,-3.0703,-3.1113,-3.168,-3.168,-3.1894,-3.2168,-3.2168,-3.2324,-3.2519,-3.2617,0.0,0.0,0.0,0.0,-3.3906,-3.4531,-3.4785,-3.4883,-3.4883,-3.4961,-3.5137,-3.5488,-3.5547,-3.5449,0.0,-3.5312,-3.5547,-3.5547,0.0,0.0,0.0,0.0,-3.6055,-3.6172,-3.6191,-3.623,-3.6328,-3.6641,-3.6836,-3.6836,-3.7109,-3.7168,-3.6855,-3.6836,-3.668,-3.6367,-3.625,-3.6191,-3.6191,0.0,0.0,0.0,0.0,0.0,0.0,0.0,0.0,0.0,0.0,0.0,0.0,0.0,0.0,0.0,0.0,0.0,0.0,0.0,0.0,0.0,0.0,0.0,0.0,0.0,0.0,0.0,0.0,0.0,-2.7637,-2.834,0.0,0.0,0.0,0.0,-2.9531,-2.9531,-2.9551,-2.957,-2.9941,-3.0156,-3.0156,-3.0586,-3.1016,-3.1406,-3.1426,-3.1641,-3.207,-3.248,-3.2676,-3.2734,-3.3144,-3.334,-3.3359,-3.3359,-3.3359,-3.3281,-3.2402,-3.2031,-3.2031,-3.2031,-3.2051,-3.207,-3.207,-3.209,-3.2129,-3.2129,-3.2148,-3.2168,-3.2168,-3.2715,-3.3437,-3.3848,-3.4258,0.0,0.0,-3.4629,-3.4648,-3.4687,-3.5019,-3.5351,-3.5351,-3.5664,-3.5957,-3.5976,-3.5996,-3.5976,0.0,-3.5976,-3.5996,-3.5996,0.0,-3.6016,-3.6016,-3.6016,-3.6172,-3.6582,-3.6641,-3.6797,-3.7187,-3.7246,-3.7266,-3.7266,-3.7285,-3.7285,-3.7266,-3.7266,-3.7266,-3.7226,-3.6855,-3.6641,-3.6641,-3.623,0.0,0.0,0.0,0.0,0.0,0.0,0.0,0.0,0.0,0.0,0.0,0.0,0.0,0.0,0.0,0.0,0.0,0.0,0.0,0.0,0.0,0.0,0.0,0.0,0.0,0.0,0.0,0.0,-2.8476,-2.8984,0.0,-2.9336,-2.9473,-2.9687,-2.9961,-2.998,-3.0098,-3.041,-3.082,-3.1055,-3.1055,-3.1738,-3.2187,-3.2344,-3.2617,-3.2832,-3.2969,-3.3125,-3.334,-3.3613,-3.3769,-3.3984,-3.4238,-3.4238,-3.4238,-3.4219,-3.3926,-3.3476,-3.2969,-3.2969,-3.2969,-3.2969,-3.2969,-3.3144,-3.3398,-3.3398,-3.3574,-3.3789,-3.3789,-3.4004,-3.4277,-3.4434,-3.459,-3.4766,-3.5059,-3.5137,-3.5215,-3.5488,-3.5664,-3.5801,-3.5801,-3.5918,-3.6016,-3.6016,-3.6016,-3.6016,-3.6016,-3.6016,-3.6016,-3.6016,-3.6016,-3.6113,-3.6406,-3.6445,-3.6582,-3.7012,-3.707,-3.7129,-3.7285,-3.7539,-3.7812,-3.8105,-3.8125,-3.8125,-3.8125,-3.7851,-3.7578,-3.7305,-3.7148,-3.707,-3.707,-3.666,-3.6445,0.0,0.0,0.0,0.0,0.0,0.0,0.0,0.0,0.0,0.0,0.0,0.0,0.0,0.0,0.0,0.0,0.0,0.0,0.0,0.0,0.0,0.0,0.0,0.0,0.0,0.0,-2.9141,-2.9141,-2.9512,-2.9785,-2.9785,-2.9922,-3.0137,-3.041,-3.0566,-3.0781,-3.1094,-3.1641,-3.1953,-3.1953,-3.2637,-3.3086,-3.3223,-3.3496,-3.3711,-3.3848,-3.4004,-3.4238,-3.4512,-3.4668,-3.4883,-3.5156,-3.5156,-3.5156,-3.5156,-3.5156,-3.4805,-3.4277,-3.3965,-3.3848,-3.3848,-3.3848,-3.4043,-3.4277,-3.4277,-3.4473,-3.4707,-3.4707,-3.4805,-3.4941,-3.4941,-3.5039,-3.5215,-3.5508,-3.5605,-3.5664,-3.5937,-3.6016,-3.6016,-3.6016,-3.6016,-3.6055,-3.6211,-3.623,-3.6289,-3.6426,-3.6328,-3.623,-3.623,-3.6367,-3.6543,-3.6836,-3.6875,-3.709,-3.7656,-3.7734,-3.7851,-3.8144,-3.8418,-3.8711,-3.8984,-3.9023,-3.9023,-3.9023,-3.875,-3.8457,-3.8184,-3.7891,-3.7734,-3.7734,-3.7168,-3.6875,-3.6875,0.0,0.0,0.0,0.0,0.0,0.0,0.0,0.0,0.0,0.0,0.0,0.0,0.0,0.0,0.0,0.0,0.0,0.0,0.0,0.0,0.0,0.0,0.0,-2.957,-2.959,-2.959,-2.959,-2.9961,-3.0234,-3.0234,-3.0644,-3.0918,-3.0937,-3.1328,-3.1562,-3.1562,-3.2363,-3.2832,-3.2832,-3.3262,-3.3691,-3.4101,-3.4121,-3.4336,-3.4746,-3.5195,-3.541,-3.543,-3.5859,-3.6035,-3.6035,-3.6055,-3.6055,-3.6055,-3.6055,-3.6055,-3.5976,-3.5078,-3.4746,-3.4746,-3.4746,-3.4746,-3.4746,-3.4746,-3.4746,-3.4746,-3.4746,-3.5039,-3.541,-3.541,-3.5703,-3.6016,-3.6016,-3.6035,-3.6035,-3.6035,-3.6055,-3.6055,-3.6055,-3.6055,-3.6172,-3.6601,-3.668,-3.6816,-3.7226,-3.6992,-3.6719,-3.6699,-3.7031,-3.7324,-3.7344,-3.7344,0.0,-3.8496,-3.8613,-3.8945,-3.9805,-3.9902,-3.9902,-3.9922,-3.9902,-3.9902,-3.9922,-3.9902,-3.9902,-3.9902,-3.9082,-3.8613,-3.8574,-3.7754,-3.7324,-3.7305,0.0,0.0,0.0,0.0,0.0,0.0,0.0,0.0,0.0,0.0,0.0,0.0,0.0,0.0,0.0,0.0,0.0,0.0,0.0,0.0,0.0,0.0,-2.9922,-2.9609,-2.9824,-3.0019,-3.0019,-3.043,-3.082,-3.1133,-3.1269,-3.1484,-3.1797,-3.2207,-3.2441,-3.2441,-3.3262,-3.373,-3.373,-3.4453,-3.4902,-3.5039,-3.5332,-3.5547,-3.5664,-3.5781,-3.5859,-3.5859,-3.6289,-3.6484,-3.6504,-3.6816,-3.6953,-3.6953,-3.6953,-3.6953,-3.6855,-3.5996,-3.5664,-3.5664,-3.5664,-3.5664,-3.5664,-3.5664,-3.5664,-3.5664,-3.5664,-3.5742,-3.5859,-3.5859,-3.5937,-3.6016,-3.6016,-3.625,-3.6484,-3.6484,-3.6719,-3.6953,-3.6953,-3.6953,-3.6973,-3.709,-3.7129,-3.7168,-3.7266,-3.7715,-3.7851,-3.7226,-3.748,-3.7851,-3.8184,-3.8476,0.0,-3.9453,-3.9531,-3.9629,-3.9863,-3.9902,-4.0019,-4.0332,-4.0078,-4.0019,-4.0332,-4.0059,-3.9902,-3.9902,-3.9668,-3.9238,-3.8594,-3.834,-3.791,0.0,0.0,0.0,0.0,0.0,0.0,0.0,0.0,0.0,0.0,0.0,0.0,0.0,0.0,0.0,0.0,0.0,0.0,0.0,0.0,0.0,0.0,-3.0625,-3.0664,-3.041,-3.0449,-3.0547,-3.0723,-3.0996,-3.1387,-3.1992,-3.2051,-3.2226,-3.2656,-3.3086,-3.332,-3.332,-3.416,-3.4629,-3.4629,-3.5293,-3.5664,-3.5664,-3.6074,-3.6289,-3.6289,-3.6465,-3.6562,-3.6562,-3.6816,-3.6934,-3.6953,-3.7187,-3.7305,-3.7305,-3.7305,-3.7305,0.0,0.0,0.0,0.0,0.0,-3.6562,-3.6562,-3.6562,-3.6562,-3.6562,-3.6562,-3.6562,-3.6562,-3.6562,-3.6562,-3.6562,-3.6562,-3.6738,-3.6934,-3.6934,-3.7109,-3.7305,-3.7305,-3.7441,-3.7617,-3.7793,-3.7969,-3.8144,-3.834,-3.8789,0.0,-3.8476,-3.8594,-3.8828,-3.9082,-3.9336,-3.9648,-4.0098,-4.0312,-4.0508,-4.0684,-4.0859,-4.1055,-4.1308,-4.1094,0.0,0.0,0.0,-4.0801,-4.0449,-4.043,0.0,0.0,0.0,-3.8887,-3.8379,0.0,0.0,0.0,-3.6719,-3.6856,0.0,0.0,0.0,0.0,0.0,0.0,0.0,0.0,0.0,0.0,0.0,0.0,0.0,0.0,0.0,0.0,-3.119,-3.1582,-3.1582,-3.1309,-3.125,-3.1621,-3.166,-3.1992,-3.2851,-3.2949,-3.3105,-3.3535,-3.3965,-3.4219,-3.4219,0.0,0.0,0.0,0.0,-3.6094,-3.6094,-3.6523,-3.6738,-3.6738,-3.7129,-3.7305,-3.7305,-3.7344,-3.7363,-3.7363,-3.7461,-3.7519,-3.7519,-3.7578,-3.7598,-3.7578,-3.7383,-3.7305,-3.7305,-3.7305,-3.7305,-3.7305,-3.7305,0.0,0.0,-3.7305,-3.7305,-3.7305,-3.7305,-3.7305,-3.7305,-3.7305,-3.7363,-3.7441,-3.7441,-3.7519,-3.7598,-3.7598,-3.7871,-3.8242,-3.8633,-3.9023,-3.9394,-3.9824,-3.998,-4.0039,-4.0039,-4.0,-3.998,-4.0039,-4.0078,-4.0254,-4.0684,-4.1074,-4.1465,-4.1836,0.0,0.0,-4.2422,-4.2422,-4.2422,-4.2422,-4.2422,-4.209,-4.1348,-4.1308,-4.0937,-4.0117,-4.0117,-4.0059,-3.9961,-3.9551,-3.9141,-3.8691,-3.7793,-3.7148,0.0,0.0,0.0,0.0,0.0,0.0,0.0,0.0,0.0,0.0,0.0,0.0,0.0,0.0,0.0,-2.9638,-3.0876,-3.2051,-3.2051,-3.2266,-3.2461,-3.2539,-3.2539,-3.2891,-3.375,-3.3828,-3.4004,-3.4414,-3.4883,-3.5137,-3.5137,-3.5625,-3.5898,-3.5898,-3.6328,-3.6543,-3.6543,-3.6973,-3.7168,-3.7168,0.0,0.0,-3.7305,-3.7656,-3.7812,-3.7832,-3.8535,-3.8828,-3.8867,-3.9238,-3.9394,-3.9258,-3.7851,-3.7305,-3.7305,-3.7305,-3.7305,-3.7305,-3.7305,-3.7305,-3.7305,-3.7305,-3.7305,-3.7305,-3.7305,-3.7305,0.0,-3.7305,-3.7793,-3.832,-3.832,-3.8867,-3.9394,-3.9394,-3.9453,-3.9531,-3.9629,-3.9707,-3.9785,-3.9883,-4.0449,-4.0918,-4.0918,-4.0625,-4.0527,-4.0879,-4.1211,-4.1582,-4.2012,-4.2129,-4.2207,-4.2305,-4.2383,-4.2422,-4.2422,-4.2422,-4.2422,-4.2422,-4.2422,-4.2344,-4.2187,-4.2187,-4.1953,-4.1445,-4.1426,-4.1094,-4.041,-4.0312,-4.0059,-3.9609,-3.8379,-3.7578,0.0,0.0,0.0,0.0,0.0,0.0,0.0,0.0,0.0,0.0,0.0,-2.7847,0.0,0.0,-2.9941,-2.8323,-3.0705,-3.2525,-3.1615,-3.2815,-3.3594,-3.3164,-3.3301,-3.3769,-3.4648,-3.4726,-3.4902,-3.5332,-3.5566,-3.5801,-3.6016,-3.623,-3.6445,-3.666,-3.6875,-3.6992,-3.6992,-3.7402,-3.7715,-3.7949,-3.8144,-3.8379,-3.8613,-3.8809,-3.8906,-3.8926,-3.9355,-3.9551,-3.957,-3.9805,-3.9902,-3.9805,-3.8945,-3.8594,-3.8594,-3.8594,-3.8594,-3.8594,-3.8594,-3.8594,-3.8594,-3.8594,-3.8594,-3.8594,-3.8594,-3.8594,-3.8594,-3.8594,-3.8906,-3.9238,-3.9238,-3.957,-3.9902,-3.9902,-4.0059,-4.0273,-4.0488,-4.0703,-4.0918,-4.1113,-4.1504,-4.1797,-4.1797,-4.1621,-4.1543,-4.1777,-4.1973,-4.2187,-4.2402,-4.2617,-4.2754,-4.2754,-4.2949,-4.3066,-4.3066,-4.3066,-4.3066,-4.3066,-4.3066,-4.2969,-4.2754,-4.2754,-4.2558,-4.2129,-4.2109,-4.1914,-4.1465,-4.1465,-4.125,-4.084,-4.0176,-3.9277,0.0,0.0,0.0,0.0,0.0,0.0,0.0,0.0,-2.7435,-2.5594,-2.5886,-2.6254,-2.5628,-2.7554,-2.8724,-2.7416,-3.0173,-3.2113,-3.1135,-3.2843,-3.3896,-3.28,-3.3695,-3.4648,-3.543,-3.5508,-3.5684,-3.6113,-3.6152,-3.6348,-3.6758,-3.6797,-3.6953,-3.7285,-3.7461,-3.7539,-3.7539,-3.8047,-3.8476,-3.8828,-3.918,-3.9531,-3.9902,-3.9902,-3.9902,-3.9902,-3.998,-4.0078,-4.0137,-4.0137,-4.0137,-4.0137,-4.0137,-4.0137,-4.0117,-3.9961,-3.9902,-3.9902,-3.9902,-3.9902,-3.9902,-3.9902,-3.9902,-3.9902,-3.9902,-3.9902,-3.9902,-3.9902,-4.0019,-4.0137,-4.0137,-4.0273,-4.0391,-4.0391,-4.0644,-4.0996,-4.1348,-4.168,-4.2031,-4.2363,-4.25,-4.2558,-4.2558,-4.2617,-4.2656,-4.2558,-4.2558,-4.2578,-4.2656,-4.2988,-4.3203,-4.3203,-4.3496,-4.3711,-4.3711,-4.3711,-4.3711,-4.3711,-4.3711,-4.3555,-4.3223,-4.3203,-4.3027,-4.2676,-4.2676,-4.2637,-4.2558,-4.2558,-4.2324,-4.1914,-4.1914,-4.1035,-2.4801,-2.5485,-2.5869,-2.5902,-2.604,-2.5813,0.0,0.0,-2.5702,-2.2751,-2.4644,-2.6009,-2.3088,-2.539,-2.7798,-2.8129,-2.8776,-2.9696,-3.1532,-3.2367,-3.2058,-3.0307,-3.3108,-3.543,-3.5898,-3.5957,-3.6133,-3.6562,-3.6601,-3.6777,-3.7207,-3.7226,-3.7246,-3.7305,-3.8027,-3.8437,-3.8437,-3.9258,-3.9707,-3.9746,-3.9805,-3.9844,-3.9902,-3.9902,-3.9902,-3.9922,-4.0293,-4.0664,-4.1035,-4.1035,-4.1035,-4.1035,-4.1035,-4.1035,-4.0937,-4.0176,-3.9902,-3.9902,-3.9902,-3.9902,-3.9902,-3.9902,-3.9902,-3.9902,-3.9902,-3.9902,-3.9902,-3.9902,-4.0449,-4.1035,-4.1035,-4.1582,-4.2148,-4.2148,-4.2187,-4.2226,-4.2285,-4.2324,-4.2363,-4.2422,-4.2734,-4.3008,-4.3008,-4.332,-4.3437,-4.3066,-4.3008,-4.3144,-4.3516,-4.3613,-4.3633,-4.3633,-4.3672,-4.3711,-4.3711,-4.3711,-4.3711,-4.3711,-4.3711,-4.3691,-4.3633,-4.3633,-4.3613,-4.3574,-4.3555,-4.3379,-4.3008,-4.3008,-4.2773,-4.2363,-4.2363,-4.1641,-2.2661,-2.2959,0.0,0.0,-2.3943,-2.4454,-2.2863,-2.3843,-2.4577,-2.2312,-2.3187,-2.3983,-2.2727,-2.4713,-2.6387,0.0,-2.7736,-2.9523,-3.0635,-3.0977,-3.1356,-3.1652,-3.3411,-3.4389,-3.4314,-3.3508,-3.4006,-3.6502,-3.4692,-3.47,-3.7494,-3.6702,-3.6929,-3.8398,-3.9004,-3.9336,-3.9336,-3.9707,-4.0019,-4.0254,-4.0254,-4.0527,-4.0996,-4.0996,-4.1133,-4.1387,-4.1562,-4.1738,-4.1894,-4.1894,-4.1894,-4.1894,-4.1894,-4.1894,-4.1836,-4.123,-4.0996,-4.1035,-4.1289,-4.1367,-4.1367,-4.1367,-4.1367,-4.1367,-4.1367,-4.1367,-4.1367,-4.1367,-4.1621,-4.1894,-4.1894,-4.2168,-4.2422,-4.2422,-4.2422,-4.25,-4.2754,-4.2812,-4.2871,-4.3125,-4.332,-4.3437,-4.3437,-4.3594,-4.3652,-4.3476,-4.3437,-4.3496,-4.3691,-4.3711,-4.3711,-4.3711,-4.3711,-4.3711,-4.3711,-4.3711,-4.3711,-4.3711,-4.3711,-4.3711,-4.3711,-4.3711,-4.3711,-4.3711,-4.3711,-4.3613,-4.3437,-4.3437,-4.334,-4.3164,-4.3164,-4.2754,-2.1069,0.0,0.0,-2.1256,-2.2326,-2.3178,-2.193,-2.2786,-2.3548,-2.2471,-2.2458,-2.2766,-2.306,-2.4372,-2.5308,-2.4804,-2.6706,-2.8428,-2.9087,-2.9454,-2.9932,-3.0885,-3.1708,-3.2096,-3.1941,-3.1718,-3.2785,-3.5105,-3.2982,-3.3197,-3.7207,-3.6386,-3.6904,-3.9375,-3.9824,-4.0078,-4.0078,-4.0312,-4.0566,-4.0879,-4.0996,-4.1367,-4.1973,-4.1973,-4.2129,-4.2422,-4.2422,-4.2422,-4.2422,-4.2422,-4.2422,-4.2422,-4.2422,-4.2422,-4.2402,-4.2226,-4.207,-4.2012,-4.2324,-4.2422,-4.2422,-4.2422,-4.2422,-4.2422,-4.2422,-4.2422,-4.2422,-4.2422,-4.2519,-4.2598,-4.2598,-4.2695,-4.2773,-4.2773,-4.2773,-4.2871,-4.3183,-4.3242,-4.334,-4.3652,-4.3711,-4.3711,-4.3711,-4.3711,-4.375,-4.3867,-4.3887,-4.3848,-4.373,-4.3808,-4.3945,-4.4062,-4.4062,-4.4062,-4.4062,-4.4062,-4.4062,-4.4062,-4.4062,-4.4062,-4.4062,-4.4062,-4.4023,-4.3906,-4.3887,-4.3828,-4.3711,-4.3711,-4.3711,-4.3711,-4.3711,-4.3535,0.0,0.0,-2.1897,-2.1617,-2.175,-2.2109,-2.1977,-2.2191,-2.2485,-2.2779,-2.3086,-2.3394,-2.3688,-2.3897,-2.4534,-2.6624,-2.5453,-2.5146,-2.7301,-2.7635,-2.7042,-2.5473,-2.6963,-2.8251,0.0,-3.1969,-3.3436,-3.2044,-3.2107,-3.3399,-3.6074,-3.6471,-3.7644,-3.9863,-4.0273,-4.0508,-4.0508,-4.1328,-4.1758,-4.1758,-4.2168,-4.2383,-4.2402,-4.2402,-4.2422,-4.2422,-4.2422,-4.2422,-4.2422,-4.2422,-4.2422,-4.2422,-4.2422,-4.2422,-4.248,-4.2891,-4.2773,-4.2402,-4.2422,-4.2422,-4.2422,-4.2422,-4.2422,-4.2422,-4.2422,-4.2422,-4.2422,-4.2422,-4.2734,-4.3066,-4.3066,-4.3359,-4.3672,-4.3672,-4.3672,-4.3672,-4.3691,-4.3691,-4.3691,-4.3711,-4.3711,-4.3711,-4.3711,-4.3711,-4.3848,-4.4316,-4.4375,-4.4219,-4.3769,-4.4101,-4.4531,-4.4941,-4.498,-4.498,-4.498,-4.498,-4.498,-4.498,-4.498,-4.498,-4.498,-4.498,-4.4785,-4.4394,-4.4375,-4.416,-4.3711,-4.3711,-4.3711,-4.3711,-4.3711,-4.3691,0.0,0.0,-2.2004,-2.2111,-2.2352,-2.2619,-2.2832,-2.31,-2.334,-2.3447,-2.3554,-2.3714,-2.4008,-2.4062,-2.4286,-2.5285,-2.4915,-2.5304,-2.7496,-2.6671,-2.6206,-2.7251,-2.8056,0.0,0.0,0.0,0.0,-3.1988,-3.005,-3.0996,-3.6183,-3.4216,-3.5326,-4.0569,-3.9669,-4.0009,-4.1777,-4.207,-4.2207,-4.2226,-4.2656,-4.2851,-4.2871,-4.3144,-4.3281,-4.3281,-4.3281,-4.3281,-4.3281,-4.3281,-4.3281,-4.3281,-4.3281,-4.3281,-4.3301,-4.3437,-4.3398,-4.3281,-4.3281,-4.3281,-4.3281,-4.3281,-4.3281,-4.3281,-4.3281,-4.3281,-4.3281,-4.3281,-4.3379,-4.3496,-4.3496,-4.3594,-4.3711,-4.3711,-4.3711,-4.3711,-4.3711,-4.3711,-4.3711,-4.3711,-4.3945,-4.416,-4.416,-4.4394,-4.4629,-4.4785,-4.4824,-4.4766,-4.459,-4.4707,-4.4863,-4.5,-4.5019,-4.5019,-4.5019,-4.5019,-4.5019,-4.5019,-4.5019,-4.5019,-4.5019,-4.5019,-4.4961,-4.4824,-4.4824,-4.4746,-4.459,-4.459,-4.4433,-4.416,-4.416,-4.4004,-2.2138,-2.2298,-2.2512,-2.2699,-2.2966,-2.3233,-2.3434,-2.3634,-2.3794,-2.3901,-2.3928,-2.4008,-2.4302,-2.4356,-2.4422,-2.4609,-2.473,-2.5296,-2.6652,-2.5896,-2.5827,-2.7435,-2.7956,-2.7792,0.0,0.0,0.0,-3.0247,-2.8382,-2.9324,-3.4417,-3.3339,-3.4506,-3.897,-3.9708,-4.031,-4.1257,-4.2236,-4.2734,-4.2891,-4.3164,-4.3301,-4.3301,-4.3574,-4.3711,-4.3711,-4.3711,-4.3711,-4.3711,-4.3711,-4.3711,-4.3711,-4.3711,-4.3711,-4.3711,-4.3711,-4.3711,-4.3711,-4.3711,-4.3711,-4.3711,-4.3711,-4.3711,-4.3711,-4.3711,-4.3711,-4.3711,-4.3711,-4.3711,-4.3711,-4.3711,-4.3711,-4.3711,-4.3711,-4.3711,-4.3711,-4.3711,-4.3828,-4.3945,-4.3945,-4.4316,-4.4629,-4.4629,-4.498,-4.5254,-4.5254,-4.5391,-4.543,-4.5273,-4.5254,-4.5312,-4.5469,-4.5488,-4.5488,-4.5488,-4.5488,-4.5488,-4.5488,-4.5488,-4.5488,-4.5488,-4.5488,-4.541,-4.5254,-4.5254,-4.5176,-4.5019,-4.5019,-4.4883,-4.4629,-4.4629,-4.4473,-2.2472,-2.2899,-2.3354,-2.3367,-2.3581,-2.3794,-2.3808,-2.3808,-2.3888,-2.4168,-2.4222,-2.4302,0.0,0.0,-2.4636,-2.4636,-2.489,-2.5077,-2.5104,-2.5371,-2.5772,0.0,0.0,0.0,0.0,0.0,0.0,-2.7335,0.0,-2.8814,-3.1241,-3.3699,-3.5212,-3.5574,-3.9595,-4.0952,-3.8976,-4.155,-4.3137,-4.3526,-4.3711,-4.3711,-4.3526,-4.3711,-4.3711,-4.3711,-4.3711,-4.3711,-4.3711,-4.3711,-4.3711,-4.3711,-4.3711,-4.3711,-4.3711,-4.3711,-4.3711,-4.3711,-4.3711,-4.3711,-4.3711,-4.3711,-4.3711,-4.3711,-4.3711,-4.3711,-4.3711,-4.3711,-4.3711,-4.3711,-4.3711,-4.373,-4.373,-4.373,-4.375,-4.3769,-4.3769,-4.4121,-4.4433,-4.4433,-4.4766,-4.5058,-4.5078,-4.543,-4.5703,-4.5703,-4.6055,-4.6152,-4.5762,-4.5703,-4.5859,-4.6269,-4.6308,-4.6308,-4.6308,-4.6308,-4.6308,-4.6308,-4.6308,-4.6308,-4.6308,-4.6308,-4.6113,-4.5723,-4.5703,-4.5508,-4.5098,-4.5098,-4.5078,-4.5058,-4.5058,-4.5039,-2.31,-2.3367,-2.3714,-2.3928,-2.4035,-2.4155,-2.4369,-2.4422,-2.4436,-2.4516,-2.4529,-2.4556,0.0,0.0,0.0,-2.4636,-2.489,0.0,-2.5371,-2.5838,0.0,0.0,0.0,-2.7188,-2.7549,-2.7789,0.0,0.0,-2.8123,-2.9132,-3.1569,-3.0922,-3.2253,-3.5951,-3.5629,-3.5929,-3.7403,-3.9724,-4.1026,-4.1118,-4.2844,-4.2844,-4.1286,-4.301,-4.3711,-4.3711,-4.3711,-4.3711,-4.3711,-4.3711,-4.3711,-4.3711,-4.3711,-4.3711,-4.3711,-4.3711,-4.3711,-4.3711,-4.3711,-4.3711,-4.3711,-4.3711,-4.3711,-4.3711,-4.3711,-4.3711,-4.3711,-4.3711,-4.3711,-4.3711,-4.3711,-4.3965,-4.4219,-4.4219,-4.4453,-4.4687,-4.4687,-4.4785,-4.4863,-4.4863,-4.5215,-4.5605,-4.5918,-4.6074,-4.6152,-4.6152,-4.623,-4.6269,-4.6152,-4.6152,-4.6191,-4.6289,-4.6308,-4.6308,-4.6308,-4.6308,-4.6308,-4.6308,-4.6308,-4.6308,-4.6308,-4.6308,-4.625,-4.6152,-4.6152,-4.6094,-4.5976,-4.5976,-4.582,-4.5508,-4.5508,-4.5332,-2.3634,-2.3834,-2.4035,-2.4329,-2.4396,-2.4436,-2.4596,-2.4636,-2.4636,-2.4636,-2.4636,0.0,0.0,0.0,0.0,0.0,0.0,0.0,-2.5838,-2.6293,-2.6734,0.0,-2.7468,0.0,-2.807,-2.8364,-2.8604,0.0,-2.8631,-2.9159,-3.0637,-3.0662,-3.157,-3.3429,-3.4124,-3.5256,-3.683,-3.8032,-3.8715,-3.8715,-4.1118,-4.095,-3.8885,-4.1118,-4.2141,-4.2141,0.0,-4.2844,-4.3711,-4.3711,-4.3176,-4.2326,-4.3361,-4.301,-4.2326,-4.3361,-4.3828,-4.4004,-4.4004,-4.4121,-4.4219,-4.3828,-4.3711,-4.375,-4.3945,-4.4004,-4.4043,-4.4238,-4.4277,-4.4277,-4.4277,-4.4473,-4.4668,-4.4668,-4.4863,-4.5019,-4.5019,-4.5176,-4.5371,-4.5547,-4.5781,-4.6035,-4.6269,-4.6308,-4.6308,-4.6308,-4.6308,-4.6308,-4.6308,-4.6308,-4.6308,-4.6308,-4.6308,-4.6308,-4.6308,-4.6308,-4.6308,-4.6308,-4.6308,-4.6308,-4.6308,-4.6308,-4.6308,-4.6308,-4.6308,-4.6308,-4.6308,-4.6308,-4.6191,-4.5957,-4.5957,-4.582,-2.4048,-2.4235,-2.4329,-2.4569,-2.4636,-2.4636,-2.4636,-2.4636,-2.4636,-2.4636,0.0,-2.4636,-2.4636,-2.4636,-2.473,-2.5037,0.0,-2.5718,-2.6306,-2.6667,-2.7094,-2.7682,-2.8016,-2.8323,-2.8631,-2.8925,-2.9098,-2.9098,-2.9138,-2.9259,-2.9472,-3.1393,-3.1711,-2.9913,-3.3731,-3.5967,-3.6313,-3.6313,-3.6313,-3.6313,-3.8715,-3.8545,-3.6485,-3.8715,-4.0072,-4.0259,-4.0259,-4.1453,-4.3195,-4.3253,-4.2235,-4.0518,-4.2645,-4.2329,-4.1097,-4.3183,-4.4141,-4.4473,-4.4136,-4.4369,-4.4902,-4.4121,-4.3887,-4.3965,-4.4355,-4.4492,-4.4551,-4.4922,-4.5019,-4.5019,-4.5019,-4.5058,-4.5117,-4.5117,-4.5156,-4.5195,-4.5195,-4.5488,-4.5859,-4.623,-4.6308,-4.6308,-4.6308,-4.6308,-4.6308,-4.6308,-4.6348,-4.6387,-4.6387,-4.6328,-4.6328,-4.6387,-4.6387,-4.6406,-4.6465,-4.6465,-4.6465,-4.6465,-4.6426,-4.6387,-4.6387,-4.6328,-4.6308,-4.6308,-4.6308,-4.6308,-4.6308,-4.6308,-4.6308,-4.6308,-4.6308,-4.6308,-2.4115,-2.4382,-2.4569,-2.4623,-2.4636,-2.4636,-2.4636,-2.4636,0.0,0.0,-2.4636,-2.4636,-2.4636,-2.4636,0.0,-2.5037,0.0,0.0,0.0,0.0,-2.7402,0.0,0.0,0.0,0.0,0.0,0.0,0.0,0.0,-2.9686,-2.9499,-3.0055,-3.0204,-2.9913,-3.0602,-3.1997,-3.3907,-3.3907,-3.3907,-3.4082,-3.6313,-3.614,-3.4082,-3.6313,-3.8545,-4.0259,-4.0259,0.0,-4.0969,-4.1147,-4.1105,-4.08,-4.1487,-4.2855,-4.4257,-4.4616,-4.4844,-4.4562,-4.2604,-4.3195,-4.5,-4.4844,-4.4785,-4.4805,-4.4902,-4.4922,-4.4941,-4.5,-4.5019,-4.5019,-4.5019,-4.5293,-4.5566,-4.5566,-4.582,-4.6074,-4.6074,-4.6133,-4.6211,-4.6289,-4.6308,-4.6308,-4.6308,-4.6308,-4.6308,-4.6308,-4.6601,-4.6816,-4.6816,-4.6523,-4.6426,-4.6777,-4.6816,-4.6973,-4.7324,-4.7363,-4.7363,-4.7363,-4.7012,-4.6816,-4.6816,-4.6484,-4.6308,-4.6308,-4.6308,-4.6308,-4.6308,-4.6308,-4.6308,-4.6308,-4.6308,-4.6308,-2.4302,-2.4529,-2.4636,-2.4636,-2.4636,-2.4636,-2.4636,0.0,0.0,0.0,-2.4636,-2.4636,-2.4636,0.0,0.0,0.0,0.0,0.0,0.0,0.0,0.0,0.0,0.0,0.0,0.0,0.0,0.0,0.0,0.0,-2.986,-2.9713,-2.9847,-2.9913,-2.9913,-2.9913,-3.0437,-3.1657,-3.1657,-3.1657,-3.1657,-3.3907,-3.3907,-3.1657,-3.3907,-3.5716,-3.6921,-3.6921,0.0,-3.8976,-3.9165,-3.8534,-3.7672,-4.0333,-4.0578,-3.9685,-4.2179,-4.2481,-4.1405,-4.0155,-4.0648,-4.208,-4.3328,-4.43,-4.5058,-4.5293,-4.5371,-4.541,-4.5625,-4.5683,-4.5683,-4.5683,-4.584,-4.5996,-4.5996,-4.6152,-4.6308,-4.6308,-4.6308,-4.6308,-4.6308,-4.6308,-4.6308,-4.6308,-4.6484,-4.6621,-4.6621,-4.6992,-4.7266,-4.7266,-4.709,-4.7051,-4.7246,-4.7266,-4.7363,-4.7558,-4.7578,-4.7578,-4.7578,-4.7383,-4.7266,-4.7266,-4.707,-4.6973,-4.6973,-4.6738,-4.6621,-4.6621,-4.6406,-4.6308,-4.6308,-4.6308,-4.6308,-2.4476,-2.4636,-2.4636,-2.4636,-2.4636,-2.4636,-2.4636,-2.4636,0.0,0.0,-2.4636,-2.4636,-2.4636,0.0,0.0,0.0,0.0,0.0,0.0,0.0,0.0,0.0,0.0,0.0,0.0,0.0,0.0,0.0,0.0,0.0,-2.9913,-2.9913,-2.9913,-2.9913,-2.9913,-2.9913,-2.9913,-2.9913,-2.9913,-2.9913,-3.1891,-3.1756,-3.0007,-3.1991,-3.3205,-3.3978,-3.3978,-3.5009,0.0,-3.7111,-3.6067,-3.4638,-3.8652,-3.8135,-3.5635,-3.9573,-3.9939,-3.8383,-3.7841,-3.8564,-4.0084,-4.1349,-4.3107,-4.4645,-4.553,-4.582,-4.5879,-4.6211,-4.6308,-4.6308,-4.6308,-4.6308,-4.6308,-4.6308,-4.6308,-4.6308,-4.6308,-4.6308,-4.6308,-4.6308,-4.6367,-4.6445,-4.6445,-4.6797,-4.707,-4.707,-4.7441,-4.7715,-4.7715,-4.7793,-4.7851,-4.7851,-4.7773,-4.7754,-4.7851,-4.7851,-4.7851,-4.7851,-4.7773,-4.7715,-4.7715,-4.7637,-4.7578,-4.7578,-4.7246,-4.707,-4.707,-4.6641,-4.6445,-4.6426,-4.6348,-4.6308,-2.4476,-2.4636,-2.4636,-2.4636,-2.4636,-2.4636,-2.4636,0.0,0.0,-2.4636,-2.4636,-2.4636,-2.4636,-2.4877,0.0,0.0,0.0,-2.656,0.0,0.0,0.0,0.0,0.0,0.0,0.0,0.0,0.0,0.0,0.0,0.0,-2.9913,-2.9913,-2.9913,-2.9913,-2.9913,-2.9913,-2.9913,-2.9913,-2.9913,-2.9927,-3.0361,-3.0496,-3.0327,-3.0765,-3.2155,-3.4126,-3.4126,-3.4322,0.0,-3.4863,-3.4983,-3.483,-3.5668,-3.6881,-3.853,-3.9076,-3.9092,-3.8579,-3.6375,-3.8579,-4.1905,-3.9903,-4.0936,-4.3261,-4.5491,-4.625,-4.625,-4.6289,-4.6308,-4.6308,-4.6308,-4.6308,-4.6308,-4.6308,-4.6308,-4.6308,-4.6308,-4.6308,-4.6308,-4.6308,-4.6601,-4.6875,-4.6875,-4.7226,-4.7519,-4.7519,-4.7871,-4.8144,-4.8144,-4.8496,-4.875,-4.875,-4.8379,-4.8301,-4.8711,-4.875,-4.875,-4.875,-4.8359,-4.8144,-4.8144,-4.7793,-4.7578,-4.7578,-4.7539,-4.7519,-4.7519,-4.709,-4.6875,-4.6855,-4.6484,-4.6308,-2.4476,-2.4636,-2.4636,-2.4636,-2.4636,-2.4636,-2.4636,0.0,-2.4636,-2.4636,-2.4636,-2.4636,-2.4636,-2.5024,-2.5384,0.0,0.0,0.0,0.0,0.0,0.0,0.0,0.0,0.0,0.0,0.0,0.0,0.0,0.0,0.0,-2.9913,-2.9913,-2.9913,-2.9913,-2.9913,-3.0007,-3.0181,-3.0181,-3.0274,-3.0448,-3.0568,-3.0621,-3.0621,-3.0742,-3.143,-3.2306,-3.2306,-3.2603,0.0,-3.2911,-3.2953,-3.3154,-3.4735,-3.4966,-3.4779,-3.6252,-3.5881,-3.442,-3.3511,-3.5323,-3.8246,-3.8811,-4.0627,-4.2996,-4.5568,-4.6308,-4.6308,-4.6308,-4.6308,-4.6308,-4.6308,-4.6308,-4.6308,-4.6308,-4.6308,-4.6308,-4.6308,-4.6504,-4.668,-4.668,-4.7031,-4.7324,-4.7324,-4.7676,-4.7949,-4.7949,-4.832,-4.8594,-4.8594,-4.875,-4.8867,-4.8867,-4.8711,-4.8672,-4.8848,-4.8867,-4.8867,-4.8867,-4.8691,-4.8594,-4.8594,-4.8437,-4.834,-4.834,-4.8086,-4.7949,-4.7949,-4.7519,-4.7187,-4.6933,-4.6758,-4.6543,-2.4369,-2.4569,-2.4636,-2.4636,-2.4636,-2.4636,0.0,0.0,-2.4636,-2.4636,-2.4636,-2.4636,-2.4636,-2.5117,-2.5518,-2.5518,-2.6319,-2.7028,-2.7241,0.0,0.0,0.0,0.0,0.0,0.0,0.0,0.0,0.0,0.0,0.0,-2.9913,-3.0007,-3.0047,-3.0047,-3.0047,-3.0194,-3.0488,-3.0488,-3.0595,-3.0795,-3.0875,-3.0915,-3.0929,-3.1009,-3.1169,-3.1356,-3.1356,-3.1476,0.0,-3.1664,-3.1664,-3.1853,-3.3497,-3.3135,-3.1853,-3.3685,-3.3135,-3.1664,-3.1664,-3.3685,-3.6606,-3.8445,-4.0627,-4.2996,-4.4649,-4.5744,-4.6308,-4.6308,-4.6308,-4.6308,-4.6308,-4.6387,-4.6484,-4.6484,-4.6582,-4.668,-4.668,-4.6914,-4.7129,-4.7129,-4.7461,-4.7773,-4.7773,-4.8125,-4.8398,-4.8398,-4.8672,-4.8867,-4.8867,-4.8867,-4.8867,-4.8867,-4.8867,-4.8867,-4.8867,-4.8867,-4.8867,-4.8867,-4.8867,-4.8867,-4.8867,-4.8867,-4.8867,-4.8867,-4.8555,-4.8398,-4.8398,-4.7969,-4.7617,-4.7305,-4.7187,-4.6894,-2.4128,-2.4422,-2.4636,-2.4636,-2.4636,-2.4636,0.0,0.0,-2.4636,-2.4636,-2.4636,-2.4636,-2.4636,-2.5117,-2.5518,-2.5518,-2.6493,-2.7268,-2.7268,-2.8283,0.0,0.0,0.0,0.0,0.0,0.0,0.0,0.0,0.0,0.0,-2.9913,-3.0194,-3.0354,-3.0354,-3.0354,-3.0488,-3.0782,-3.0795,-3.0795,-3.0795,-3.1089,-3.1223,-3.1236,-3.153,-3.1664,-3.1664,-3.1664,-3.1664,0.0,-3.1664,-3.1664,-3.1664,-3.1664,-3.1664,-3.1664,-3.1664,-3.1664,-3.1664,-3.1664,-3.4981,-3.8993,-3.8977,-4.0627,-4.2621,-4.2621,-4.4277,-4.6308,-4.6308,-4.6308,-4.6308,-4.6308,-4.6621,-4.6914,-4.6914,-4.7246,-4.7578,-4.7578,-4.7578,-4.7578,-4.7578,-4.791,-4.8203,-4.8203,-4.8555,-4.8848,-4.8848,-4.8867,-4.8867,-4.8867,-4.8867,-4.8867,-4.8867,-4.8867,-4.8867,-4.8867,-4.8867,-4.8867,-4.8867,-4.8867,-4.8867,-4.8867,-4.8867,-4.8867,-4.8867,-4.8848,-4.8848,-4.8848,-4.8418,-4.8203,-4.8183,-4.7773,-4.7344,-2.4128,-2.4422,-2.4636,-2.4636,-2.4636,-2.4636,-2.4636,0.0,-2.4636,-2.4636,-2.4636,-2.4636,-2.4636,-2.5117,-2.5518,-2.5518,-2.6493,-2.7268,-2.7268,0.0,0.0,0.0,0.0,0.0,0.0,0.0,0.0,0.0,0.0,0.0,-3.0207,-3.0314,-3.0354,-3.0354,-3.0555,-3.0795,-3.1089,-3.1089,-3.1196,-3.1396,-3.149,-3.153,-3.153,-3.1623,-3.1664,-3.1664,-3.1664,-3.1664,-3.1664,-3.1664,-3.1664,-3.1664,-3.1664,-3.1664,-3.1664,-3.1664,-3.1664,-3.1664,-3.1664,-3.3873,-3.6421,-3.6421,-3.8062,-4.0084,-4.0084,-4.0627,-4.1726,-4.3371,-4.393,-4.4689,-4.6365,-4.7051,-4.7383,-4.7383,-4.748,-4.7578,-4.7578,-4.7812,-4.8008,-4.8008,-4.8359,-4.8652,-4.8652,-4.8769,-4.8867,-4.8867,-4.8867,-4.8867,-4.8867,-4.8867,-4.8867,-4.8867,-4.8867,-4.8867,-4.8867,-4.8867,-4.8867,-4.8867,-4.8867,-4.8867,-4.8867,-4.8867,-4.8867,-4.8867,-4.8867,-4.8867,-4.8867,-4.873,-4.8496,-4.8203,-4.7773,-4.75,0.0,-2.4329,-2.4636,-2.4636,-2.4636,0.0,0.0,0.0,0.0,-2.4636,-2.4636,-2.4676,-2.4783,-2.5197,-2.5545,-2.5665,-2.6573,-2.7268,-2.7268,0.0,0.0,0.0,0.0,0.0,0.0,0.0,0.0,0.0,0.0,0.0,-3.0501,-3.0621,-3.0688,-3.0688,-3.0862,-3.1102,-3.1383,-3.1396,-3.149,-3.1664,-3.1664,-3.1664,-3.1664,-3.1664,-3.1664,-3.1664,-3.1664,-3.1664,0.0,-3.1664,-3.1664,-3.1664,-3.1664,-3.1664,-3.1664,-3.1664,-3.1664,-3.1664,-3.1664,-3.3323,-3.5323,-3.5323,-3.6421,-3.736,-3.6575,-3.7718,-3.9557,-4.1015,-4.2402,-4.3815,-4.5299,-4.6742,-4.7812,-4.7812,-4.7949,-4.8066,-4.8066,-4.8262,-4.8457,-4.8457,-4.8672,-4.8867,-4.8867,-4.8867,-4.8867,-4.8867,-4.8867,-4.8867,-4.8867,-4.8867,-4.8867,-4.8867,-4.8867,-4.8867,-4.8867,-4.8867,-4.8867,-4.8867,-4.8867,-4.8867,-4.8867,-4.8867,-4.8867,-4.8867,-4.8867,-4.8867,-4.8867,-4.8867,-4.8711,-4.8437,-4.8008,-4.7812,0.0,-2.4195,0.0,0.0,0.0,0.0,0.0,0.0,0.0,0.0,0.0,0.0,-2.5024,-2.5317,-2.5611,-2.5932,-2.6707,-2.7281,-2.7321,0.0,0.0,0.0,0.0,0.0,0.0,0.0,0.0,0.0,0.0,0.0,-3.0808,-3.1076,-3.1236,-3.1249,-3.1263,-3.1383,-3.1664,-3.1664,-3.1664,-3.1664,-3.1664,-3.1664,-3.1664,-3.1664,-3.1664,0.0,-3.1664,-3.1664,0.0,-3.1664,-3.1664,-3.1664,-3.1664,-3.1664,-3.1664,-3.1664,-3.1664,-3.1664,-3.1664,-3.3135,-3.4966,-3.4966,-3.4981,-3.468,-3.2763,-3.5265,-3.8966,-3.9184,-4.1303,-4.348,-4.3664,-4.6032,-4.8262,-4.8262,-4.8555,-4.8867,-4.8867,-4.8867,-4.8867,-4.8867,-4.8867,-4.8867,-4.8867,-4.8867,-4.8867,-4.8867,-4.8867,-4.8867,-4.8867,-4.8867,-4.8867,-4.8867,-4.8867,-4.8867,-4.8867,-4.8867,-4.8867,-4.8867,-4.8867,-4.8867,-4.8867,-4.8867,-4.8867,-4.8867,-4.8867,-4.8867,-4.8867,-4.8867,-4.8867,-4.8848,-4.8437,-4.8262,-2.3768,0.0,-2.4636,-2.4636,-2.4636,0.0,0.0,0.0,0.0,0.0,0.0,0.0,0.0,-2.5317,-2.5678,-2.6199,-2.6841,-2.7428,-2.7869,0.0,0.0,0.0,0.0,0.0,0.0,0.0,0.0,0.0,0.0,-3.0581,-3.1089,-3.1196,-3.133,-3.1557,-3.157,-3.1597,-3.1664,-3.1664,-3.1664,-3.1664,-3.1664,-3.1664,-3.1664,-3.1664,-3.1664,-3.1664,-3.1664,-3.1664,-3.1664,-3.1664,-3.1664,-3.1664,-3.1664,-3.1664,-3.1664,-3.1664,-3.1664,-3.1664,-3.1664,-3.2029,-3.2583,-3.2583,-3.2748,-3.275,-3.227,-3.2846,-3.4198,-3.6306,-3.9066,-4.18,-4.3688,-4.6464,-4.8711,-4.8711,-4.8789,-4.8867,-4.8867,-4.8867,-4.8867,-4.8867,-4.8867,-4.8867,-4.8867,-4.8867,-4.8867,-4.8867,-4.8867,-4.8867,-4.8867,-4.8867,-4.8867,-4.8867,-4.8867,-4.8867,-4.8867,-4.8867,-4.8867,-4.8867,-4.8867,-4.8867,-4.8867,-4.8867,-4.8867,-4.8867,-4.8867,-4.8867,-4.8867,-4.8867,-4.8867,-4.8867,-4.875,-4.8711,-2.3768,-2.4195,-2.4636,-2.4636,-2.4636,-2.4636,0.0,0.0,0.0,0.0,0.0,0.0,0.0,0.0,0.0,-2.6466,-2.6974,-2.7562,0.0,0.0,0.0,0.0,0.0,0.0,0.0,0.0,0.0,0.0,0.0,-3.0955,-3.141,-3.1423,-3.1503,-3.1664,-3.1664,-3.1664,-3.1664,-3.1664,-3.1664,-3.1664,-3.1664,-3.1664,-3.1664,-3.1664,-3.1664,-3.1664,-3.1664,-3.1664,-3.1664,-3.1664,-3.1664,-3.1664,-3.1664,-3.1664,-3.1664,-3.1664,-3.1664,-3.1664,-3.1664,-3.1664,-3.169,-3.1824,-3.1971,-3.2158,-3.2425,-3.2505,-3.2922,-3.4407,-3.7724,-4.124,-4.2571,-4.5982,-4.8867,-4.8867,-4.8867,-4.8867,-4.8867,-4.8867,-4.8867,-4.8867,-4.8867,-4.8867,-4.8867,-4.8867,-4.8867,-4.8867,-4.8867,-4.8867,-4.8867,-4.8867,-4.8867,-4.8867,-4.8867,-4.8867,-4.8867,-4.8867,-4.8867,-4.8867,-4.8867,-4.8867,-4.8867,-4.8867,-4.8867,-4.8867,-4.8867,-4.8867,-4.8867,-4.8867,-4.8867,-4.8867,-4.8867,-4.8867,-2.3768,-2.4195,-2.4636,-2.4636,-2.4636,-2.4636,0.0,0.0,0.0,0.0,0.0,0.0,0.0,0.0,0.0,0.0,0.0,0.0,0.0,0.0,0.0,0.0,0.0,0.0,0.0,0.0,0.0,0.0,0.0,-3.1356,-3.165,-3.1664,-3.1664,-3.1664,-3.1664,-3.1664,-3.1664,-3.1664,-3.1664,-3.1664,-3.1664,-3.1664,-3.1664,-3.1664,-3.1664,-3.1664,0.0,0.0,-3.1664,-3.1664,-3.1664,-3.1664,-3.1664,-3.1664,-3.1664,-3.1664,-3.1664,-3.1664,-3.1664,-3.1704,-3.1784,-3.2024,-3.2158,-3.2332,-3.2826,-3.3013,-3.304,-3.304,-3.6892,-4.1156,-4.1139,-4.4984,-4.8867,-4.8867,-4.8867,-4.8867,-4.8867,-4.8867,-4.8867,-4.8867,-4.8867,-4.8867,-4.8867,-4.8867,-4.8867,-4.8867,-4.8867,-4.8867,-4.8867,-4.8867,-4.8867,-4.8867,-4.8867,-4.8867,-4.8867,-4.8867,-4.8867,-4.8867,-4.8867,-4.8867,-4.8867,-4.8867,-4.8867,-4.8867,-4.8867,-4.8867,-4.8867,-4.8867,-4.8867,-4.8867,-4.8867,-4.8867,-2.3768,-2.4195,-2.4636,-2.4636,-2.4636,-2.4636,0.0,0.0,0.0,0.0,0.0,0.0,0.0,0.0,0.0,0.0,0.0,0.0,0.0,0.0,0.0,0.0,0.0,0.0,0.0,0.0,0.0,0.0,0.0,-3.1356,-3.165,-3.1664,-3.1664,-3.1664,-3.1664,-3.1664,-3.1664,-3.1664,-3.1664,-3.1664,-3.1664,-3.1664,-3.1664,-3.1664,-3.1664,-3.1664,0.0,-3.1664,-3.1664,-3.1664,-3.1664,-3.1664,-3.1664,-3.1664,-3.1664,-3.1664,-3.1664,-3.1664,-3.1664,-3.1837,-3.2051,-3.2091,-3.2438,-3.2866,-3.2946,-3.3146,-3.3347,-3.3347,-3.7055,-4.1139,-4.1139,-4.4984,-4.8867,-4.8867,-4.8867,-4.8867,-4.8867,-4.8867,-4.8867,-4.8867,-4.8867,-4.8867,-4.8867,-4.8867,-4.8867,-4.8867,-4.8867,-4.8867,-4.8867,-4.8867,-4.8867,-4.8867,-4.8867,-4.8867,-4.8867,-4.8867,-4.8867,-4.8867,-4.8867,-4.8867,-4.8867,-4.8867,-4.8867,-4.8867,-4.8867,-4.8867,-4.8867,-4.8867,-4.8867,-4.8867,-4.8867,-4.8867,-2.3768,-2.4195,-2.4636,-2.4636,-2.4636,-2.4636,0.0,0.0,0.0,0.0,0.0,0.0,0.0,0.0,0.0,0.0,0.0,0.0,0.0,0.0,0.0,0.0,0.0,0.0,0.0,0.0,0.0,0.0,0.0,0.0,-3.1664,-3.1664,-3.1664,-3.1664,-3.1664,-3.1664,-3.1664,-3.1664,-3.1664,-3.1664,-3.1664,-3.1664,-3.1664,-3.1664,-3.1664,-3.1664,0.0,-3.1664,-3.1664,-3.1664,-3.1664,-3.1664,-3.1664,-3.1664,-3.1664,-3.1664,-3.1664,-3.169,-3.1851,-3.1984,-3.2158,-3.2465,-3.2759,-3.3013,-3.316,-3.3307,-3.3414,-3.3414,-3.6129,-3.9399,-4.0754,-4.4021,-4.712,-4.8478,-4.8867,-4.8867,-4.8867,-4.8867,-4.8867,-4.8867,-4.8867,-4.8867,-4.8867,-4.8867,-4.8867,-4.8867,-4.8867,-4.8867,-4.8867,-4.8867,-4.8867,-4.8867,-4.8867,-4.8867,-4.8867,-4.8867,-4.8867,-4.8867,-4.8867,-4.8867,-4.8867,-4.8867,-4.8867,-4.8867,-4.8867,-4.8867,-4.8867,-4.8867,-4.8867,-4.8867,-4.8867,-4.8867,-2.3768,-2.4195,-2.4636,-2.4636,0.0,0.0,0.0,0.0,0.0,0.0,0.0,0.0,0.0,0.0,0.0,0.0,0.0,0.0,0.0,0.0,0.0,0.0,0.0,0.0,0.0,0.0,0.0,0.0,0.0,0.0,-3.1664,-3.1664,-3.1664,-3.1664,-3.1664,-3.1664,-3.1664,-3.1664,-3.1664,-3.1664,-3.1664,-3.1664,-3.1664,-3.1664,-3.1664,-3.1664,-3.1664,-3.1664,-3.1664,-3.1664,-3.1664,-3.1664,-3.1664,-3.1664,-3.1664,-3.1664,-3.1664,-3.1717,-3.1998,-3.2144,-3.2291,-3.2812,-3.3026,-3.312,-3.3347,-3.3414,-3.3414,-3.3414,-3.477,-3.6889,-3.9593,-4.2099,-4.4607,-4.6542,-4.712,-4.7307,-4.7883,-4.8069,-4.8088,-4.8848,-4.8867,-4.8867,-4.8867,-4.8867,-4.8867,-4.8867,-4.8867,-4.8867,-4.8867,-4.8867,-4.8867,-4.8867,-4.8867,-4.8867,-4.8867,-4.8867,-4.8867,-4.8867,-4.8867,-4.8867,-4.8867,-4.8867,-4.8867,-4.8867,-4.8867,-4.8867,-4.8867,-4.8867,-4.8867,-4.8867,-4.8867,-4.8867,-2.3768,-2.4195,-2.4636,0.0,0.0,0.0,0.0,0.0,0.0,0.0,0.0,0.0,0.0,0.0,0.0,0.0,0.0,0.0,0.0,0.0,0.0,0.0,0.0,0.0,0.0,0.0,0.0,0.0,0.0,0.0,-3.1664,-3.1664,-3.1664,-3.1664,-3.1664,-3.1664,-3.1664,-3.1664,-3.1664,-3.1664,-3.1664,-3.1664,-3.1664,-3.1664,-3.1664,-3.1664,-3.1664,-3.1664,-3.1664,-3.1664,-3.1664,-3.1664,-3.1664,-3.1664,-3.1664,-3.1664,-3.1664,-3.1717,-3.1998,-3.2278,-3.2572,-3.2879,-3.316,-3.3387,-3.34,-3.3414,-3.3414,-3.3414,-3.3614,-3.4186,-3.6889,-3.9593,-4.1524,-4.1716,-4.1716,-4.2482,-4.4796,-4.5361,-4.5943,-4.8459,-4.8867,-4.8867,-4.8867,-4.8867,-4.8867,-4.8867,-4.8867,-4.8867,-4.8867,-4.8867,-4.8867,-4.8867,-4.8867,-4.8867,-4.8867,-4.8867,-4.8867,-4.8867,-4.8867,-4.8867,-4.8867,-4.8867,-4.8867,-4.8867,-4.8867,-4.8867,-4.8867,-4.8867,-4.8867,-4.8867,-4.8867,-4.8867,-2.3995,-2.4329,0.0,0.0,0.0,0.0,0.0,0.0,0.0,0.0,0.0,0.0,0.0,0.0,0.0,0.0,0.0,0.0,0.0,0.0,0.0,0.0,0.0,0.0,0.0,0.0,0.0,0.0,0.0,0.0,-3.1664,-3.1664,-3.1664,-3.1664,-3.1664,-3.1664,-3.1664,-3.1664,-3.1664,-3.1664,-3.1664,-3.1664,-3.1664,-3.1664,-3.1664,-3.1664,-3.1664,-3.1664,-3.1664,-3.1664,-3.1664,-3.1664,-3.1664,-3.1664,-3.1664,-3.1664,-3.1784,-3.1984,-3.2278,-3.2572,-3.2866,-3.3146,-3.332,-3.3414,-3.3414,-3.3414,-3.3414,-3.3414,-3.3414,-3.3987,-3.6706,-3.805,-3.9205,-4.0754,-4.1139,-4.1524,-4.2482,-4.3832,-4.5361,-4.6336,-4.7883,-4.8867,-4.8867,-4.8867,-4.8867,-4.8867,-4.8867,-4.8867,-4.8867,-4.8867,-4.8867,-4.8867,-4.8867,-4.8867,-4.8867,-4.8867,-4.8867,-4.8867,-4.8867,-4.8867,-4.8867,-4.8867,-4.8867,-4.8867,-4.8867,-4.8867,-4.8867,-4.8867,-4.8867,-4.8867,-4.8867,-4.8867,-2.4128,-2.4422,0.0,0.0,0.0,0.0,0.0,0.0,0.0,0.0,0.0,0.0,0.0,0.0,0.0,0.0,0.0,0.0,0.0,0.0,0.0,0.0,0.0,0.0,0.0,0.0,0.0,0.0,0.0,0.0,0.0,-3.1664,-3.1664,-3.1664,-3.1664,-3.1664,-3.1664,-3.1664,-3.1664,-3.1664,-3.1664,-3.1664,-3.1664,-3.1664,-3.1664,-3.1664,-3.1664,-3.1664,-3.1664,-3.1664,-3.1664,-3.1664,-3.1664,-3.1664,-3.1677,-3.177,-3.1931,-3.2158,-3.2545,-3.2812,-3.3026,-3.332,-3.3414,-3.3414,-3.3414,-3.3414,-3.3414,-3.3414,-3.3414,-3.38,-3.5536,-3.6129,-3.6509,-3.8246,-3.8831,-3.9026,-3.9787,-4.1907,-4.4021,-4.4796,-4.7102,-4.8867,-4.8867,-4.8867,-4.8867,-4.8867,-4.8867,-4.8867,-4.8867,-4.8867,-4.8867,-4.8867,-4.8867,-4.8867,-4.8867,-4.8867,-4.8867,-4.8867,-4.8867,-4.8867,-4.8867,-4.8867,-4.8867,-4.8867,-4.8867,-4.8867,-4.8867,-4.8867,-4.8867,-4.8867,-4.8867,-4.8867,-2.4128,-2.4422,0.0,0.0,0.0,0.0,0.0,0.0,0.0,0.0,0.0,0.0,0.0,0.0,0.0,0.0,0.0,0.0,0.0,0.0,0.0,0.0,0.0,0.0,0.0,0.0,0.0,0.0,0.0,0.0,0.0,-3.1664,-3.1664,-3.1664,-3.1664,-3.1664,-3.1664,-3.1664,-3.1664,-3.1664,-3.1664,-3.1664,-3.1664,-3.1664,-3.1664,-3.1664,-3.1664,-3.1664,-3.1664,-3.1664,-3.1664,-3.1664,-3.1664,-3.1664,-3.1704,-3.1998,-3.2104,-3.2185,-3.2772,-3.2986,-3.3026,-3.332,-3.3414,-3.3414,-3.3414,-3.3414,-3.3414,-3.3414,-3.3414,-3.3414,-3.3414,-3.3414,-3.3414,-3.3414,-3.3414,-3.4186,-3.6706,-3.9221,-4.1924,-4.44,-4.7102,-4.8848,-4.8867,-4.8867,-4.8867,-4.8867,-4.8867,-4.8867,-4.8867,-4.8867,-4.8867,-4.8867,-4.8867,-4.8867,-4.8867,-4.8867,-4.8867,-4.8867,-4.8867,-4.8867,-4.8867,-4.8867,-4.8867,-4.8867,-4.8867,-4.8867,-4.8867,-4.8867,-4.8867,-4.8867,-4.8867,-4.8867,-2.4369,0.0,0.0,0.0,0.0,0.0,0.0,0.0,0.0,0.0,0.0,0.0,0.0,0.0,0.0,0.0,0.0,0.0,0.0,0.0,0.0,0.0,0.0,0.0,0.0,0.0,0.0,0.0,0.0,0.0,0.0,-3.1664,-3.1664,-3.1664,-3.1664,-3.1664,-3.1664,-3.1664,-3.1664,-3.1664,-3.1664,-3.1664,-3.1664,-3.1664,-3.1664,-3.1664,-3.1664,-3.1664,-3.1664,-3.1664,-3.1664,-3.1664,-3.1664,-3.1664,-3.1704,-3.1998,-3.2238,-3.2465,-3.2853,-3.3106,-3.3293,-3.3387,-3.3414,-3.3414,-3.3414,-3.3414,-3.3414,-3.3414,-3.3414,-3.3414,-3.3414,-3.3414,-3.3414,-3.3414,-3.3414,-3.36,-3.4386,-3.6509,-3.9221,-4.1907,-4.44,-4.6728,-4.8663,-4.8867,-4.8867,-4.8867,-4.8867,-4.8867,-4.8867,-4.8867,-4.8867,-4.8867,-4.8867,-4.8867,-4.8867,-4.8867,-4.8867,-4.8867,-4.8867,-4.8867,-4.8867,-4.8867,-4.8867,-4.8867,-4.8867,-4.8867,-4.8867,-4.8867,-4.8867,-4.8867,-4.8867,-4.8867,-2.4516,0.0,0.0,0.0,0.0,0.0,0.0,0.0,0.0,0.0,0.0,0.0,0.0,0.0,0.0,0.0,0.0,0.0,0.0,0.0,0.0,0.0,0.0,0.0,0.0,0.0,0.0,0.0,0.0,0.0,0.0,-3.1664,-3.1664,-3.1664,-3.1664,-3.1664,-3.1664,-3.1664,-3.1664,-3.1664,-3.1664,-3.1664,-3.1664,-3.1664,-3.1664,-3.1664,-3.1664,-3.1664,-3.1664,-3.1664,-3.1664,-3.1664,-3.1664,-3.1744,-3.1877,-3.2171,-3.2465,-3.2759,-3.3053,-3.3267,-3.3414,-3.3414,-3.3414,-3.3414,-3.3414,-3.3414,-3.3414,-3.3414,-3.3414,-3.3414,-3.3414,-3.3414,-3.3414,-3.3414,-3.3414,-3.3414,-3.3414,-3.555,-3.805,-4.0754,-4.3262,-4.5755,-4.8459,-4.8867,-4.8867,-4.8867,-4.8867,-4.8867,-4.8867,-4.8867,-4.8867,-4.8867,-4.8867,-4.8867,-4.8867,-4.8867,-4.8867,-4.8867,-4.8867,-4.8867,-4.8867,-4.8867,-4.8867,-4.8867,-4.8867,-4.8867,-4.8867,-4.8867,-4.8867,-4.8867,-4.8867,-4.8867,0.0,0.0,0.0,0.0,0.0,0.0,0.0,0.0,0.0,0.0,0.0,0.0,0.0,0.0,0.0,0.0,0.0,0.0,0.0,0.0,0.0,0.0,0.0,0.0,0.0,0.0,0.0,0.0,0.0,0.0,0.0,-3.1664,-3.1664,-3.1664,-3.1664,-3.1664,-3.1664,-3.1664,-3.1664,-3.1664,-3.1664,-3.1664,-3.1664,-3.1664,-3.1664,-3.1664,-3.1664,-3.1664,-3.1664,-3.1664,-3.1664,-3.1677,-3.1704,-3.1877,-3.2144,-3.2465,-3.2746,-3.3026,-3.3307,-3.3414,-3.3414,-3.3414,-3.3414,-3.3414,-3.3414,-3.3414,-3.3414,-3.3414,-3.3414,-3.3414,-3.3414,-3.3414,-3.3414,-3.3414,-3.3414,-3.3414,-3.3414,-3.5352,-3.7674,-4.0368,-4.2863,-4.5567,-4.8088,-4.8663,-4.8867,-4.8867,-4.8867,-4.8867,-4.8867,-4.8867,-4.8867,-4.8867,-4.8867,-4.8867,-4.8867,-4.8867,-4.8867,-4.8867,-4.8867,-4.8867,-4.8867,-4.8867,-4.8867,-4.8867,-4.8867,-4.8867,-4.8867,-4.8867,-4.8867,-4.8867,-4.8867,-4.8867,0.0,0.0,0.0,0.0,0.0,0.0,0.0,0.0,0.0,0.0,0.0,0.0,0.0,0.0,0.0,0.0,0.0,0.0,0.0,0.0,0.0,0.0,0.0,0.0,0.0,0.0,0.0,0.0,0.0,0.0,-3.1664,-3.1664,-3.1664,-3.1664,-3.1664,-3.1664,-3.1664,-3.1664,-3.1664,0.0,-3.1664,-3.1664,-3.1664,-3.1664,-3.1664,-3.1664,-3.1664,-3.1664,-3.1664,-3.1664,-3.1664,-3.169,-3.1917,-3.2051,-3.2171,-3.2692,-3.2919,-3.3026,-3.3307,-3.3414,-3.3414,-3.3414,-3.3414,-3.3414,-3.3414,-3.3414,-3.3414,-3.3414,-3.3414,-3.3414,-3.3414,-3.3414,-3.3414,-3.3414,-3.3414,-3.3414,-3.3414,-3.38,-3.4955,-3.7674,-4.0174,-4.2863,-4.5379,-4.7493,-4.8867,-4.8867,-4.8867,-4.8867,-4.8867,-4.8867,-4.8867,-4.8867,-4.8867,-4.8867,-4.8867,-4.8867,-4.8867,-4.8867,-4.8867,-4.8867,-4.8867,-4.8867,-4.8867,-4.8867,-4.8867,-4.8867,-4.8867,-4.8867,-4.8867,-4.8867,-4.8867,-4.8867,0.0,0.0,0.0,0.0,0.0,0.0,0.0,0.0,0.0,0.0,0.0,0.0,0.0,0.0,0.0,0.0,0.0,0.0,0.0,0.0,0.0,0.0,0.0,0.0,0.0,0.0,0.0,0.0,0.0,-3.1664,-3.1664,-3.1664,-3.1664,-3.1664,-3.1664,-3.1664,-3.1664,-3.1664,-3.1664,-3.1664,-3.181,-3.1957,-3.2078,-3.1797,-3.1744,-3.1864,-3.173,-3.1664,-3.1664,-3.1664,-3.1757,-3.1891,-3.2051,-3.2278,-3.2559,-3.2866,-3.3066,-3.32,-3.336,-3.3414,-3.3414,-3.3414,-3.3414,-3.3414,-3.3414,-3.3414,-3.3414,-3.3414,-3.3414,-3.3414,-3.3414,-3.3414,-3.3414,-3.3414,-3.3414,-3.3414,-3.3414,-3.3414,-3.4186,-3.6706,-3.8441,-4.0561,-4.44,-4.712,-4.8867,-4.8867,-4.8867,-4.8867,-4.8867,-4.8867,-4.8867,-4.8867,-4.8867,-4.8867,-4.8867,-4.8867,-4.8867,-4.8867,-4.8867,-4.8867,-4.8867,-4.8867,-4.8867,-4.8867,-4.8867,-4.8867,-4.8867,-4.8867,-4.8867,-4.8867,-4.8867,-4.8867,0.0,0.0,0.0,0.0,0.0,0.0,0.0,0.0,0.0,0.0,0.0,0.0,0.0,0.0,0.0,0.0,0.0,0.0,0.0,0.0,0.0,0.0,0.0,0.0,0.0,0.0,0.0,0.0,0.0,-3.1664,-3.1664,-3.1664,-3.1664,-3.1664,-3.1664,-3.1664,-3.1664,-3.1664,-3.169,-3.1744,-3.2038,-3.2332,-3.2599,-3.2064,-3.1957,-3.2171,-3.1917,-3.1824,-3.1824,-3.1824,-3.1957,-3.2185,-3.2238,-3.2545,-3.2986,-3.304,-3.32,-3.3414,-3.3414,-3.3414,-3.3414,-3.3414,-3.3414,-3.3414,-3.3414,-3.3414,-3.3414,-3.3414,-3.3414,-3.3414,-3.3414,-3.3414,-3.3414,-3.3414,-3.3414,-3.3414,-3.3414,-3.3414,-3.3987,-3.6115,-3.7282,-3.9399,-4.4211,-4.712,-4.8867,-4.8867,-4.8867,-4.8867,-4.8867,-4.8867,-4.8867,-4.8867,-4.8867,-4.8867,-4.8867,-4.8867,-4.8867,-4.8867,-4.8867,-4.8867,-4.8867,-4.8867,-4.8867,-4.8867,-4.8867,-4.8867,-4.8867,-4.8867,-4.8867,-4.8867,-4.8867,-4.8867,0.0,0.0,0.0,0.0,0.0,0.0,0.0,0.0,0.0,0.0,0.0,0.0,0.0,0.0,0.0,0.0,0.0,0.0,0.0,0.0,0.0,0.0,0.0,0.0,0.0,0.0,0.0,0.0,-3.1664,-3.1664,-3.1664,-3.1664,-3.1664,-3.1664,-3.1664,-3.1664,-3.1664,-3.1664,-3.1797,-3.2051,-3.2345,-3.2639,-3.2906,-3.2585,-3.2452,-3.2478,-3.2452,-3.2425,-3.2425,-3.2425,-3.2452,-3.2519,-3.2759,-3.2906,-3.3013,-3.3253,-3.3374,-3.3414,-3.3414,-3.3414,-3.3414,-3.3414,-3.3414,-3.3414,-3.3414,-3.3414,-3.3414,-3.3414,-3.3414,-3.3414,-3.3414,-3.3414,-3.3414,-3.3414,-3.3414,-3.3414,-3.3414,-3.3414,-3.34,-3.38,-3.7674,-4.1524,-4.44,-4.712,-4.8867,-4.8867,-4.8867,-4.8867,-4.8867,-4.8867,-4.8867,-4.8867,-4.8867,-4.8867,-4.8867,-4.8867,-4.8867,-4.8867,-4.8867,-4.8867,-4.8867,-4.8867,-4.8867,-4.8867,-4.8867,-4.8867,-4.8867,-4.8867,-4.8867,-4.8867,-4.8867,-4.8867,0.0,0.0,0.0,0.0,0.0,0.0,0.0,0.0,0.0,0.0,0.0,0.0,0.0,0.0,0.0,0.0,0.0,0.0,0.0,0.0,0.0,0.0,0.0,0.0,0.0,0.0,0.0,0.0,-3.1664,-3.1664,-3.1664,-3.1664,-3.1664,-3.1664,-3.1664,-3.1664,-3.1664,-3.1664,-3.1904,-3.2358,-3.2652,-3.2933,-3.3213,-3.3093,-3.2946,-3.2786,-3.2612,-3.2545,-3.2545,-3.2545,-3.2639,-3.2799,-3.2933,-3.308,-3.324,-3.336,-3.3414,-3.3414,-3.3414,-3.3414,-3.3414,-3.3414,-3.3414,-3.3414,-3.3414,-3.3414,-3.3414,-3.3414,-3.3414,-3.3414,-3.3414,-3.3414,-3.3414,-3.3414,-3.3414,-3.3414,-3.3414,-3.3414,-3.3414,-3.3414,-3.6509,-3.9787,-4.2482,-4.4984,-4.7307,-4.8663,-4.8867,-4.8867,-4.8867,-4.8867,-4.8867,-4.8867,-4.8867,-4.8867,-4.8867,-4.8867,-4.8867,-4.8867,-4.8867,-4.8867,-4.8867,-4.8867,-4.8867,-4.8867,-4.8867,-4.8867,-4.8867,-4.8867,-4.8867,-4.8867,-4.8867,-4.8867,0.0,0.0,0.0,0.0,0.0,0.0,0.0,0.0,0.0,0.0,0.0,0.0,0.0,0.0,0.0,0.0,0.0,0.0,0.0,0.0,0.0,0.0,0.0,0.0,0.0,0.0,0.0,0.0,-3.1664,-3.1664,-3.1664,-3.1664,-3.1664,-3.1664,-3.1664,-3.1664,-3.1664,-3.1824,-3.2104,-3.2545,-3.2919,-3.32,-3.3414,-3.3414,-3.3293,-3.308,-3.2866,-3.2759,-3.2759,-3.2759,-3.2893,-3.3093,-3.3093,-3.3213,-3.3414,-3.3414,-3.3414,-3.3414,-3.3414,-3.3414,-3.3414,-3.3414,-3.3414,-3.3414,-3.3414,-3.3414,-3.3414,-3.3414,-3.3414,-3.3414,-3.3414,-3.3414,-3.3414,-3.3414,-3.3414,-3.3414,-3.3414,-3.3414,-3.3414,-3.3414,-3.555,-3.7855,-3.9787,-4.2863,-4.5755,-4.7679,-4.8459,-4.8867,-4.8867,-4.8867,-4.8867,-4.8867,-4.8867,-4.8867,-4.8867,-4.8867,-4.8867,-4.8867,-4.8867,-4.8867,-4.8867,-4.8867,-4.8867,-4.8867,-4.8867,-4.8867,-4.8867,-4.8867,-4.8867,-4.8867,-4.8867,-4.8867,0.0,0.0,0.0,0.0,0.0,0.0,0.0,0.0,0.0,0.0,0.0,0.0,0.0,0.0,0.0,0.0,0.0,0.0,0.0,0.0,0.0,0.0,0.0,0.0,-3.0795,-3.133,-3.1664,-3.1664,-3.1664,-3.1664,-3.1664,-3.1664,-3.1664,-3.1664,-3.1664,-3.1664,-3.1664,-3.2225,-3.2519,-3.2559,-3.312,-3.34,-3.3414,-3.3414,-3.34,-3.3387,-3.3374,-3.3374,-3.3374,-3.3374,-3.3374,-3.3387,-3.3387,-3.34,-3.3414,-3.3414,-3.3414,-3.3414,-3.3414,-3.3414,-3.3414,-3.3414,-3.3414,-3.3414,-3.3414,-3.3414,-3.3414,-3.3414,-3.3414,-3.3414,-3.3414,-3.3414,-3.3414,-3.3414,-3.3414,-3.3414,-3.3414,-3.3414,-3.3414,-3.3414,-3.555,-3.7282,-3.7478,-4.1716,-4.4984,-4.5173,-4.7307,-4.8867,-4.8867,-4.8867,-4.8867,-4.8867,-4.8867,-4.8867,-4.8867,-4.8867,-4.8867,-4.8867,-4.8867,-4.8867,-4.8867,-4.8867,-4.8867,-4.8867,-4.8867,-4.8867,-4.8867,-4.8867,-4.8867,-4.8867,-4.8867,-4.8867,0.0,0.0,0.0,0.0,0.0,0.0,0.0,0.0,0.0,0.0,0.0,0.0,0.0,0.0,0.0,0.0,0.0,0.0,0.0,0.0,-2.9913,-2.9913,-3.0274,-3.0581,-3.0768,-3.1156,-3.1463,-3.165,-3.1664,-3.1664,-3.1664,-3.1664,-3.1664,-3.1664,-3.1664,-3.1664,-3.1664,-3.2064,-3.2358,-3.2545,-3.2946,-3.3227,-3.3414,-3.3414,-3.3414,-3.3414,-3.3414,-3.3414,-3.3414,-3.3414,-3.3414,-3.3414,-3.3414,-3.3414,-3.3414,-3.3414,-3.3414,-3.3414,-3.3414,-3.3414,-3.3414,-3.3414,-3.3414,-3.3414,-3.3414,-3.3414,-3.3414,-3.3414,-3.3414,-3.3414,-3.3414,-3.3414,-3.3414,-3.3414,-3.3414,-3.3414,-3.3414,-3.3414,-3.3414,-3.3414,-3.4186,-3.5352,-3.7085,-3.8831,-4.1156,-4.44,-4.5755,-4.6915,-4.8663,-4.8867,-4.8867,-4.8867,-4.8867,-4.8867,-4.8867,-4.8867,-4.8867,-4.8867,-4.8867,-4.8867,-4.8867,-4.8867,-4.8867,-4.8867,-4.8867,-4.8867,-4.8867,-4.8867,-4.8867,-4.8867,-4.8867,-4.8867,0.0,0.0,0.0,0.0,0.0,0.0,0.0,0.0,0.0,0.0,0.0,0.0,0.0,0.0,0.0,0.0,0.0,-2.9913,-2.9913,-2.9913,-2.9913,-2.9913,-3.0181,-3.0474,-3.0768,-3.1049,-3.1343,-3.165,-3.1664,0.0,-3.1664,-3.1664,-3.1664,-3.1664,-3.1664,-3.1664,-3.1664,-3.1957,-3.2198,-3.2398,-3.2799,-3.308,-3.3267,-3.3374,-3.3414,-3.3414,-3.3414,-3.3414,-3.3414,-3.3414,-3.3414,-3.3414,-3.3414,-3.3414,-3.3414,-3.3414,-3.3414,-3.3414,-3.3414,-3.3414,-3.3414,-3.3414,-3.3414,-3.3414,-3.3414,-3.3414,-3.3414,-3.3414,-3.3414,-3.3414,-3.3414,-3.3414,-3.3414,-3.3414,-3.3414,-3.3414,-3.3414,-3.3414,-3.3414,-3.3414,-3.3414,-3.4,-3.5734,-3.6721,-3.8847,-4.3054,-4.44,-4.5943,-4.8478,-4.8867,-4.8867,-4.8867,-4.8867,-4.8867,-4.8867,-4.8867,-4.8867,-4.8867,-4.8867,-4.8867,-4.8867,-4.8867,-4.8867,-4.8867,-4.8867,-4.8867,-4.8867,-4.8867,-4.8867,-4.8867,-4.8867,-4.8867,0.0,0.0,0.0,0.0,0.0,0.0,0.0,0.0,0.0,0.0,0.0,0.0,0.0,0.0,-2.9579,-2.986,-2.9913,-2.9913,-2.9913,-2.9913,-2.9913,-2.9913,-3.0167,-3.0461,-3.0768,-3.1049,-3.1343,-3.165,-3.1664,-3.1664,-3.1664,-3.1664,-3.1664,-3.1664,-3.1664,-3.1664,-3.1664,-3.1944,-3.2091,-3.2104,-3.2679,-3.2959,-3.2986,-3.3267,-3.34,-3.3414,-3.3414,-3.3414,-3.3414,-3.3414,-3.3414,-3.3414,-3.3414,-3.3414,-3.3414,-3.3414,-3.3414,-3.3414,-3.3414,-3.3414,-3.3414,-3.3414,-3.3414,-3.3414,-3.3414,-3.3414,-3.3414,-3.3414,-3.3414,-3.3414,-3.3414,-3.3414,-3.3414,-3.3414,-3.3414,-3.3414,-3.3414,-3.3414,-3.3414,-3.3414,-3.3414,-3.3414,-3.3414,-3.555,-3.805,-4.0754,-4.3262,-4.5755,-4.8459,-4.8848,-4.8867,-4.8867,-4.8867,-4.8867,-4.8867,-4.8867,-4.8867,-4.8867,-4.8867,-4.8867,-4.8867,-4.8867,-4.8867,-4.8867,-4.8867,-4.8867,-4.8867,-4.8867,-4.8867,-4.8867,-4.8867,-4.8867,-2.4636,0.0,0.0,0.0,0.0,0.0,0.0,0.0,0.0,0.0,0.0,-2.8364,-2.8671,-2.9138,-2.9513,-2.9593,-2.978,-2.9913,-2.9913,-2.9913,-2.9913,-2.9913,-2.9993,-3.0234,-3.0742,-3.0862,-3.1129,0.0,-3.1664,-3.1664,-3.1664,-3.1664,-3.1664,-3.1664,-3.1664,-3.1664,-3.1664,-3.1744,-3.1891,-3.2104,-3.2265,-3.2572,-3.2986,-3.3066,-3.3213,-3.3414,-3.3414,-3.3414,-3.3414,-3.3414,-3.3414,-3.3414,-3.3414,-3.3414,-3.3414,-3.3414,-3.3414,-3.3414,-3.3414,-3.3414,-3.3414,-3.3414,-3.3414,-3.3414,-3.3414,-3.3414,-3.3414,-3.3414,-3.3414,-3.3414,-3.3414,-3.3414,-3.3414,-3.3414,-3.3414,-3.3414,-3.3414,-3.3414,-3.3414,-3.3414,-3.3414,-3.3414,-3.3414,-3.3987,-3.5352,-3.805,-4.0561,-4.3262,-4.5755,-4.7698,-4.8867,-4.8867,-4.8867,-4.8867,-4.8867,-4.8867,-4.8867,-4.8867,-4.8867,-4.8867,-4.8867,-4.8867,-4.8867,-4.8867,-4.8867,-4.8867,-4.8867,-4.8867,-4.8867,-4.8867,-4.8867,-4.8867,0.0,0.0,0.0,0.0,0.0,0.0,-2.5919,-2.64,-2.6907,0.0,-2.7629,-2.8096,-2.8524,-2.8885,-2.9205,-2.9446,-2.9619,-2.978,-2.99,-2.9913,-2.9913,-2.9913,-2.9913,-3.01,-3.0568,-3.0715,-3.0982,-3.145,-3.1597,-3.1664,-3.1664,-3.1664,-3.1664,-3.1664,-3.1664,-3.1664,-3.1664,-3.1664,-3.1757,-3.1917,-3.2051,-3.2278,-3.2625,-3.2866,-3.3066,-3.324,-3.336,-3.3414,-3.3414,-3.3414,-3.3414,-3.3414,-3.3414,-3.3414,-3.3414,-3.3414,-3.3414,-3.3414,-3.3414,-3.3414,-3.3414,-3.3414,-3.3414,-3.3414,-3.3414,-3.3414,-3.3414,-3.3414,-3.3414,-3.3414,-3.3414,-3.3414,-3.3414,-3.3414,-3.3414,-3.3414,-3.3414,-3.3414,-3.3414,-3.3414,-3.3414,-3.3414,-3.3414,-3.3414,-3.4386,-3.6889,-3.9593,-4.2099,-4.4607,-4.7307,-4.8867,-4.8867,-4.8867,-4.8867,-4.8867,-4.8867,-4.8867,-4.8867,-4.8867,-4.8867,-4.8867,-4.8867,-4.8867,-4.8867,-4.8867,-4.8867,-4.8867,-4.8867,-4.8867,-4.8867,-4.8867,-4.8867,0.0,0.0,0.0,0.0,0.0,0.0,-2.5999,-2.64,-2.6854,-2.7161,-2.7455,-2.7829,-2.8404,-2.8564,-2.8778,-2.9299,-2.9446,-2.9579,-2.9873,-2.9913,-2.9913,-2.9913,-2.9913,-3.0034,-3.0327,-3.0595,-3.0875,-3.1196,-3.1503,-3.1664,-3.1664,-3.1664,-3.1664,-3.1664,-3.1664,-3.1664,-3.1664,-3.1664,-3.1664,-3.1677,-3.1931,-3.2064,-3.2118,-3.2639,-3.2919,-3.2986,-3.3253,-3.3387,-3.3414,-3.3414,-3.3414,-3.3414,-3.3414,-3.3414,-3.3414,-3.3414,-3.3414,-3.3414,-3.3414,-3.3414,-3.3414,-3.3414,-3.3414,-3.3414,-3.3414,-3.3414,-3.3414,-3.3414,-3.3414,-3.3414,-3.3414,-3.3414,-3.3414,-3.3414,-3.3414,-3.3414,-3.3414,-3.3414,-3.3414,-3.3414,-3.3414,-3.3414,-3.3414,-3.3414,-3.4386,-3.6889,-3.9593,-4.2099,-4.4607,-4.7307,-4.8867,-4.8867,-4.8867,-4.8867,-4.8867,-4.8867,-4.8867,-4.8867,-4.8867,-4.8867,-4.8867,-4.8867,-4.8867,-4.8867,-4.8867,-4.8867,-4.8867,-4.8867,-4.8867,-4.8867,-4.8867,-4.8867,0.0,0.0,0.0,0.0,0.0,0.0,-2.6253,-2.6386,-2.656,0.0,-2.7148,-2.7455,-2.7816,-2.827,-2.8644,-2.8764,-2.9179,-2.9579,-2.9873,-2.9913,-2.9913,-2.9913,-2.9913,-3.0034,-3.0327,-3.0408,-3.0662,-3.1183,-3.1503,-3.1664,-3.1664,-3.1664,-3.1664,-3.1664,-3.1664,-3.1664,-3.1664,-3.1664,-3.1664,-3.1664,-3.173,-3.1877,-3.2104,-3.2225,-3.2532,-3.2986,-3.304,-3.32,-3.3414,-3.3414,-3.3414,-3.3414,-3.3414,-3.3414,-3.3414,-3.3414,-3.3414,-3.3414,-3.3414,-3.3414,-3.3414,-3.3414,-3.3414,-3.3414,-3.3414,-3.3414,-3.3414,-3.3414,-3.3414,-3.3414,-3.3414,-3.3414,-3.3414,-3.3414,-3.3414,-3.3414,-3.3414,-3.3414,-3.3414,-3.3414,-3.3414,-3.3414,-3.3414,-3.3414,-3.4386,-3.6889,-3.9415,-4.2116,-4.4607,-4.7307,-4.8867,-4.8867,-4.8867,-4.8867,-4.8867,-4.8867,-4.8867,-4.8867,-4.8867,-4.8867,-4.8867,-4.8867,-4.8867,-4.8867,-4.8867,-4.8867,-4.8867,-4.8867,-4.8867,-4.8867,-4.8867,-4.8867,0.0,0.0,0.0,-2.5879,0.0,0.0,0.0,-2.6386,-2.6466,-2.676,-2.6934,-2.7175,-2.7615,-2.7949,-2.8257,-2.8551,-2.8858,-2.9192,-2.9633,-2.982,-2.9913,-2.9913,-2.9913,-2.998,-3.0127,-3.0274,-3.0595,-3.1183,-3.1356,-3.1517,-3.1664,-3.1664,-3.1664,-3.1664,-3.1664,-3.1664,-3.1664,-3.1664,-3.1664,-3.1664,-3.1664,-3.1744,-3.1891,-3.2038,-3.2265,-3.2545,-3.2706,-3.2933,-3.32,-3.32,-3.328,-3.3414,-3.3414,-3.3414,-3.3414,-3.3414,-3.3414,-3.3414,-3.3414,-3.3414,-3.3414,-3.3414,-3.3414,-3.3414,-3.3414,-3.3414,-3.3414,-3.3414,-3.3414,-3.3414,-3.3414,-3.3414,-3.3414,-3.3414,-3.3414,-3.3414,-3.3414,-3.3414,-3.3414,-3.3414,-3.3414,-3.3414,-3.3414,-3.4386,-3.5366,-3.5352,-3.9803,-4.3088,-4.3071,-4.6542,-4.8867,-4.8867,-4.8867,-4.8867,-4.8867,-4.8867,-4.8867,-4.8867,-4.8867,-4.8867,-4.8867,-4.8867,-4.8867,-4.8867,-4.8867,-4.8867,-4.8867,-4.8867,-4.8867,-4.8867,-4.8867,-4.8867,0.0,0.0,0.0,0.0,0.0,-2.6386,0.0,0.0,0.0,-2.6694,-2.6787,0.0,0.0,0.0,0.0,-2.843,0.0,0.0,0.0,-2.9566,0.0,-2.99,-2.9913,-2.9913,-2.9913,-3.0181,-3.0555,-3.1022,-3.1156,-3.133,-3.157,-3.1637,-3.1664,-3.1664,-3.1664,-3.1664,-3.1664,-3.1664,-3.1664,-3.1664,-3.1664,-3.1664,-3.1677,-3.1904,-3.2051,-3.2118,-3.2358,-3.2625,-3.2893,-3.2893,-3.3026,-3.3253,-3.3374,-3.3414,-3.3414,-3.3414,-3.3414,-3.3414,-3.3414,-3.3414,-3.3414,-3.3414,-3.3414,-3.3414,-3.3414,-3.3414,-3.3414,-3.3414,-3.3414,-3.3414,-3.3414,-3.3414,-3.3414,-3.3414,-3.3414,-3.3414,-3.3414,-3.3414,-3.3414,-3.3414,-3.3414,-3.3414,-3.3414,-3.5167,-3.5946,-3.4386,-3.9415,-4.3088,-4.2099,-4.5567,-4.8273,-4.8848,-4.8867,-4.8867,-4.8867,-4.8867,-4.8867,-4.8867,-4.8867,-4.8867,-4.8867,-4.8867,-4.8867,-4.8867,-4.8867,-4.8867,-4.8867,-4.8867,-4.8867,-4.8867,-4.8867,-4.8867,0.0,0.0,0.0,0.0,-2.636,0.0,0.0,0.0,-2.64,-2.6426,0.0,-2.6921,0.0,0.0,0.0,0.0,0.0,0.0,-2.8698,-2.8951,-2.9325,-2.986,-2.9913,-2.9913,-2.9913,-3.0181,-3.0394,-3.0448,-3.0929,-3.1236,-3.1276,-3.153,-3.1664,-3.1664,-3.1664,-3.1664,-3.1664,-3.1664,-3.1664,-3.1664,-3.1664,-3.1664,-3.1664,-3.1704,-3.1864,-3.2104,-3.2144,-3.2318,-3.2599,-3.2599,-3.2612,-3.2692,-3.3213,-3.3414,-3.3414,-3.3414,-3.3414,-3.3414,-3.3414,-3.3414,-3.3414,-3.3414,-3.3414,-3.3414,-3.3414,-3.3414,-3.3414,-3.3414,-3.3414,-3.3414,-3.3414,-3.3414,-3.3414,-3.3414,-3.3414,-3.3414,-3.3414,-3.3414,-3.3414,-3.3414,-3.3414,-3.3414,-3.3414,-3.36,-3.4585,-3.6509,-3.7674,-3.9787,-4.4021,-4.4984,-4.6336,-4.8663,-4.8867,-4.8867,-4.8867,-4.8867,-4.8867,-4.8867,-4.8867,-4.8867,-4.8867,-4.8867,-4.8867,-4.8867,-4.8867,-4.8867,-4.8867,-4.8867,-4.8867,-4.8867,-4.8867,-4.8867,0.0,0.0,0.0,0.0,0.0,0.0,-2.6386,0.0,-2.6386,0.0,0.0,0.0,0.0,0.0,0.0,0.0,-2.8257,-2.8404,-2.8577,-2.8711,-2.9005,-2.9593,-2.9659,0.0,-2.99,-3.0034,-3.0181,-3.0341,-3.0581,-3.0862,-3.1209,-3.1343,-3.149,-3.1664,-3.1664,-3.1664,-3.1664,-3.1664,-3.1664,-3.1664,-3.1664,-3.1664,-3.1664,-3.1664,-3.173,-3.1851,-3.1851,-3.2024,-3.2291,-3.2291,-3.2385,-3.2572,-3.2812,-3.3013,-3.3187,-3.3347,-3.3414,-3.3414,-3.3414,-3.3414,-3.3414,-3.3414,-3.3414,-3.3414,-3.3414,-3.3414,-3.3414,-3.3414,-3.3414,-3.3414,-3.3414,-3.3414,-3.3414,-3.3414,-3.3414,-3.3414,-3.3414,-3.3414,-3.3414,-3.3414,-3.3414,-3.3414,-3.3414,-3.4585,-3.5564,-3.5153,-3.7674,-4.0368,-4.2482,-4.4021,-4.5943,-4.8663,-4.8867,-4.8867,-4.8867,-4.8867,-4.8867,-4.8867,-4.8867,-4.8867,-4.8867,-4.8867,-4.8867,-4.8867,-4.8867,-4.8867,-4.8867,-4.8867,-4.8867,-4.8867,-4.8867,-4.8867,-2.6573,0.0,0.0,0.0,0.0,0.0,0.0,0.0,0.0,0.0,0.0,0.0,0.0,0.0,0.0,0.0,0.0,-2.8217,-2.8444,-2.8484,-2.8698,-2.9285,-2.9432,0.0,0.0,-2.9913,-3.0007,-3.0221,-3.0314,-3.0541,-3.0969,-3.1142,-3.133,-3.1543,-3.1623,-3.1664,-3.1664,-3.1664,-3.1664,-3.1664,-3.1664,-3.1664,-3.1664,-3.1664,-3.1664,-3.1664,-3.1664,-3.1784,-3.1984,-3.1984,-3.2118,-3.2318,-3.2385,-3.2559,-3.2786,-3.316,-3.3347,-3.3414,-3.3414,-3.3414,-3.3414,-3.3414,-3.3414,-3.3414,-3.3414,-3.3414,-3.3414,-3.3414,-3.3414,-3.3414,-3.3414,-3.3414,-3.3414,-3.3414,-3.3414,-3.3414,-3.3414,-3.3414,-3.3414,-3.3414,-3.3414,-3.3414,-3.3414,-3.4969,-3.5564,-3.36,-3.6706,-3.9399,-3.9981,-4.229,-4.4984,-4.7493,-4.8459,-4.8867,-4.8867,-4.8867,-4.8867,-4.8867,-4.8867,-4.8867,-4.8867,-4.8867,-4.8867,-4.8867,-4.8867,-4.8867,-4.8867,-4.8867,-4.8867,-4.8867,-4.8867,-4.8867,0.0,0.0,0.0,-2.7241,0.0,0.0,0.0,0.0,-2.6894,0.0,0.0,0.0,0.0,0.0,0.0,0.0,0.0,0.0,0.0,-2.8163,-2.8377,-2.8978,-2.9312,-2.9606,0.0,-2.9913,-2.9913,-2.9927,-3.0194,-3.0368,-3.0381,-3.0915,-3.1223,-3.1236,-3.1517,-3.1664,-3.1664,-3.1664,-3.1664,-3.1664,-3.1664,-3.1664,-3.1664,-3.1664,-3.1664,-3.1664,-3.1664,-3.1677,-3.1677,-3.1677,-3.169,-3.1717,-3.2011,-3.2118,-3.2198,-3.2772,-3.3173,-3.3414,-3.3414,-3.3414,-3.3414,-3.3414,-3.3414,-3.3414,-3.3414,-3.3414,-3.3414,-3.3414,-3.3414,-3.3414,-3.3414,-3.3414,-3.3414,-3.3414,-3.3414,-3.3414,-3.3414,-3.3414,-3.3414,-3.3414,-3.3414,-3.3414,-3.3414,-3.3414,-3.3414,-3.3414,-3.36,-3.4571,-3.7085,-3.9787,-4.229,-4.4796,-4.7307,-4.8867,-4.8867,-4.8867,-4.8867,-4.8867,-4.8867,-4.8867,-4.8867,-4.8867,-4.8867,-4.8867,-4.8867,-4.8867,-4.8867,-4.8867,-4.8867,-4.8867,-4.8867,-4.8867,0.0,0.0,-2.7268,-2.7268,0.0,0.0,0.0,0.0,0.0,0.0,0.0,0.0,0.0,0.0,0.0,0.0,0.0,0.0,0.0,-2.8136,-2.8297,-2.8711,-2.9192,-2.9526,-2.9619,-2.9806,-2.9913,-2.9913,-3.0007,-3.0154,-3.0354,-3.0541,-3.0822,-3.1209,-3.1316,-3.1476,-3.1664,-3.1664,-3.1664,-3.1664,-3.1664,-3.1664,-3.1664,-3.1664,-3.1664,-3.1664,-3.1664,-3.1664,-3.1664,-3.1664,-3.1664,-3.1677,-3.1784,-3.1931,-3.2144,-3.2545,-3.2759,-3.2866,-3.3053,-3.3253,-3.3414,-3.3414,-3.3414,-3.3414,-3.3414,-3.3414,-3.3414,-3.3414,-3.3414,-3.3414,-3.3414,-3.3414,-3.3414,-3.3414,-3.3414,-3.3414,-3.3414,-3.3414,-3.3414,-3.3414,-3.3414,-3.3414,-3.3414,-3.3414,-3.3414,-3.3414,-3.3414,-3.4386,-3.6903,-3.805,-4.0174,-4.4589,-4.5755,-4.7102,-4.8663,-4.8867,-4.8867,-4.8867,-4.8867,-4.8867,-4.8867,-4.8867,-4.8867,-4.8867,-4.8867,-4.8867,-4.8867,-4.8867,-4.8867,-4.8867,-4.8867,-4.8867,-2.7575,-2.7575,0.0,-2.7575,-2.7575,0.0,-2.7575,0.0,0.0,0.0,0.0,0.0,0.0,0.0,0.0,0.0,0.0,0.0,0.0,-2.8136,-2.8217,-2.8417,-2.8871,-2.9259,-2.9459,-2.9659,-2.9806,-2.9913,-2.9913,-3.0007,-3.0194,-3.0301,-3.0581,-3.1049,-3.1169,-3.137,-3.1664,-3.1664,-3.1664,-3.1664,-3.1664,-3.1664,-3.1664,-3.1664,-3.1664,-3.1664,-3.1664,-3.1664,-3.1664,-3.1664,-3.1664,-3.1664,-3.1664,-3.1784,-3.1984,-3.2278,-3.2452,-3.2572,-3.2759,-3.2946,-3.312,-3.3227,-3.3253,-3.328,-3.3374,-3.3414,-3.3454,-3.3668,-3.3574,-3.3467,-3.3681,-3.3574,-3.3387,-3.328,-3.3253,-3.3227,-3.3133,-3.3106,-3.3106,-3.3106,-3.3106,-3.3106,-3.3106,-3.3187,-3.3293,-3.34,-3.3414,-3.3987,-3.5734,-3.7478,-3.9981,-4.3262,-4.5361,-4.7102,-4.8663,-4.8867,-4.8867,-4.8867,-4.8867,-4.8867,-4.8867,-4.8867,-4.8867,-4.8867,-4.8867,-4.8867,-4.8867,-4.8867,-4.8867,-4.8867,-4.8867,-4.8867]}]]